[[{"header":{"parameterUnit":"m.s-1","parameterCategory":1,"la1":30.6,"la2":28.766,"lo1":-90.7593,"lo2":-88.6598,"dy":0.0162,"dx":0.0183,"nx":116,"ny":114,"refTime":"2023-05-25T18:00:00:Z","depth":0,"parameterNumber":2,"parameterNumberName":"U-component_of_WINDS"},"data":[0.0,0.0,0.0,0.0,0.0,0.0,0.0,0.0,0.0,0.0,0.0,0.0,0.0,0.0,0.0,0.0,0.0,0.0,0.0,0.0,0.0,0.0,0.0,0.0,0.0,0.0,0.0,0.0,0.0,0.0,0.0,0.0,0.0,0.0,0.0,0.0,0.0,0.0,0.0,0.0,0.0,0.0,0.0,0.0,0.0,0.0,0.0,0.0,0.0,0.0,0.0,0.0,0.0,0.0,0.0,0.0,0.0,0.0,0.0,0.0,0.0,0.0,0.0,0.0,0.0,0.0,0.0,0.0,0.0,0.0,0.0,0.0,0.0,0.0,0.0,0.0,0.0,0.0,0.0,0.0,0.0,0.0,0.0,0.0,0.0,0.0,0.0,0.0,0.0,0.0,0.0,0.0,0.0,0.0,0.0,0.0,0.0,0.0,0.0,0.0,0.0,0.0,0.0,0.0,0.0,0.0,0.0,0.0,0.0,0.0,0.0,0.0,0.0,0.0,0.0,0.0,0.0,0.0,0.0,0.0,0.0,0.0,0.0,0.0,0.0,0.0,0.0,0.0,0.0,0.0,0.0,0.0,0.0,0.0,0.0,0.0,0.0,0.0,0.0,0.0,0.0,0.0,0.0,0.0,0.0,0.0,0.0,0.0,0.0,0.0,0.0,0.0,0.0,0.0,0.0,0.0,0.0,0.0,0.0,0.0,0.0,0.0,0.0,0.0,0.0,0.0,0.0,0.0,0.0,0.0,0.0,0.0,0.0,0.0,0.0,0.0,0.0,0.0,0.0,0.0,0.0,0.0,0.0,0.0,0.0,0.0,0.0,0.0,0.0,0.0,0.0,0.0,0.0,0.0,0.0,0.0,0.0,0.0,0.0,0.0,0.0,0.0,0.0,0.0,0.0,0.0,0.0,0.0,0.0,0.0,0.0,0.0,0.0,0.0,0.0,0.0,0.0,0.0,0.0,0.0,0.0,0.0,0.0,0.0,0.0,0.0,0.0,0.0,0.0,0.0,0.0,0.0,0.0,0.0,0.0,0.0,0.0,0.0,0.0,0.0,0.0,0.0,0.0,0.0,0.0,0.0,0.0,0.0,0.0,0.0,0.0,0.0,0.0,0.0,0.0,0.0,0.0,0.0,0.0,0.0,0.0,0.0,0.0,0.0,0.0,0.0,0.0,0.0,0.0,0.0,0.0,0.0,0.0,0.0,0.0,0.0,0.0,0.0,0.0,0.0,0.0,0.0,0.0,0.0,0.0,0.0,0.0,0.0,0.0,0.0,0.0,0.0,0.0,0.0,0.0,0.0,0.0,0.0,0.0,0.0,0.0,0.0,0.0,0.0,0.0,0.0,0.0,0.0,0.0,0.0,0.0,0.0,0.0,0.0,0.0,0.0,0.0,0.0,0.0,0.0,0.0,0.0,0.0,0.0,0.0,0.0,0.0,0.0,0.0,0.0,0.0,0.0,0.0,0.0,0.0,0.0,0.0,0.0,0.0,0.0,0.0,0.0,0.0,0.0,0.0,0.0,0.0,0.0,0.0,0.0,0.0,0.0,0.0,0.0,0.0,0.0,0.0,0.0,0.0,0.0,0.0,0.0,0.0,0.0,0.0,0.0,0.0,0.0,0.0,0.0,0.0,0.0,0.0,0.0,0.0,0.0,0.0,0.0,0.0,0.0,0.0,0.0,0.0,0.0,0.0,0.0,0.0,0.0,0.0,0.0,0.0,0.0,0.0,0.0,0.0,0.0,0.0,0.0,0.0,0.0,0.0,0.0,0.0,0.0,0.0,0.0,0.0,0.0,0.0,0.0,0.0,0.0,0.0,0.0,0.0,0.0,0.0,0.0,0.0,0.0,0.0,0.0,0.0,0.0,0.0,0.0,0.0,0.0,0.0,0.0,0.0,0.0,0.0,0.0,0.0,0.0,0.0,0.0,0.0,0.0,0.0,0.0,0.0,0.0,0.0,0.0,0.0,0.0,0.0,0.0,0.0,0.0,0.0,0.0,0.0,0.0,0.0,0.0,0.0,0.0,0.0,0.0,0.0,0.0,0.0,0.0,0.0,0.0,0.0,0.0,0.0,0.0,0.0,0.0,0.0,0.0,0.0,0.0,0.0,0.0,0.0,0.0,0.0,0.0,0.0,0.0,0.0,0.0,0.0,0.0,0.0,0.0,0.0,0.0,0.0,0.0,0.0,0.0,0.0,0.0,0.0,0.0,0.0,0.0,0.0,0.0,0.0,0.0,0.0,0.0,0.0,0.0,0.0,0.0,0.0,0.0,0.0,0.0,0.0,0.0,0.0,0.0,0.0,0.0,0.0,0.0,0.0,0.0,0.0,0.0,0.0,0.0,0.0,0.0,0.0,0.0,0.0,0.0,0.0,0.0,0.0,0.0,0.0,0.0,0.0,0.0,0.0,0.0,0.0,0.0,0.0,0.0,0.0,0.0,0.0,0.0,0.0,0.0,0.0,0.0,0.0,0.0,0.0,0.0,0.0,0.0,0.0,0.0,0.0,0.0,0.0,0.0,0.0,0.0,0.0,0.0,0.0,0.0,0.0,0.0,0.0,0.0,0.0,0.0,0.0,0.0,0.0,0.0,0.0,0.0,0.0,0.0,0.0,0.0,0.0,0.0,0.0,0.0,0.0,0.0,0.0,0.0,0.0,0.0,0.0,0.0,0.0,0.0,0.0,0.0,0.0,0.0,0.0,0.0,0.0,0.0,0.0,0.0,0.0,0.0,0.0,0.0,0.0,0.0,0.0,0.0,0.0,0.0,0.0,0.0,0.0,0.0,0.0,0.0,0.0,0.0,0.0,0.0,0.0,0.0,0.0,0.0,0.0,0.0,0.0,0.0,0.0,0.0,0.0,0.0,0.0,0.0,0.0,0.0,0.0,0.0,0.0,0.0,0.0,0.0,0.0,0.0,0.0,0.0,0.0,0.0,0.0,0.0,0.0,0.0,0.0,0.0,0.0,0.0,0.0,0.0,0.0,0.0,0.0,0.0,0.0,0.0,0.0,0.0,0.0,0.0,0.0,0.0,0.0,0.0,0.0,0.0,0.0,0.0,0.0,0.0,0.0,0.0,0.0,0.0,0.0,0.0,0.0,0.0,0.0,0.0,0.0,0.0,0.0,0.0,0.0,0.0,0.0,0.0,0.0,0.0,0.0,0.0,0.0,0.0,0.0,0.0,0.0,0.0,0.0,0.0,0.0,0.0,0.0,0.0,0.0,0.0,0.0,0.0,0.0,0.0,0.0,0.0,0.0,0.0,0.0,0.0,0.0,0.0,0.0,0.0,0.0,0.0,0.0,0.0,0.0,0.0,0.0,0.0,0.0,0.0,0.0,0.0,0.0,0.0,0.0,0.0,0.0,0.0,0.0,0.0,0.0,0.0,0.0,0.0,0.0,0.0,0.0,0.0,0.0,0.0,0.0,0.0,0.0,0.0,0.0,0.0,0.0,0.0,0.0,0.0,0.0,0.0,0.0,0.0,0.0,0.0,0.0,0.0,0.0,0.0,0.0,0.0,0.0,0.0,0.0,0.0,0.0,0.0,0.0,0.0,0.0,0.0,0.0,0.0,0.0,0.0,0.0,0.0,0.0,0.0,0.0,0.0,0.0,0.0,0.0,0.0,0.0,0.0,0.0,0.0,0.0,0.0,0.0,0.0,0.0,0.0,0.0,0.0,0.0,0.0,0.0,0.0,0.0,0.0,0.0,0.0,0.0,0.0,0.0,0.0,0.0,0.0,0.0,0.0,0.0,0.0,0.0,0.0,0.0,0.0,0.0,0.0,0.0,0.0,0.0,0.0,0.0,0.0,0.0,0.0,0.0,0.0,0.0,0.0,0.0,0.0,0.0,0.0,0.0,0.0,0.0,0.0,0.0,0.0,0.0,0.0,0.0,0.0,0.0,0.0,0.0,0.0,0.0,0.0,0.0,0.0,0.0,0.0,0.0,0.0,0.0,0.0,0.0,0.0,0.0,0.0,0.0,0.0,0.0,0.0,0.0,0.0,0.0,0.0,0.0,0.0,0.0,0.0,0.0,0.0,0.0,0.0,0.0,0.0,0.0,0.0,0.0,0.0,0.0,0.0,0.0,0.0,0.0,0.0,0.0,0.0,0.0,0.0,0.0,0.0,0.0,0.0,0.0,0.0,0.0,0.0,0.0,0.0,0.0,0.0,0.0,0.0,0.0,0.0,0.0,0.0,0.0,0.0,0.0,0.0,0.0,0.0,0.0,0.0,0.0,0.0,0.0,0.0,0.0,0.0,0.0,0.0,0.0,0.0,0.0,0.0,0.0,0.0,0.0,0.0,0.0,0.0,0.0,0.0,0.0,0.0,0.0,0.0,0.0,0.0,0.0,0.0,0.0,0.0,0.0,0.0,0.0,0.0,0.0,0.0,0.0,0.0,0.0,0.0,0.0,0.0,0.0,0.0,0.0,0.0,0.0,0.0,0.0,0.0,0.0,0.0,0.0,0.0,0.0,0.0,0.0,0.0,0.0,0.0,0.0,0.0,0.0,0.0,0.0,0.0,0.0,0.0,0.0,0.0,0.0,0.0,0.0,0.0,0.0,0.0,0.0,0.0,0.0,0.0,0.0,0.0,0.0,0.0,0.0,0.0,0.0,0.0,0.0,0.0,0.0,0.0,0.0,0.0,0.0,0.0,0.0,0.0,0.0,0.0,0.0,0.0,0.0,0.0,0.0,0.0,0.0,0.0,0.0,0.0,0.0,0.0,0.0,0.0,0.0,0.0,0.0,0.0,0.0,0.0,0.0,0.0,0.0,0.0,0.0,0.0,0.0,0.0,0.0,0.0,0.0,0.0,0.0,0.0,0.0,0.0,0.0,0.0,0.0,0.0,0.0,0.0,0.0,0.0,0.0,0.0,0.0,0.0,0.0,0.0,0.0,0.0,0.0,0.0,0.0,0.0,0.0,0.0,0.0,0.0,0.0,0.0,0.0,0.0,0.0,0.0,0.0,0.0,0.0,0.0,0.0,0.0,0.0,0.0,0.0,0.0,0.0,0.0,0.0,0.0,0.0,0.0,0.0,0.0,0.0,0.0,0.0,0.0,0.0,0.0,0.0,0.0,0.0,0.0,0.0,0.0,0.0,0.0,0.0,0.0,0.0,0.0,0.0,0.0,0.0,0.0,0.0,0.0,0.0,0.0,0.0,0.0,0.0,0.0,0.0,0.0,0.0,0.0,0.0,0.0,0.0,0.0,0.0,0.0,0.0,0.0,0.0,0.0,0.0,0.0,0.0,0.0,0.0,0.0,0.0,0.0,0.0,0.0,0.0,0.0,0.0,0.0,0.0,0.0,0.0,0.0,0.0,0.0,0.0,0.0,0.0,0.0,0.0,0.0,0.0,0.0,0.0,0.0,0.0,0.0,0.0,0.0,0.0,0.0,0.0,0.0,0.0,0.0,0.0,0.0,0.0,0.0,0.0,0.0,0.0,0.0,0.0,0.0,0.0,0.0,0.0,0.0,0.0,0.0,0.0,0.0,0.0,0.0,0.0,0.0,0.0,0.0,0.0,0.0,0.0,0.0,0.0,0.0,0.0,0.0,0.0,0.0,0.0,0.0,0.0,0.0,0.0,0.0,0.0,0.0,0.0,0.0,0.0,0.0,0.0,0.0,0.0,0.0,0.0,0.0,0.0,0.0,0.0,0.0,0.0,0.0,0.0,0.0,0.0,0.0,0.0,0.0,0.0,0.0,0.0,0.0,0.0,0.0,0.0,0.0,0.0,0.0,0.0,0.0,0.0,0.0,0.0,0.0,0.0,0.0,0.0,0.0,0.0,0.0,0.0,0.0,0.0,0.0,0.0,0.0,0.0,0.0,0.0,0.0,0.0,0.0,0.0,0.0,0.0,0.0,0.0,0.0,0.0,0.0,0.0,0.0,0.0,0.0,0.0,0.0,0.0,0.0,0.0,0.0,0.0,0.0,0.0,0.0,0.0,0.0,0.0,0.0,0.0,0.0,0.0,0.0,0.0,0.0,0.0,0.0,0.0,0.0,0.0,0.0,0.0,0.0,0.0,0.0,0.0,0.0,0.0,0.0,0.0,0.0,0.0,0.0,0.0,0.0,0.0,0.0,2.1091,2.3114,0.0,0.0,0.0,0.0,0.0,0.0,0.0,0.0,0.0,0.0,0.0,0.0,0.0,0.0,0.0,0.0,0.0,0.0,0.0,0.0,0.0,0.0,0.0,0.0,0.0,0.0,0.0,0.0,0.0,0.0,0.0,0.0,0.0,0.0,0.0,0.0,0.0,2.2032,2.1784,2.1556,2.1362,2.2888,2.3919,2.452,0.0,0.0,0.0,0.0,0.0,0.0,0.0,0.0,0.0,0.0,0.0,0.0,0.0,0.0,0.0,0.0,0.0,0.0,0.0,0.0,0.0,0.0,0.0,0.0,0.0,0.0,0.0,0.0,0.0,0.0,0.0,0.0,0.0,0.0,0.0,0.0,0.0,0.0,0.0,0.0,0.0,0.0,0.0,0.0,0.0,0.0,0.0,0.0,0.0,0.0,0.0,0.0,0.0,0.0,0.0,0.0,0.0,0.0,0.0,0.0,0.0,0.0,0.0,0.0,0.0,0.0,0.0,0.0,0.0,0.0,1.7048,1.9648,0.0,0.0,0.0,0.0,0.0,0.0,0.0,0.0,0.0,0.0,0.0,0.0,0.0,0.0,0.0,0.0,0.0,0.0,0.0,0.0,0.0,0.0,0.0,2.3601,2.395,2.46,2.4508,2.4328,0.0,0.0,0.0,0.0,0.0,0.0,0.0,2.2365,2.1761,2.0981,2.067,2.0484,2.0471,2.1589,2.2498,2.3184,2.4325,0.0,0.0,0.0,0.0,0.0,0.0,0.0,0.0,0.0,0.0,0.0,0.0,0.0,0.0,0.0,0.0,0.0,0.0,0.0,0.0,0.0,0.0,0.0,0.0,0.0,0.0,0.0,0.0,0.0,0.0,0.0,0.0,0.0,0.0,0.0,0.0,0.0,0.0,0.0,0.0,0.0,0.0,0.0,0.0,0.0,0.0,0.0,0.0,0.0,0.0,0.0,0.0,0.0,0.0,0.0,0.0,0.0,0.0,0.0,0.0,0.0,0.0,0.0,0.4519,0.4999,0.5701,0.6375,0.7009,0.7782,1.173,1.4627,1.6615,1.7808,0.0,0.0,0.0,0.0,0.0,0.0,0.0,0.0,0.0,0.0,0.0,0.0,0.0,0.0,0.0,0.0,0.0,0.0,0.0,0.0,0.0,2.3477,2.3801,2.4089,2.4747,2.5153,2.5128,0.0,0.0,0.0,0.0,0.0,2.1815,2.1352,2.0516,1.9317,1.9042,1.9066,1.9415,2.1073,2.1828,2.1788,2.2593,2.3158,2.3452,0.0,0.0,0.0,0.0,0.0,0.0,0.0,0.0,0.0,0.0,0.0,0.0,0.0,0.0,0.0,0.0,0.0,0.0,0.0,0.0,0.0,0.0,0.0,0.0,0.0,0.0,0.0,0.0,0.0,0.0,0.0,0.0,0.0,0.0,0.0,0.0,0.0,0.0,0.0,0.0,0.0,0.036,-0.0214,0.0,0.0,0.0,0.0,0.0,0.0,0.0,0.0,0.0,0.0,0.0,0.0,0.0,-0.0399,-0.0374,-0.0076,0.0256,0.059,0.0703,0.0919,0.1238,0.1342,0.1999,0.3076,0.3195,0.0,1.1673,1.3142,0.0,0.0,0.0,0.0,0.0,0.0,0.0,0.0,0.0,0.0,0.0,0.0,0.0,0.0,0.0,0.0,0.0,0.0,0.0,0.0,0.0,2.3867,2.4353,2.5594,2.5648,2.5679,2.5806,2.5297,0.0,0.0,0.0,2.1786,2.084,2.0069,1.9089,1.7935,1.8153,1.8415,1.8732,1.9851,2.0527,2.076,2.0681,2.1493,2.2924,2.2191,0.0,0.0,0.0,0.0,0.0,0.0,0.0,0.0,0.0,0.0,0.0,0.0,0.0,0.0,0.0,0.0,0.0,0.0,0.0,0.0,0.0,0.0,0.0,0.0,0.0,0.0,0.0,0.0,0.0,0.0,0.0,0.0,0.0,0.0,0.0,0.0,0.0,0.0,0.0,-0.3379,-0.4538,-0.4856,-0.4745,-0.434,0.0,0.0,0.0,0.0,0.0,0.0,0.0,0.0,0.0,-0.6036,-0.5383,-0.4957,-0.4797,-0.4266,-0.3629,-0.2978,-0.2944,-0.2555,-0.1853,-0.1662,-0.1281,-0.079,-0.0898,0.0482,0.3101,0.6289,0.788,0.8475,0.0,0.0,0.0,0.0,1.2983,1.3187,0.0,0.0,0.0,0.0,0.0,0.0,0.0,0.0,0.0,0.0,0.0,0.0,2.3831,2.3846,2.4568,2.66,2.6061,2.5767,2.6142,2.4891,2.3714,2.2819,2.1604,2.0345,1.9042,1.8056,1.7359,1.7001,1.7322,1.7674,1.8031,1.8578,1.9079,1.9489,1.8889,1.9942,2.2089,2.1347,2.0902,2.0683,0.0,0.0,0.0,0.0,0.0,0.0,0.0,0.0,0.0,0.0,0.0,0.0,0.0,0.0,0.0,0.0,0.0,0.0,0.0,0.0,0.0,0.0,0.0,0.0,0.0,0.0,0.0,0.0,0.0,0.0,0.0,0.0,0.0,0.0,0.0,0.0,0.0,-0.8581,-0.9388,-0.9491,-0.9615,-0.9275,0.0,0.0,0.0,0.0,0.0,0.0,-1.0869,-1.0776,-1.0629,-1.0393,-0.9601,-0.9042,-0.8767,-0.8061,-0.725,-0.6346,-0.6152,-0.5567,-0.4724,-0.447,-0.4219,-0.4024,-0.3968,-0.3966,-0.3684,0.0416,0.2633,0.3604,0.5258,0.6449,0.7235,0.753,0.8093,0.871,0.0,0.0,0.0,0.0,0.0,0.0,0.0,0.0,0.0,0.0,0.0,2.1179,2.2356,2.2824,2.3916,2.6052,2.5324,2.5135,2.6039,2.4211,2.2487,2.1185,2.0007,1.8281,1.5878,1.4908,1.5185,1.6717,1.6308,1.6495,1.7271,1.7506,1.7614,1.7627,1.7453,1.8591,2.0534,1.9421,1.8899,1.8823,1.8732,0.0,0.0,0.0,0.0,0.0,0.0,0.0,0.0,0.0,0.0,0.0,0.0,0.0,0.0,0.0,0.0,0.0,0.0,0.0,0.0,0.0,0.0,0.0,0.0,0.0,0.0,0.0,0.0,0.0,0.0,0.0,0.0,0.0,0.0,0.0,0.0,0.0,0.0,-1.4655,-1.3668,0.0,0.0,0.0,0.0,-1.35,-1.3717,-1.3604,-1.3059,-1.3153,-1.2829,-1.2006,-1.2053,-1.1968,-1.1691,-1.0843,-1.0089,-0.9469,-0.8688,-0.8131,-0.7765,-0.7765,-0.7288,-0.6561,-0.7099,-0.6899,-0.5908,-0.2941,-0.1686,-0.1424,0.0552,0.1406,0.1644,0.2727,0.3317,0.3728,0.0,0.0,0.0,0.0,0.0,0.0,0.0,0.0,2.0325,1.9949,2.0003,2.0391,2.1157,2.2105,2.3246,2.4728,2.4368,2.4018,2.3987,2.2454,2.0786,1.9011,1.7714,1.6038,1.3848,1.3215,1.3272,1.3992,1.4175,1.4511,1.4943,1.4761,1.4769,1.4953,1.4344,1.4837,1.6184,1.7208,1.7714,1.7785,1.768,1.8082,0.0,0.0,0.0,0.0,0.0,0.0,0.0,0.0,0.0,0.0,0.0,0.0,0.0,0.0,0.0,0.0,0.0,0.0,0.0,0.0,0.0,0.0,0.0,0.0,0.0,0.0,0.0,0.0,0.0,0.0,0.0,0.0,0.0,0.0,0.0,0.0,0.0,-1.6629,-1.6945,0.0,-1.5311,-1.5497,-1.5695,-1.5714,-1.597,-1.6148,-1.6275,-1.6156,-1.5943,-1.5585,-1.5035,-1.451,-1.402,-1.3106,-1.2225,-1.136,-1.0296,-0.9488,-0.8865,-0.8263,-0.782,-0.7543,-0.7771,-0.7792,-0.762,-0.6373,-0.506,-0.3743,-0.2424,-0.1296,-0.0395,0.0,0.0679,0.1501,0.0,0.0,0.0,0.0,0.0,0.0,0.0,0.0,1.8278,1.7978,1.7906,1.8259,1.9332,2.0262,2.1358,2.2753,2.2517,2.197,2.1211,2.0041,1.8409,1.6237,1.4512,1.3122,1.2082,1.1688,1.163,1.1936,1.2265,1.244,1.2459,1.1984,1.1813,1.1922,1.1317,1.1415,1.2127,1.3835,1.5125,1.6025,1.6065,1.6584,1.7331,0.0,0.0,0.0,0.0,0.0,0.0,0.0,0.0,0.0,0.0,0.0,0.0,0.0,0.0,0.0,0.0,0.0,0.0,0.0,0.0,0.0,0.0,0.0,0.0,0.0,0.0,0.0,0.0,0.0,0.0,0.0,0.0,0.0,0.0,-1.7584,-1.8231,-1.8177,-1.8833,-1.875,-1.7344,-1.7476,-1.7593,-1.7522,-1.7663,-1.7931,-1.8295,-1.8135,-1.7906,-1.7684,-1.7273,-1.6558,-1.5554,-1.485,-1.3878,-1.2599,-1.1226,-1.0247,-0.9636,-0.8733,-0.8297,-0.8297,-0.8214,-0.8291,-0.8457,-0.7931,-0.6747,-0.5135,-0.4429,-0.3183,-0.1743,-0.1405,-0.0639,0.0323,0.0,0.0,0.0,0.0,0.0,0.0,0.0,1.6845,1.5547,1.5053,1.4384,1.4763,1.6808,1.7265,1.8179,2.015,1.9706,1.8875,1.7768,1.6915,1.5322,1.2863,1.0477,0.9613,1.0484,1.0172,1.0229,1.0692,1.0628,1.039,1.0001,0.9331,0.888,0.8616,0.8544,0.854,0.8678,0.9394,1.1105,1.3356,1.3811,1.4517,1.5316,0.0,0.0,0.0,0.0,0.0,0.0,0.0,0.0,0.0,0.0,0.0,0.0,0.0,0.0,0.0,0.0,0.0,0.0,0.0,0.0,0.0,0.0,0.0,0.0,0.0,0.0,0.0,0.0,0.0,0.0,0.0,0.0,0.0,-1.7327,-1.8593,-1.948,-1.9472,-1.9374,-1.918,-1.886,-1.8632,-1.8637,-1.8876,-1.8903,-1.8909,-1.8926,-1.891,-1.8619,-1.806,-1.8561,-1.7985,-1.6218,-1.5983,-1.4964,-1.3174,-1.1514,-1.0551,-1.0194,-0.9313,-0.8906,-0.8885,-0.8629,-0.8484,-0.8429,-0.7543,-0.6621,-0.5783,-0.5504,-0.4264,-0.2568,-0.1639,-0.0765,0.0027,0.0,0.0,0.0,0.0,0.0,0.0,0.0,1.5092,1.3811,1.2503,1.2941,1.3411,1.356,1.4663,1.5569,1.5979,1.5693,1.4953,1.3642,1.2962,1.1638,0.9455,0.8205,0.7768,0.8203,0.8225,0.8282,0.8419,0.8384,0.8285,0.8056,0.7538,0.7192,0.7018,0.6443,0.6599,0.7256,0.7311,0.811,0.949,1.0846,1.2146,1.3223,0.0,0.0,0.0,0.0,0.0,0.0,0.0,0.0,0.0,0.0,0.0,0.0,0.0,0.0,0.0,0.0,0.0,0.0,0.0,0.0,0.0,0.0,0.0,0.0,0.0,0.0,0.0,0.0,0.0,0.0,0.0,-1.6263,-1.6886,-1.7833,-1.8387,-1.8697,-1.8698,-1.9236,-1.9389,-1.8929,-1.903,-1.9065,-1.8903,-1.9118,-1.925,-1.9272,-1.8807,-1.8648,-1.8923,-1.8018,-1.7117,-1.6283,-1.5355,-1.4246,-1.2959,-1.1873,-1.1072,-1.0551,-0.9899,-0.9261,-0.8595,-0.854,-0.8374,-0.8042,-0.6988,-0.626,-0.575,-0.5245,-0.3813,-0.1998,-0.1706,-0.0913,0.0027,0.0,0.0,0.0,0.0,0.0,0.0,0.0,1.31,1.1828,1.1094,1.1327,1.1598,1.1686,1.2551,1.3009,1.2692,1.2882,1.2245,1.0398,0.9493,0.8495,0.7309,0.6796,0.6658,0.684,0.7039,0.6981,0.6703,0.6799,0.6642,0.6247,0.6026,0.581,0.5582,0.5222,0.5362,0.5859,0.5853,0.6214,0.6895,0.7901,0.9261,1.0686,1.0676,1.1734,1.3247,1.3432,1.4282,1.5325,1.5488,0.0,0.0,0.0,0.0,0.0,0.0,0.0,0.0,0.0,0.0,0.0,0.0,0.0,0.0,0.0,0.0,0.0,0.0,0.0,0.0,0.0,0.0,0.0,0.0,-1.5779,-1.664,-1.7601,-1.8112,-1.8459,-1.8597,-1.9177,-1.9435,-1.9134,-1.9294,-1.9321,-1.9118,-1.9294,-1.933,-1.9214,-1.8823,-1.8765,-1.9113,-1.7807,-1.6777,-1.6126,-1.4958,-1.3815,-1.2691,-1.1693,-1.0962,-1.046,-0.9677,-0.8955,-0.8291,-0.818,-0.7792,-0.721,-0.6293,-0.5425,-0.4662,0.0,0.0,0.0,0.0,-0.0572,0.0027,0.0,0.0,0.0,0.0,0.0,0.0,0.0,1.1136,1.0016,1.0255,0.9797,0.9785,1.0674,1.0899,1.0799,1.0291,1.0838,1.0181,0.7783,0.6487,0.5865,0.5994,0.5989,0.5987,0.6054,0.6272,0.6105,0.5514,0.5681,0.5423,0.4776,0.4912,0.4816,0.4536,0.4645,0.4743,0.4824,0.5032,0.5245,0.5436,0.5374,0.6457,0.8102,0.8087,0.8741,0.9691,0.9972,1.0977,1.2148,1.2304,0.0,0.0,0.0,0.0,0.0,0.0,0.0,0.0,0.0,0.0,0.0,0.0,0.0,0.0,0.0,0.0,0.0,0.0,0.0,0.0,0.0,0.0,0.0,0.0,-1.4923,-1.5965,-1.677,-1.7604,-1.8323,-1.8784,-1.9156,-1.9372,-1.9401,-1.9372,-1.933,-1.933,-1.9314,-1.9127,-1.8706,-1.8635,0.0,0.0,0.0,-1.6468,-1.5648,-1.45,-1.337,-1.2191,-1.1164,-1.0445,-1.0069,-0.9044,-0.8278,-0.7792,-0.7549,-0.6932,-0.6042,-0.5397,-0.425,-0.2957,-0.3466,-0.2815,-0.151,-0.0392,0.0,0.0028,0.0,0.0,0.0,0.0,0.0,0.0,0.0,1.0307,0.9716,0.8509,0.9152,0.9626,0.9419,0.9974,1.0083,0.934,0.8637,0.7398,0.5392,0.4078,0.382,0.4794,0.5028,0.5137,0.5149,0.5143,0.5121,0.5036,0.4962,0.4804,0.4562,0.4749,0.4769,0.4661,0.4686,0.5003,0.5506,0.5387,0.5464,0.5608,0.5235,0.5812,0.6917,0.6862,0.7382,0.8192,0.8612,0.9219,0.9945,1.0602,1.1142,1.1675,1.2446,1.2439,0.0,0.0,0.0,0.0,0.0,0.0,0.0,0.0,0.0,0.0,0.0,0.0,0.0,0.0,0.0,0.0,0.0,0.0,0.0,-1.3249,-1.4228,-1.5066,-1.5432,-1.6093,-1.7026,-1.8357,-1.8794,-1.9084,-1.9372,-1.9156,-1.8997,-1.8997,-1.8735,-1.824,-1.7408,-1.7103,-1.6827,-1.6562,-1.5255,-1.4386,-1.4055,-1.2917,-1.1887,-1.1017,-1.0588,0.0,-0.9533,-0.9104,-0.8074,-0.6626,-0.6571,-0.5903,-0.4787,-0.3891,-0.2807,-0.1649,-0.1528,-0.1165,-0.0606,-0.0167,0.0,0.0,0.0,0.0,0.0,0.0,0.0,0.0,0.0,1.0475,1.0112,0.9445,0.9816,1.0018,0.9675,0.9713,0.9379,0.8467,0.6674,0.531,0.4585,0.3396,0.3236,0.4453,0.4753,0.4928,0.5002,0.5011,0.5097,0.5303,0.5225,0.5284,0.5444,0.5628,0.5711,0.5702,0.5765,0.5934,0.6143,0.6046,0.6014,0.6035,0.5762,0.5996,0.6415,0.5633,0.5802,0.6522,0.7006,0.7627,0.8287,0.8907,0.9416,0.987,1.0301,1.0332,1.013,0.0,0.0,0.0,0.0,0.0,0.0,0.0,0.0,0.0,0.0,0.0,0.0,0.0,0.0,-0.883,-0.9441,0.0,-1.1428,-1.2447,-1.3287,-1.4045,-1.4737,-1.5135,-1.5935,-1.7496,-1.7701,-1.7964,-1.859,-1.8081,-1.8081,-1.9026,-1.7789,-1.7085,-1.7249,-1.6326,-1.5795,-1.5814,-1.3995,-1.3088,-1.3136,-1.1481,-1.0362,-0.9809,-0.9528,-0.8934,-0.8036,-0.7776,-0.6819,-0.5397,-0.5397,-0.4784,-0.3726,-0.283,-0.1924,-0.1082,-0.0959,-0.0699,-0.0357,-0.0111,0.0,0.0,0.0,0.0,0.0,0.0,0.0,0.0,0.0,1.0947,1.0682,1.087,1.0753,1.0628,1.0479,0.9963,0.9067,0.7645,0.5234,0.3949,0.4346,0.3311,0.3316,0.4702,0.501,0.5248,0.5495,0.5508,0.565,0.5941,0.5951,0.6125,0.6478,0.6657,0.6823,0.699,0.7087,0.7214,0.7314,0.717,0.714,0.7139,0.6898,0.6814,0.6679,0.528,0.5012,0.5416,0.5792,0.6367,0.7004,0.7338,0.7718,0.8036,0.8105,0.804,0.7858,0.7181,0.6841,0.0,0.0,0.0,0.0,0.0,0.0,0.0,0.0,-0.6333,-0.67,-0.7392,-0.7788,-0.8164,-0.867,-0.9346,-1.0212,-1.1395,-1.2212,-1.2983,-1.3825,-1.4063,-1.4659,-1.6072,-1.6249,-1.6544,-1.7367,-1.6721,-1.6868,-1.8373,-1.6573,-1.5776,-1.6632,-1.5381,-1.4669,-1.4748,-1.2814,-1.1888,-1.2146,-1.0133,-0.8982,-0.8727,-0.8202,-0.7454,-0.6505,-0.6121,-0.5314,-0.4229,-0.4061,-0.3558,-0.2802,-0.2102,-0.1433,-0.0903,-0.0886,-0.0652,-0.0306,-0.0085,0.0,0.0,0.0,0.0,0.0,0.0,0.0,0.0,0.0,0.0,1.0981,1.0821,1.1099,1.1235,1.1027,1.0947,0.9706,0.6733,0.4782,0.3756,0.388,0.3142,0.3613,0.5661,0.5875,0.6275,0.6941,0.6737,0.667,0.6771,0.6823,0.6821,0.6768,0.7076,0.7518,0.8024,0.7979,0.8688,0.9857,0.9258,0.9332,0.9795,0.8945,0.8498,0.823,0.7178,0.6421,0.5892,0.5712,0.5862,0.6142,0.6183,0.5621,0.5027,0.5795,0.5076,0.4011,0.4394,0.4324,0.3901,0.2858,0.0715,-0.1802,-0.4095,-0.5102,-0.5873,0.0,-0.7167,-0.7059,-0.7861,-0.8008,-0.8212,-0.8927,-0.913,-0.939,-0.9949,-1.1095,-1.1856,-1.1692,-1.2144,-1.2745,-1.3525,-1.4589,-1.541,-1.5806,-1.548,-1.5351,-1.5558,-1.5035,-1.4421,-1.3704,-1.3225,-1.2595,-1.1812,-1.0736,-1.0185,-1.0214,-0.8845,-0.814,-0.8085,-0.6755,-0.6033,-0.5866,-0.5063,-0.4173,-0.3222,-0.2438,-0.2046,-0.1936,-0.1851,-0.1443,-0.0889,-0.089,-0.055,-0.0029,0.0,0.0,0.0,0.0,0.0,0.0,0.0,0.0,0.0,0.0,0.0,0.0,1.2096,1.2268,1.2183,1.1509,1.0507,0.9077,0.7104,0.4992,0.4198,0.5255,0.4192,0.4534,0.6785,0.7048,0.7292,0.7599,0.7839,0.7996,0.8059,0.8524,0.8776,0.8838,0.9307,0.9808,1.0353,1.0321,1.0749,1.1516,1.1262,1.1048,1.0858,1.0614,1.0214,0.9644,0.9016,0.861,0.8149,0.6786,0.6262,0.0,0.6321,0.5544,0.4584,0.4992,0.4021,0.2857,0.3506,0.3182,0.2371,0.1293,-0.0557,-0.2551,-0.4045,-0.5301,-0.6412,-0.7359,-0.7402,-0.7397,-0.7867,-0.8125,-0.8222,-0.8123,-0.8582,-0.8908,-0.8714,-0.964,-1.0308,-1.0156,-1.0513,-1.0967,-1.145,-1.1985,-1.2967,-1.4619,-1.4292,-1.4292,-1.5044,-1.3596,-1.2826,-1.3177,-1.1985,-1.1118,-1.0725,-0.9879,-0.914,-0.8555,-0.7567,-0.6771,-0.6177,-0.5422,-0.4768,-0.4287,-0.3902,-0.3241,-0.2333,-0.1964,-0.1812,-0.1769,-0.1417,-0.1,-0.0576,-0.0235,0.0178,0.0537,0.0148,0.0,0.0,0.0,0.0,0.0,0.0,0.0,0.0,0.0,0.0,0.0,0.0,1.3346,1.2949,1.1771,1.0353,0.8952,0.7624,0.5911,0.5336,0.6325,0.5441,0.5818,0.7939,0.8286,0.8601,0.9002,0.9469,0.9759,0.9872,1.0462,1.0826,1.0967,1.1441,1.1955,1.255,1.259,1.2842,1.3226,1.3205,1.2901,1.2417,1.2255,1.1847,1.1259,1.066,1.0346,0.9969,0.8124,0.7185,0.6848,0.687,0.5792,0.4475,0.4695,0.3642,0.2474,0.3093,0.2563,0.1486,0.0162,-0.1173,-0.2486,-0.3754,-0.4883,-0.5835,-0.6371,-0.6512,-0.6554,-0.6764,-0.698,-0.7041,-0.6644,-0.7164,-0.7622,-0.75,-0.8139,-0.8763,-0.9007,-0.9368,-0.9771,-1.0247,-1.0391,-1.1178,-1.3066,-1.2895,-1.3066,-1.3974,-1.2346,-1.1623,-1.2359,-1.08,-0.9846,-0.9785,-0.8738,-0.7822,-0.7087,-0.6136,-0.5283,-0.4573,-0.4109,-0.3556,-0.2952,-0.287,-0.2429,-0.1679,-0.1679,-0.1582,-0.1366,-0.0951,-0.0522,-0.0117,0.0329,0.0696,0.094,0.045,0.0271,0.0243,0.0,0.0,0.0,0.0,0.0,0.0,0.0,0.0,0.0,0.0,0.0,0.0,0.0,1.1054,0.9943,0.797,0.7729,0.7308,0.6458,0.6668,0.7524,0.9085,0.9535,1.0384,1.1748,1.1919,1.2093,1.2284,1.2579,1.2682,1.2631,1.2915,1.3428,1.4136,1.4331,1.4746,1.529,1.5027,1.5052,1.5157,1.394,1.3436,1.3258,1.2043,1.1238,1.0632,0.9534,0.8619,0.7925,0.7658,0.5982,0.4117,0.4714,0.3782,0.2538,0.2827,0.2335,0.1354,-0.0238,-0.1008,-0.1804,-0.3786,-0.4098,-0.3916,-0.3979,-0.4024,-0.4024,-0.4027,-0.403,-0.4119,-0.4423,-0.4514,-0.4947,-0.6237,-0.681,-0.7402,-0.8311,-0.8767,-0.9329,-1.02,-1.0573,-1.0823,-1.0906,-1.1178,-1.136,-1.142,-1.1329,-1.1027,-1.0422,-0.9414,-0.8714,-0.8477,-0.6723,-0.5799,-0.5765,-0.4437,-0.3758,-0.3728,-0.2794,-0.2356,-0.2327,-0.2062,-0.1738,-0.1413,-0.1413,-0.103,-0.0441,-0.0412,-0.0059,0.0482,0.0482,0.07,0.0987,0.0986,0.0956,0.0864,0.0,0.0,0.0,0.0,0.0,0.0,0.0,0.0,0.0,0.0,0.0,0.0,0.0,0.0,0.0,0.0,0.9776,0.9456,1.0262,0.9595,0.9934,1.1725,1.169,1.2004,1.2747,1.3407,1.3669,1.353,1.4381,1.4726,1.4654,1.5672,1.6471,1.707,1.7553,1.8003,1.841,1.7735,1.7251,1.6857,1.5916,1.5274,1.4716,1.3749,1.3173,1.2762,0.0,1.0511,0.8969,0.8393,0.682,0.5089,0.4897,0.3482,0.1938,0.2067,0.2249,0.2178,0.0957,-0.0282,-0.1425,-0.2228,-0.317,-0.388,-0.3901,-0.3907,-0.3907,-0.3907,-0.3905,-0.3877,-0.3756,-0.3908,-0.4301,-0.4972,-0.5818,-0.6683,-0.7433,-0.8063,-0.8474,-0.8493,-0.842,-0.8318,-0.8227,-1.0445,-1.1541,-1.0694,-1.0021,-0.9438,-0.8982,-0.7429,-0.6512,-0.6425,-0.5601,-0.4953,-0.4514,-0.3831,-0.327,-0.2769,-0.2263,-0.1926,-0.1763,-0.1672,-0.13,-0.0748,-0.0748,-0.0476,-0.0029,0.0357,0.066,0.0875,0.1312,0.1568,0.1637,0.142,0.1327,0.1235,0.0,0.0,0.0,0.0,0.0,0.0,0.0,0.0,0.0,0.0,0.0,0.0,0.0,0.0,0.0,0.0,0.0,1.1107,1.1993,1.1435,1.1851,1.3607,1.387,1.4344,1.5172,1.6063,1.65,1.642,1.7277,1.7656,1.7617,1.8443,1.9028,1.9412,1.9745,2.0048,2.0232,1.9727,1.9072,1.8295,1.7646,1.6838,1.589,1.4833,1.4292,0.0,1.2555,1.1207,0.9899,0.9034,0.7363,0.5556,0.4989,0.3619,0.2273,0.255,0.2742,0.2652,0.1696,0.0698,-0.0268,-0.0968,-0.1651,-0.2155,-0.2155,-0.2247,-0.2339,-0.2339,-0.234,-0.2286,-0.2077,-0.2588,-0.3217,-0.3793,-0.5121,-0.6348,-0.7176,-0.7806,-0.8092,-0.7775,-0.7483,-0.7127,-0.6766,-0.8897,-0.9917,-0.8988,-0.8429,-0.7881,-0.7301,-0.5839,-0.4984,-0.4862,-0.4343,-0.3832,-0.3401,-0.3067,-0.2661,-0.2189,-0.1908,-0.1591,-0.1327,-0.1204,-0.0767,-0.0091,-0.0091,0.0182,0.0629,0.103,0.1247,0.14,0.1846,0.2008,0.1977,0.1883,0.1698,0.1389,0.0,0.0,0.0,0.0,0.0,0.0,0.0,0.0,0.0,0.0,0.0,0.0,0.0,0.0,0.0,0.0,0.0,0.0,1.1958,1.2446,1.3402,1.4903,1.5992,1.7303,1.889,1.9723,2.0315,2.073,2.1057,2.1298,2.1394,2.1261,2.1214,2.1256,2.1117,2.1043,2.1039,2.1091,2.0529,1.9546,1.9055,1.8064,1.6739,1.5283,1.4495,1.3872,1.1622,1.071,1.0461,0.9477,0.754,0.5459,0.488,0.4048,0.3393,0.4043,0.3613,0.2771,0.1925,0.1788,0.1516,0.0031,0.0401,0.1142,0.1205,0.0989,0.0772,0.0741,0.0671,0.0603,0.0511,-0.0511,-0.1745,-0.2887,-0.466,-0.6329,-0.7477,-0.7954,-0.8108,-0.7948,-0.7619,-0.7101,-0.632,-0.6505,-0.6514,-0.618,-0.6547,-0.6372,-0.5425,-0.4684,-0.413,-0.3825,-0.2929,-0.2467,-0.2467,-0.213,-0.1946,-0.1884,-0.1576,-0.1236,-0.0926,-0.0556,-0.0062,0.0556,0.0587,0.0957,0.1513,0.1513,0.1699,0.2008,0.2008,0.2038,0.2069,0.2406,0.2097,0.142,0.0,0.0,0.0,0.0,0.0,0.0,0.0,0.0,0.0,0.0,0.0,0.0,0.0,0.0,0.0,0.0,0.0,0.0,1.6357,1.6189,1.6827,1.8509,1.8764,1.9445,2.0709,2.1346,2.1905,2.2455,2.2948,2.3432,2.3894,2.4656,2.493,2.4777,2.4618,2.445,2.4217,2.2897,2.1797,2.0847,1.9956,1.859,1.692,1.5695,1.4088,1.2366,1.1201,0.9649,0.8111,0.8153,0.6708,0.4763,0.3778,0.3146,0.2815,0.3033,0.2633,0.2075,0.1907,0.1546,0.1381,0.197,0.231,0.2841,0.4207,0.4434,0.4325,0.4189,0.3825,0.3162,0.1954,0.1115,-0.0386,-0.342,-0.436,-0.5554,-0.7947,-0.7931,-0.7464,-0.6872,-0.5768,-0.4776,-0.4016,-0.374,-0.3394,-0.2786,-0.4233,-0.5146,-0.5181,-0.3558,-0.2571,-0.2477,-0.2265,-0.213,-0.213,-0.1543,-0.1019,-0.0494,-0.0437,-0.0218,0.0123,0.0718,0.1092,0.1266,0.1758,0.1945,0.1884,0.1884,0.1915,0.2038,0.2284,0.2375,0.2406,0.2745,0.2282,0.1508,0.0,0.0,0.0,0.0,0.0,0.0,0.0,0.0,0.0,0.0,0.0,0.0,0.0,0.0,0.0,0.0,0.0,0.0,0.0,1.8437,1.9354,2.0886,2.1437,2.2328,2.3564,2.4137,2.4572,2.482,2.5463,2.5933,2.6217,2.6543,2.6593,2.6401,2.5895,2.5442,2.4978,2.3541,2.2314,0.0,0.0,1.8636,1.686,1.5454,1.3944,1.2436,1.12,0.9564,0.7968,0.7806,0.6148,0.3993,0.298,0.2463,0.239,0.3181,0.3085,0.2894,0.3666,0.3566,0.342,0.4164,0.4348,0.4599,0.5563,0.5717,0.5605,0.5429,0.5167,0.459,0.342,0.1887,0.0059,-0.2278,-0.3883,-0.5358,-0.6842,-0.6848,-0.6386,-0.5552,-0.4435,-0.3452,-0.2692,-0.2138,-0.1767,-0.1545,-0.2873,-0.3571,-0.3314,-0.2479,-0.1861,-0.1577,-0.1556,-0.1425,-0.1122,-0.0721,-0.0157,0.0535,0.0666,0.1078,0.1699,0.2205,0.2512,0.2647,0.269,0.2685,0.2625,0.2346,0.2315,0.2469,0.2652,0.2714,0.2745,0.3086,0.2683,0.1999,0.0,0.0,0.0,0.0,0.0,0.0,0.0,0.0,0.0,0.0,0.0,0.0,0.0,0.0,0.0,0.0,0.0,0.0,0.0,0.0,2.1581,2.2827,2.4093,2.5367,2.6648,2.7183,2.7444,2.7361,2.8066,2.8375,2.83,2.7841,2.7349,2.6852,2.604,2.5251,2.4468,2.3481,2.2366,2.1141,1.9951,1.8326,1.6476,0.0,1.3716,1.2807,1.1007,0.9789,0.8844,0.8042,0.5959,0.362,0.291,0.2446,0.2431,0.4033,0.4357,0.4538,0.5986,0.6247,0.6177,0.6334,0.6388,0.6389,0.6487,0.6388,0.6252,0.6082,0.6018,0.5785,0.5081,0.2801,0.0734,-0.006,-0.2714,-0.4734,-0.4851,-0.5172,-0.5089,-0.4317,-0.3521,-0.2777,-0.2089,-0.1384,-0.1109,-0.1364,-0.1962,-0.1944,-0.1132,-0.1534,-0.1522,-0.0887,-0.0844,-0.05,0.0285,0.0352,0.0773,0.1609,0.1905,0.2486,0.3348,0.3656,0.3952,0.4138,0.3572,0.3458,0.365,0.2962,0.2868,0.3114,0.3086,0.3055,0.3116,0.3425,0.3176,0.2768,0.0,0.0,0.0,0.0,0.0,0.0,0.0,0.0,0.0,0.0,1.8838,1.8017,0.0,0.0,0.0,0.0,0.0,0.0,0.0,0.0,0.0,2.5883,2.6737,2.7447,2.8057,2.8317,2.8724,2.931,2.9468,2.9689,2.9998,3.0229,2.927,2.7373,2.6823,2.5876,2.4655,2.3404,2.2166,2.0939,1.9685,1.7624,1.5211,1.4064,0.0,0.0,0.9165,0.8765,0.8771,0.8283,0.671,0.5035,0.526,0.4629,0.4012,0.5192,0.5713,0.5946,0.6248,0.6296,0.6532,0.7647,0.7828,0.8097,0.9479,0.9852,0.9813,0.9509,0.9283,0.8752,0.76,0.6219,0.4622,0.2748,0.0804,-0.1081,-0.2877,-0.3437,-0.3811,-0.4237,-0.3105,-0.2231,-0.2084,-0.1421,-0.0807,-0.0327,-0.063,-0.1064,-0.1478,-0.1015,-0.0553,-0.0096,-0.0096,0.0512,0.1797,0.1835,0.2449,0.3675,0.3784,0.3914,0.4061,0.4596,0.4747,0.4613,0.4863,0.4933,0.4765,0.3965,0.3697,0.3728,0.3486,0.3425,0.3455,0.3735,0.3764,0.3684,0.0,0.0,0.0,0.0,0.0,0.0,0.0,0.0,2.0508,2.1174,2.0562,1.997,1.9843,2.0196,0.0,0.0,0.0,0.0,0.0,0.0,0.0,0.0,2.8403,2.9086,2.9575,2.9706,2.9855,3.0115,0.0,3.037,3.0528,2.9846,2.8917,2.7753,2.6637,2.5303,2.384,2.2556,2.1268,1.9929,1.8518,1.6861,1.5116,0.0,0.0,0.0,1.141,1.1398,1.1627,1.1173,1.0099,0.8642,0.6987,0.6261,0.6187,0.7049,0.7595,0.8082,0.8756,0.8962,0.9182,0.9864,0.9882,0.995,1.0734,1.1284,1.1505,1.1065,1.1089,1.0783,0.9396,0.7819,0.6249,0.4804,0.337,0.1636,-0.0559,-0.1027,-0.1261,-0.1694,-0.0985,-0.0293,0.0098,0.1131,0.1647,0.1431,0.178,0.1529,0.0433,0.1057,0.1504,0.1708,0.2076,0.2605,0.3291,0.3675,0.4281,0.5073,0.5304,0.5569,0.5927,0.6174,0.6219,0.6077,0.5871,0.5819,0.582,0.5022,0.4588,0.4404,0.4281,0.4223,0.4253,0.4376,0.465,0.494,0.0,0.0,0.0,0.0,0.0,0.0,0.0,2.1092,2.1486,2.2164,2.2445,2.2501,2.2225,2.1971,2.2171,0.0,0.0,0.0,0.0,0.0,0.0,0.0,0.0,0.0,3.0618,0.0,0.0,3.046,3.0619,0.0,0.0,0.0,0.0,0.0,2.6054,2.4386,2.271,2.1459,2.024,0.0,0.0,1.6343,1.5506,0.0,0.0,0.0,0.0,1.4409,1.4658,1.4272,1.3658,1.2519,0.9646,0.8879,0.9143,0.9913,1.0331,1.0763,1.1899,1.2006,1.1811,1.1904,1.1639,1.139,1.1568,1.1951,1.2245,1.2082,1.2302,1.2137,1.0888,0.9133,0.7669,0.6995,0.578,0.4128,0.1825,0.1641,0.1446,0.066,0.135,0.2031,0.2373,0.3562,0.3948,0.312,0.4101,0.4179,0.2819,0.326,0.3583,0.3674,0.4237,0.4595,0.4763,0.5312,0.5841,0.6246,0.6514,0.6949,0.7488,0.7417,0.7444,0.752,0.6674,0.6562,0.689,0.6009,0.554,0.5351,0.5228,0.5166,0.5163,0.5118,0.5571,0.6202,0.0,0.0,0.0,0.0,0.0,0.0,0.0,2.1781,2.2652,2.3275,2.4244,2.5015,2.5336,2.4503,2.3841,0.0,0.0,0.0,0.0,0.0,0.0,0.0,0.0,0.0,0.0,0.0,0.0,3.0664,3.0681,0.0,0.0,0.0,0.0,0.0,0.0,2.3722,2.173,2.0342,0.0,0.0,0.0,0.0,0.0,0.0,0.0,0.0,0.0,1.5525,1.5773,1.5915,1.5704,1.5316,1.4833,1.4033,1.3441,1.4468,1.4456,1.425,1.4704,1.3839,1.2812,1.2916,1.2266,1.1789,1.2639,1.2437,1.2305,1.3311,1.3159,1.2718,1.2282,1.1208,1.0324,1.0112,0.8641,0.6686,0.4161,0.4327,0.3661,0.0837,0.2846,0.4089,0.3208,0.3833,0.4254,0.4147,0.5422,0.573,0.4632,0.4626,0.4821,0.5185,0.5258,0.5596,0.6197,0.6272,0.6648,0.7359,0.7393,0.7426,0.7488,0.7417,0.7619,0.7992,0.7311,0.7418,0.7986,0.6926,0.6661,0.6844,0.6219,0.5999,0.5991,0.5844,0.6429,0.7245,0.0,0.0,0.0,0.0,0.0,0.0,2.1205,2.2057,2.3041,2.4125,2.497,2.5799,2.6711,2.68,2.6552,0.0,0.0,0.0,0.0,0.0,0.0,0.0,0.0,0.0,0.0,0.0,3.1113,3.1249,3.1113,0.0,0.0,0.0,0.0,0.0,0.0,2.264,2.0935,1.9659,0.0,0.0,0.0,0.0,0.0,0.0,0.0,0.0,0.0,0.0,1.7146,1.7077,1.7165,1.7346,1.7503,1.7613,1.7523,1.6522,1.5812,1.5538,1.6557,1.5702,1.4531,1.4587,1.4053,1.3702,1.4458,1.45,1.4696,1.5666,1.5645,1.5297,1.462,1.3065,1.1789,1.1467,1.0149,0.8431,0.6309,0.5906,0.5411,0.4352,0.5139,0.5697,0.5503,0.6422,0.6962,0.6878,0.7412,0.7545,0.7111,0.6681,0.6514,0.6652,0.6882,0.7049,0.7054,0.7517,0.7784,0.7861,0.8056,0.8156,0.8156,0.8143,0.8214,0.8379,0.8042,0.8001,0.8167,0.7737,0.7391,0.7082,0.6795,0.6826,0.7,0.6839,0.7444,0.8294,0.0,0.0,0.0,0.0,0.0,2.1454,2.1797,2.2808,2.3988,2.524,2.6051,2.692,2.8056,2.8613,2.8724,2.83,0.0,0.0,0.0,0.0,0.0,0.0,0.0,0.0,0.0,0.0,3.1328,3.141,3.1272,3.0816,0.0,0.0,2.7195,2.5859,0.0,0.0,0.0,0.0,0.0,0.0,0.0,0.0,0.0,0.0,0.0,0.0,0.0,0.0,0.0,0.0,0.0,1.897,1.9213,2.0048,2.0555,1.8533,1.7588,1.7461,1.8871,1.8206,1.7133,1.7269,1.6614,1.6096,1.6737,1.665,1.6727,1.7708,1.7674,1.7209,1.6432,1.485,1.3284,1.2141,1.119,0.9746,0.733,0.7089,0.7003,0.6688,0.7098,0.7459,0.7569,0.8275,0.8625,0.8342,0.8506,0.8556,0.8456,0.8056,0.7822,0.7822,0.8089,0.8123,0.7827,0.8356,0.849,0.8256,0.849,0.859,0.859,0.859,0.859,0.8584,0.8366,0.8269,0.8258,0.8285,0.7991,0.7597,0.7691,0.7859,0.8004,0.7885,0.8336,0.9007,0.0,0.0,0.0,0.0,0.0,0.0,0.0,2.4267,2.5796,2.6748,2.787,2.8879,2.969,2.9779,2.9856,3.0043,0.0,0.0,0.0,0.0,0.0,0.0,0.0,0.0,0.0,0.0,3.1198,3.0992,3.0992,3.0457,2.9388,2.8501,2.6887,2.464,0.0,0.0,0.0,0.0,0.0,0.0,0.0,0.0,0.0,0.0,0.0,0.0,0.0,0.0,0.0,0.0,0.0,0.0,0.0,2.1225,2.2237,2.1015,2.05,2.0655,2.207,2.1536,2.0665,2.1217,1.9928,1.8748,1.9496,1.8538,1.7824,1.9126,1.8671,1.7911,1.73,1.645,1.4997,1.2334,1.19,1.0584,0.6838,0.7916,0.844,0.6696,0.8443,0.9531,0.8926,0.8717,0.837,0.7767,0.8252,0.8456,0.8123,0.8423,0.859,0.859,0.859,0.859,0.859,0.859,0.859,0.859,0.859,0.859,0.859,0.859,0.859,0.8579,0.8098,0.8084,0.8416,0.847,0.856,0.871,0.9124,0.9172,0.8982,0.8903,0.9068,0.9305,0.0,0.0,0.0,0.0,0.0,0.0,0.0,2.4953,2.6188,2.7015,2.8101,2.9075,2.9729,2.9804,2.9818,2.9876,0.0,0.0,0.0,0.0,0.0,0.0,0.0,0.0,0.0,0.0,3.0691,3.0305,3.0037,2.9277,2.8088,2.6826,2.5293,2.3526,2.1728,2.0127,0.0,0.0,0.0,0.0,0.0,0.0,1.8686,0.0,0.0,0.0,0.0,0.0,0.0,0.0,0.0,0.0,0.0,0.0,0.0,2.3075,2.2863,2.2782,2.3947,2.2947,2.1595,2.1769,2.0545,1.945,2.0045,1.943,1.9044,2.0075,1.9752,1.9207,1.901,1.7701,1.6378,1.5506,1.3732,1.1948,1.0542,0.9786,0.9318,0.9126,0.9516,0.9683,0.9347,0.9257,0.9228,0.9211,0.9374,0.9317,0.8946,0.8934,0.8851,0.8623,0.859,0.859,0.859,0.859,0.859,0.859,0.859,0.859,0.859,0.859,0.8723,0.895,0.8778,0.8881,0.9172,0.9261,0.9231,0.9124,0.9252,0.933,0.9318,0.921,0.9366,0.964,0.0,0.0,0.0,0.0,0.0,0.0,0.0,2.5679,2.6778,2.7465,2.8332,2.9132,2.9729,2.9804,2.9818,2.9895,0.0,0.0,0.0,0.0,0.0,0.0,0.0,0.0,0.0,3.0136,2.9827,2.9485,2.9003,2.8088,2.6664,2.5545,2.3956,2.1991,2.0602,1.9301,0.0,0.0,0.0,0.0,0.0,0.0,1.8657,0.0,0.0,0.0,0.0,0.0,0.0,0.0,0.0,0.0,0.0,0.0,0.0,0.0,2.5207,2.5349,2.5649,2.4861,2.3902,2.3716,2.255,2.1422,2.1256,2.0616,2.0141,2.0601,2.0316,1.9948,1.9806,1.8365,1.7114,1.6859,1.4911,1.3195,1.2582,1.1256,1.0296,1.0283,1.0233,1.0212,1.015,0.9989,0.9987,1.0141,0.9847,0.9595,0.9446,0.923,0.9084,0.9023,0.8756,0.859,0.859,0.859,0.859,0.859,0.859,0.859,0.859,0.8717,0.8917,0.9117,0.925,0.9408,0.0,0.979,0.9756,0.9582,0.9659,0.9677,0.9691,0.9662,0.9822,1.0004,0.0,0.0,0.0,0.0,0.0,0.0,0.0,0.0,2.7487,2.7971,2.853,2.9107,2.9679,2.9754,2.9876,3.0068,0.0,0.0,0.0,0.0,0.0,0.0,0.0,0.0,0.0,2.8962,2.8649,2.8496,2.7933,2.6871,2.5377,2.466,2.2916,2.0393,1.9803,1.8874,0.0,0.0,0.0,0.0,0.0,0.0,0.0,0.0,0.0,0.0,0.0,0.0,0.0,0.0,0.0,0.0,0.0,0.0,0.0,0.0,0.0,0.0,0.0,2.7049,2.7041,2.6495,2.539,2.4122,2.2899,2.1905,0.0,2.0816,2.0529,2.0241,1.9895,1.8577,1.7355,1.6815,1.5607,1.4321,1.3249,1.2345,1.1492,1.0624,1.09,1.122,1.1351,1.0971,1.0707,1.0694,0.9942,0.9543,0.9764,0.9428,0.9389,0.9728,0.9089,0.8717,0.8617,0.8617,0.8656,0.869,0.8656,0.8656,0.8723,0.9017,0.915,0.915,0.9528,0.9728,0.9761,1.006,1.0136,1.0045,1.0235,1.0181,1.0019,1.0297,1.0399,1.0459,0.0,0.0,0.0,0.0,0.0,0.0,0.0,0.0,0.0,0.0,2.8304,2.8938,2.9107,2.9528,2.9798,0.0,0.0,0.0,0.0,0.0,0.0,0.0,0.0,0.0,0.0,2.8094,2.797,2.7526,2.6685,2.5923,2.521,2.3974,2.278,2.1543,2.0331,1.9147,0.0,0.0,0.0,0.0,0.0,0.0,0.0,0.0,0.0,0.0,2.0231,2.0979,0.0,0.0,0.0,0.0,0.0,0.0,0.0,0.0,2.8067,2.8259,2.8002,0.0,2.6911,2.6315,2.4901,2.3541,0.0,2.2023,2.1175,2.1089,2.0816,2.0529,2.0241,1.8884,1.8085,1.8884,1.7138,1.5295,1.4143,1.3291,1.304,1.3791,1.3654,1.3423,1.3191,1.2372,1.1775,1.1699,1.1331,1.0919,1.0412,1.0336,1.0253,1.0093,1.0153,0.9821,0.8984,0.8984,0.915,0.9449,0.9117,0.9289,0.9821,0.9622,0.9561,0.9561,0.9661,0.9861,1.0093,1.016,1.0208,1.0235,1.0297,1.0114,0.9961,1.0982,1.136,1.1541,0.0,0.0,0.0,0.0,0.0,0.0,0.0,0.0,0.0,0.0,0.0,0.0,0.0,0.0,0.0,0.0,0.0,0.0,0.0,0.0,0.0,0.0,0.0,0.0,2.6907,2.6813,2.6582,2.619,2.544,2.4787,2.421,2.3674,2.2891,2.1947,2.0656,0.0,0.0,0.0,0.0,0.0,1.921,0.0,0.0,0.0,0.0,0.0,2.0685,2.1652,0.0,2.3894,2.5171,2.6309,0.0,0.0,0.0,0.0,2.8301,2.822,2.7799,2.7709,2.7433,2.6398,2.5102,2.3893,2.3203,2.208,2.1203,2.1203,2.0845,2.0472,2.0328,1.8988,1.8155,1.8946,1.7433,1.5689,1.4417,1.3444,1.3302,1.4544,1.4292,1.4319,1.5101,1.437,1.3685,1.3445,1.2883,1.2214,1.1436,1.1505,1.1488,1.1321,1.172,1.1256,0.9854,0.9815,1.0014,1.0373,1.0014,1.0047,1.0412,1.0253,1.006,0.996,1.0259,1.0392,1.0459,1.0585,1.0688,1.0693,1.0714,1.0973,1.1402,1.2115,1.2647,1.3102,0.0,0.0,0.0,0.0,0.0,0.0,0.0,0.0,0.0,0.0,0.0,0.0,0.0,0.0,0.0,0.0,0.0,0.0,0.0,0.0,0.0,0.0,0.0,2.6112,2.5909,2.5301,2.4911,2.4753,2.426,2.3819,2.3442,2.3752,2.3316,2.2157,2.1108,2.0343,0.0,0.0,0.0,0.0,1.9073,0.0,0.0,0.0,0.0,0.0,0.0,0.0,0.0,2.5001,2.6282,2.7422,2.7446,0.0,0.0,0.0,0.0,0.0,2.7091,2.7463,2.7744,2.6231,2.5247,2.4371,2.3208,2.1999,2.1146,2.1275,2.0831,2.0428,2.0355,1.8909,1.7883,1.8411,1.7452,1.6349,1.5528,1.4319,1.4042,1.531,1.5,1.5369,1.7062,1.6506,1.5826,1.532,1.4373,1.3445,1.2616,1.2686,1.2716,1.2716,1.3197,1.272,1.1122,1.1043,1.1136,1.1431,1.1042,1.0916,1.1002,1.0916,1.0691,1.0392,1.0883,1.0982,1.0784,1.1082,1.1233,1.1348,1.1498,1.2211,1.3184,1.3539,1.4126,1.4761,0.0,0.0,0.0,0.0,0.0,0.0,0.0,0.0,0.0,0.0,0.0,0.0,0.0,0.0,0.0,0.0,0.0,0.0,0.0,0.0,0.0,0.0,2.4677,2.4451,2.4185,2.3804,2.3574,2.3575,2.3365,2.3827,2.4867,2.4531,2.3942,2.3075,2.2498,2.1525,2.03,0.0,0.0,0.0,1.9917,0.0,0.0,0.0,0.0,0.0,0.0,0.0,0.0,2.5871,2.6691,2.7419,2.7607,0.0,0.0,0.0,0.0,0.0,2.6413,2.6282,2.5967,2.4597,2.3958,2.3464,2.2482,2.149,2.0931,2.1518,2.1318,2.0975,2.0694,1.858,1.754,1.9564,1.8901,1.8764,2.056,1.9359,1.8962,2.063,1.986,1.9198,1.9175,1.8149,1.7092,1.618,1.5329,1.4551,1.3854,1.3493,1.3293,1.3293,1.3616,1.3541,1.3005,1.2545,1.2404,1.2553,1.1942,1.1942,1.247,1.1876,1.1413,1.1049,1.085,1.0916,1.1115,1.1181,1.1498,1.2046,1.2885,1.3285,1.3564,1.5278,1.585,1.5881,0.0,0.0,0.0,0.0,0.0,0.0,0.0,0.0,0.0,0.0,0.0,0.0,0.0,0.0,0.0,0.0,0.0,0.0,0.0,0.0,0.0,2.3966,2.2983,2.2705,2.3201,2.2632,2.2616,2.3178,2.3264,2.3841,2.4836,2.5234,2.5145,2.4606,2.3629,2.2606,2.1593,0.0,0.0,0.0,0.0,0.0,0.0,0.0,0.0,0.0,0.0,0.0,0.0,0.0,2.7029,2.7241,2.7454,0.0,0.0,0.0,0.0,0.0,2.4883,2.4875,2.4733,2.3336,2.2849,2.2394,2.0998,1.9804,1.912,1.9595,1.9298,1.889,1.8734,1.8429,1.8613,1.9846,1.8977,1.8556,1.963,1.892,1.8909,2.0663,2.0163,2.0027,2.0752,2.0181,1.9404,1.8537,1.7667,1.6822,1.5922,1.5635,1.5422,1.5247,1.5661,1.577,1.5497,1.5253,1.4467,1.3128,1.2799,1.2708,1.2766,1.2272,1.1876,1.1512,1.1545,1.1876,1.2363,1.2561,1.3136,1.3952,1.4487,1.5047,1.5769,1.6968,1.7365,1.7287,0.0,0.0,0.0,0.0,0.0,0.0,0.0,0.0,0.0,0.0,0.0,0.0,0.0,0.0,0.0,0.0,0.0,0.0,0.0,0.0,2.3846,2.3264,2.1669,2.1204,2.214,2.1544,2.177,2.2889,2.3245,2.3957,2.5006,2.6002,2.6158,2.5524,2.4513,2.3489,2.2396,2.1188,2.0781,0.0,0.0,0.0,0.0,0.0,0.0,0.0,0.0,0.0,0.0,0.0,0.0,0.0,0.0,0.0,0.0,2.5241,2.4993,2.4539,2.3493,2.3286,2.3092,2.193,2.1879,2.1789,2.0526,1.897,1.803,1.8766,1.8321,1.7808,1.7932,1.9047,1.9956,1.9914,1.9427,1.9094,1.9151,1.8914,1.9219,2.0549,2.0367,2.0622,2.1883,2.1747,2.1314,2.0595,1.9769,1.8911,1.8039,1.7774,1.7487,1.7092,1.7462,1.7518,1.7117,1.7182,1.6146,1.4024,1.3827,1.3523,1.3062,1.2865,1.2634,1.2437,1.2865,1.3383,1.3964,1.4259,1.488,1.5684,1.6018,1.6861,1.7912,1.8273,1.8384,1.8379,0.0,0.0,0.0,0.0,0.0,0.0,0.0,0.0,0.0,0.0,0.0,0.0,0.0,0.0,0.0,0.0,0.0,0.0,0.0,0.0,2.3519,2.2248,2.0901,2.0293,2.0558,2.0442,2.1007,2.2252,2.2843,2.4274,2.6452,2.6972,2.6416,2.4969,2.5129,2.3906,2.1794,2.2165,2.1928,2.1318,0.0,0.0,0.0,0.0,0.0,0.0,0.0,0.0,0.0,0.0,0.0,0.0,0.0,0.0,2.4671,2.4178,2.3787,2.3404,2.2828,2.1522,2.0251,1.9958,2.1043,2.2236,2.2332,2.0521,1.9353,2.1219,2.0789,2.0201,2.065,2.1136,2.1117,2.0083,2.1374,2.2625,2.2867,2.2872,2.2906,2.3046,2.282,2.2545,2.2305,2.2237,2.1962,2.1378,2.0626,2.0052,1.9745,1.9121,1.8517,1.7917,1.7961,1.7522,1.6569,1.6861,1.6601,1.5811,1.5117,1.4455,1.3842,1.4104,1.4244,1.4235,1.4889,1.5434,1.5814,1.5846,1.6084,1.6505,1.7464,1.8311,1.8972,1.8758,1.865,1.8676,0.0,0.0,0.0,0.0,0.0,0.0,0.0,0.0,0.0,0.0,0.0,0.0,0.0,0.0,0.0,0.0,0.0,0.0,0.0,0.0,2.2309,2.121,2.0678,2.0455,2.0522,2.07,2.1525,2.3025,2.4814,2.6167,2.704,2.7226,2.6524,2.5148,2.5099,2.4171,2.2694,2.2902,2.2744,2.2316,2.2719,0.0,0.0,0.0,0.0,0.0,0.0,0.0,0.0,0.0,2.4671,2.4217,2.4189,2.3704,2.3046,2.2821,2.2582,2.2245,2.1839,2.1684,2.1568,2.1277,2.1187,2.0994,2.0212,1.9078,1.8436,1.9496,1.9127,1.9037,2.0419,2.0786,2.0981,2.1384,2.2287,2.2934,2.302,2.3033,2.3033,2.3033,2.2974,2.2825,2.2688,2.2654,2.258,2.2337,2.1679,2.1255,2.1154,2.036,1.9797,1.9556,1.9204,1.8803,1.8439,1.8355,1.7937,1.7227,1.6343,1.5661,1.5206,1.5336,1.5401,1.5401,1.5661,1.6203,1.6926,1.6926,1.741,1.8162,1.8559,1.8848,1.908,1.9022,1.9129,1.9259,0.0,0.0,0.0,0.0,0.0,0.0,0.0,0.0,0.0,0.0,0.0,0.0,0.0,0.0,0.0,0.0,0.0,0.0,2.3694,2.2561,2.1695,2.1181,2.0867,2.0867,2.1159,2.1961,2.2961,2.4171,2.6516,2.7469,2.7167,2.7,2.6163,2.4805,2.4641,2.3902,2.2812,2.2941,2.2917,2.2858,2.298,2.2984,0.0,0.0,0.0,0.0,0.0,0.0,0.0,0.0,2.341,2.3018,2.3046,2.2498,2.1831,2.1831,2.1377,2.0931,2.1133,2.1017,2.088,2.1121,2.0775,2.0221,1.9603,1.8607,1.8271,1.9725,1.945,1.947,2.1108,2.1141,2.1213,2.2237,2.2752,2.3041,2.3041,2.3041,2.3041,2.3041,2.296,2.2893,2.2893,2.2893,2.2893,2.2893,2.2468,2.2227,2.2227,2.1625,2.1062,2.0653,2.0268,1.9854,1.9456,1.92,1.8912,1.8515,1.7797,1.7023,1.6181,1.6365,1.6462,1.6495,1.6829,1.7378,1.799,1.799,1.8451,1.9104,1.9104,1.9104,1.9112,1.9152,1.9359,1.961,0.0,0.0,0.0,0.0,0.0,0.0,0.0,0.0,0.0,0.0,0.0,0.0,0.0,0.0,0.0,0.0,0.0,0.0,2.423,2.2624,2.1917,2.2381,2.1521,2.1454,2.2403,2.4183,2.527,2.5612,2.7462,2.7854,2.6877,2.6308,2.5221,2.3676,2.3753,2.3005,2.1716,2.2121,2.2469,2.2695,2.2562,2.298,0.0,0.0,0.0,0.0,0.0,0.0,0.0,0.0,2.1813,2.2002,2.1375,2.1218,2.1218,2.1203,2.0204,1.9437,2.082,1.915,1.7388,1.8832,1.9617,2.0272,2.1283,1.9757,1.9187,2.2834,2.2701,2.2208,2.3215,2.266,2.2084,2.2378,2.2892,2.3292,2.3292,2.3292,2.3292,2.3292,2.3046,2.2893,2.2893,2.2893,2.2893,2.2893,2.2893,2.2893,2.2893,2.2893,2.2321,2.1058,2.1012,2.0416,1.9148,1.9116,1.9264,1.9616,1.9603,1.8504,1.657,1.7217,1.7507,1.7571,1.8644,1.9104,1.9104,1.9104,1.9104,1.9104,1.9104,1.9104,1.9104,1.9104,1.9328,1.9679,0.0,0.0,0.0,0.0,0.0,0.0,0.0,0.0,0.0,0.0,0.0,0.0,0.0,0.0,0.0,0.0,0.0,0.0,2.3475,2.2668,2.2249,2.2385,2.2604,2.2999,2.3649,2.5356,2.641,2.6795,2.6687,2.6185,2.5262,2.4406,2.3461,2.2611,2.3227,2.2937,2.2046,2.3168,2.3338,2.2858,2.3251,2.2954,0.0,0.0,0.0,0.0,0.0,0.0,0.0,0.0,0.0,0.0,2.0988,2.0844,2.0871,2.1133,2.0581,2.0015,2.067,2.0571,2.0354,2.049,2.0809,2.1432,2.2873,2.2039,2.1412,2.2941,2.3086,2.3059,2.3359,2.3154,2.2937,2.278,2.3073,2.3292,2.3292,2.3292,2.3247,2.3033,2.296,2.2893,2.2893,2.2893,2.2893,2.2893,2.2893,2.2893,2.2893,2.2659,2.2371,2.1997,2.1567,2.1187,2.079,2.0098,1.9792,1.9889,1.9702,1.9392,1.904,1.9232,1.9328,1.936,1.9679,1.9788,1.9788,1.9788,1.9647,1.9488,1.9724,1.9647,1.952,1.9966,2.0221,2.0348,0.0,0.0,0.0,0.0,0.0,0.0,0.0,0.0,0.0,0.0,0.0,0.0,0.0,0.0,0.0,0.0,0.0,0.0,0.0,2.3149,2.2974,2.3217,2.3521,2.4081,2.485,2.5507,2.5934,2.6193,2.5894,2.5128,2.3863,2.3177,2.2564,2.2008,2.2583,2.2402,2.1715,2.274,2.2861,2.2361,2.263,2.2314,2.165,0.0,0.0,0.0,0.0,0.0,0.0,0.0,0.0,0.0,2.096,2.0888,2.0944,2.1307,2.0427,1.9604,2.0757,2.0851,2.0694,2.0996,2.166,2.2545,2.3593,2.3633,2.3483,2.3864,2.3727,2.3608,2.3682,2.3445,2.3174,2.3067,2.31,2.318,2.3278,2.322,2.3113,2.306,2.2974,2.2893,2.2893,2.2893,2.2893,2.2893,2.2893,2.2893,2.2893,2.2733,2.2471,2.2217,2.1857,2.1495,2.1096,2.0492,2.0223,2.0239,2.0188,2.0355,2.0676,2.0285,2.0106,2.0106,2.0106,2.0106,2.0106,2.0106,1.9979,1.9807,2.0011,1.9979,1.9839,2.0253,2.0488,2.0647,0.0,0.0,0.0,0.0,0.0,0.0,0.0,0.0,0.0,0.0,0.0,0.0,0.0,0.0,0.0,0.0,0.0,0.0,0.0,0.0,2.3865,2.4531,2.4402,2.4765,2.5715,2.4902,2.4377,2.4249,2.4934,2.4392,2.2664,2.2437,2.2128,2.1744,2.1908,2.1643,2.1115,2.1462,2.1563,2.1472,2.1205,2.1252,2.1438,2.0836,0.0,0.0,0.0,0.0,0.0,0.0,0.0,0.0,2.1146,2.1147,2.1219,2.1569,2.008,1.8821,2.0995,2.048,1.9591,2.0905,2.2445,2.3686,2.398,2.4639,2.5216,2.5125,2.4471,2.3959,2.4155,2.3549,2.3115,2.3354,2.3153,2.3081,2.3292,2.31,2.3027,2.326,2.3033,2.2893,2.2893,2.2893,2.2893,2.2893,2.2893,2.2893,2.2893,2.2893,2.2603,2.2,2.1987,2.1558,2.0668,2.0629,2.0618,2.0693,2.0896,2.1194,2.1518,2.067,2.0266,2.024,2.0215,2.0202,2.0202,2.0202,2.017,2.0138,2.017,2.017,2.0138,2.017,2.0393,2.0634,0.0,0.0,0.0,0.0,0.0,0.0,0.0,0.0,0.0,0.0,0.0,0.0,0.0,0.0,0.0,0.0,0.0,0.0,0.0,0.0,2.4359,2.502,2.4999,2.485,2.4552,2.4161,2.347,2.2467,2.2788,2.2475,2.1621,2.1361,2.1242,2.1271,2.1551,2.1714,2.1783,2.1647,2.1563,2.1488,2.1218,2.0983,2.0821,2.0711,2.0562,0.0,0.0,0.0,0.0,0.0,0.0,0.0,2.0902,2.0815,2.0869,2.122,2.076,2.0379,2.1385,2.1555,2.1674,2.2775,2.4185,2.5388,2.5743,2.5727,2.5384,2.4578,2.4449,2.4454,2.4231,2.4111,2.3993,2.4004,2.3768,2.3629,2.3661,2.342,2.3166,2.2979,2.2934,2.2893,2.2893,2.2893,2.2893,2.2893,2.2893,2.2893,2.2893,2.2893,2.2832,2.2697,2.2663,2.2457,2.1998,2.1509,2.128,2.1313,2.1111,2.1065,2.113,2.1463,2.1488,2.125,2.0993,2.0887,2.0887,2.0887,2.0729,2.052,2.0761,2.0729,2.052,2.0792,2.0919,2.0982,0.0,0.0,0.0,0.0,0.0,0.0,0.0,0.0,0.0,0.0,0.0,0.0,0.0,0.0,0.0,0.0,0.0,0.0,0.0,0.0,0.0,2.4722,2.4509,2.4144,2.3669,2.3105,2.2567,2.2089,2.1925,2.1504,2.0916,2.0771,2.0856,2.1176,2.1508,2.1709,2.1806,2.1696,2.1547,2.1341,2.1201,2.1049,2.0888,2.0924,2.0841,2.0742,2.0898,0.0,0.0,0.0,0.0,0.0,0.0,0.0,2.1003,2.1336,2.1067,2.0857,2.185,2.2219,2.2642,2.4045,2.5278,2.6093,2.6093,2.5926,2.5584,2.5085,2.4811,2.4665,2.4665,2.4603,2.4511,2.4494,2.4407,2.4252,2.4074,2.3782,2.3469,2.3134,2.3086,2.3033,2.2907,2.3027,2.302,2.2907,2.2893,2.2893,2.2893,2.2893,2.2893,2.2893,2.2893,2.2746,2.2385,2.2104,2.1859,2.1727,2.1681,2.1747,2.1899,2.1685,2.1483,2.1368,2.1176,2.1109,2.1109,2.1109,2.1077,2.1077,2.1077,2.1077,2.1077,2.1077,2.1109,2.1109,0.0,0.0,0.0,0.0,0.0,0.0,0.0,0.0,0.0,0.0,0.0,0.0,0.0,0.0,0.0,0.0,0.0,0.0,0.0,0.0,0.0,2.4038,2.3732,2.3363,2.2947,2.2191,2.1939,2.2221,2.1629,2.118,2.0831,2.0828,2.0993,2.1384,2.1598,2.1739,2.1823,2.1684,2.1511,2.1356,2.1243,2.1203,2.1203,2.1203,2.1146,2.1117,2.1175,2.1146,2.1117,2.1175,0.0,0.0,0.0,0.0,2.1262,2.154,2.127,2.111,2.2274,2.2813,2.3379,2.5008,2.5931,2.642,2.6143,2.5988,2.5892,2.6056,2.5359,2.4821,2.5226,2.5057,2.4879,2.4938,2.4977,2.4861,2.4451,2.4196,2.3899,2.3469,2.3461,2.3367,2.3023,2.3244,2.3263,2.292,2.2947,2.296,2.2893,2.2893,2.2893,2.2893,2.2893,2.2746,2.2385,2.2385,2.2298,2.2071,2.2298,2.2619,2.2991,2.1865,2.1343,2.1351,2.1276,2.1267,2.1267,2.1267,2.1457,2.1677,2.152,2.1601,2.1853,2.1727,2.1695,2.1695,0.0,0.0,0.0,0.0,0.0,0.0,0.0,0.0,0.0,0.0,0.0,0.0,0.0,0.0,0.0,0.0,0.0,0.0,2.5189,0.0,0.0,2.3302,2.3582,2.3276,2.2261,2.222,2.21,2.1883,2.1438,2.1543,2.215,2.2102,2.2029,2.197,2.1788,2.211,2.2755,2.1708,2.156,2.1941,2.1417,2.1203,2.1203,2.1203,2.1031,2.0816,2.1089,2.1003,2.0816,2.1089,2.1203,0.0,0.0,0.0,2.1218,2.1262,2.1613,2.2078,2.2482,2.3826,2.5227,2.5705,2.6284,2.6825,2.721,2.6696,2.6367,2.7122,2.6129,2.5226,2.5653,2.5405,2.5281,2.562,2.5478,2.5219,2.4882,2.4798,2.4554,2.3989,2.4122,2.4011,2.34,2.3611,2.3561,2.2954,2.3113,2.3153,2.2907,2.2893,2.2893,2.2893,2.2893,2.2746,2.2385,2.2385,2.2371,2.2365,2.2371,2.2767,2.3398,2.2702,2.2374,2.2288,2.2056,2.1978,2.1978,2.1978,2.1978,2.2087,2.2606,2.2856,2.3012,2.3837,2.4131,2.4162,0.0,0.0,0.0,0.0,0.0,0.0,0.0,0.0,0.0,0.0,0.0,0.0,0.0,0.0,0.0,2.5359,2.5168,2.502,2.502,2.4551,2.4036,2.3517,2.343,2.2991,2.2128,2.223,2.2126,2.1787,2.1701,2.1892,2.2359,2.2336,2.2373,2.2374,2.2048,2.2251,2.2705,2.1867,2.1632,2.1831,2.1375,2.1203,2.1203,2.1203,2.1117,2.0988,2.1146,2.1117,2.0988,2.1146,2.1203,2.1203,2.1203,0.0,0.0,0.0,2.2782,2.3622,2.4439,2.5525,2.6528,2.6999,2.7194,2.7273,2.7463,2.7071,2.6704,2.6852,2.6349,2.585,2.58,2.5836,2.5777,2.552,2.5921,2.5977,2.5017,2.5088,2.4932,2.4104,2.4232,2.4219,2.3775,2.3991,2.4011,2.3536,2.3646,2.3557,2.3201,2.3167,2.3099,2.2893,2.2893,2.284,2.2672,2.2876,2.3167,2.3587,2.379,2.4128,2.4624,2.4621,2.398,2.2813,2.2522,2.2606,2.2935,2.2935,2.3371,2.4054,2.4147,2.4301,2.4517,2.4733,2.481,2.4841,0.0,0.0,0.0,0.0,0.0,0.0,0.0,0.0,0.0,0.0,0.0,0.0,0.0,0.0,0.0,0.0,2.4978,2.4807,2.4572,2.4186,2.3841,2.3559,2.3286,2.2837,2.2165,2.2258,2.2143,2.1848,2.1977,2.2146,2.2441,2.2505,2.2611,2.2707,2.2305,2.2287,2.2546,2.1957,2.1738,2.1766,2.145,2.1276,2.1233,2.1393,2.135,2.1218,0.0,2.1276,2.1203,2.1289,2.1461,2.1689,2.1731,2.2214,0.0,0.0,0.0,2.4849,2.6086,2.6857,2.7488,2.8196,2.8395,2.8412,2.8203,2.7937,2.7539,2.7064,2.6807,2.6522,2.6034,2.6202,2.6253,2.574,2.6399,2.6648,2.5605,2.5711,2.555,2.4627,2.4722,2.4647,2.4164,2.4369,2.4391,2.4014,2.407,2.3933,2.3577,2.3543,2.3441,2.3201,2.3167,2.3201,2.3304,2.3645,2.419,2.4902,2.5172,2.561,2.6197,2.6463,2.5776,2.4385,2.3871,2.3881,2.424,2.4347,2.4982,2.5861,2.582,2.6006,2.6269,2.6191,2.6191,2.6222,0.0,0.0,0.0,0.0,0.0,0.0,0.0,0.0,0.0,0.0,0.0,0.0,0.0,2.557,2.538,2.4956,2.4914,2.4529,2.3624,2.4121,2.397,2.2904,2.3137,0.0,2.23,2.2309,2.2205,2.1994,2.2054,2.2348,2.2784,2.2843,2.2939,2.305,2.2451,2.2334,2.2561,2.1964,2.1847,2.2066,2.1788,2.1481,2.1276,2.1891,2.1745,2.1247,2.1554,2.1467,2.1232,2.1575,2.2214,2.2946,2.3199,2.3883,2.4561,0.0,0.0,0.0,2.6479,2.7299,2.8068,2.8847,2.9868,3.0593,3.0151,2.9777,2.9357,2.8639,2.7933,2.7201,2.6493,2.6385,2.6509,2.6838,2.6962,2.7011,2.698,2.6935,2.6697,2.6042,2.6016,2.5623,2.4558,2.4713,2.4633,2.4048,2.4232,2.426,2.398,2.3952,2.3952,2.3918,2.3918,2.4088,2.4394,2.4733,2.5307,2.5999,2.6032,2.6753,2.8032,2.7752,2.7781,2.7989,2.6939,2.6288,2.6008,2.6368,2.6579,2.6736,2.7665,2.8069,2.8194,2.9101,2.9462,2.9493,0.0,0.0,0.0,0.0,0.0,0.0,0.0,0.0,0.0,0.0,0.0,0.0,0.0,2.5317,2.5084,2.4893,2.4743,2.4487,2.4143,2.4378,2.4335,2.3905,2.3801,2.3435,2.2752,2.275,2.2509,2.2004,2.2289,2.2637,2.3056,2.2899,2.2919,2.3015,2.2662,2.2542,2.2557,2.195,2.1759,2.1832,2.1759,2.1628,2.1525,2.1554,2.154,2.154,2.1654,2.1611,2.1685,2.2853,2.305,2.3045,2.43,2.4755,2.5041,2.6126,2.6885,2.7473,2.7831,2.8414,2.9049,2.9542,3.006,3.0488,3.0583,2.9752,2.892,2.8707,2.7876,2.7166,2.718,2.6983,2.6655,2.6276,2.6859,2.7229,2.6795,2.7143,2.7221,2.6573,2.6497,2.6349,2.594,2.5782,2.5956,2.6642,2.5937,2.5629,2.5965,2.5375,2.4916,2.4631,2.4631,2.5022,2.5849,2.6234,2.6902,2.7833,2.8031,2.8508,2.9181,2.9317,2.9398,2.9511,2.9381,2.8745,2.7775,2.7912,2.8369,2.8977,2.9355,2.9502,2.9533,2.9875,3.0031,3.0031,0.0,0.0,0.0,0.0,0.0,0.0,0.0,0.0,0.0,0.0,0.0,0.0,0.0,0.0,2.5102,2.5016,2.4822,2.4716,2.4636,2.4841,2.4901,2.4735,2.4314,2.3813,2.3279,2.2997,2.2652,2.22,2.2482,2.2766,2.3061,2.3004,2.2975,2.2997,2.2878,2.2737,2.2563,2.2184,2.2008,2.2008,2.2008,2.195,2.1876,2.1964,2.195,2.1891,2.2083,2.2112,2.223,2.337,2.3832,2.4151,2.544,2.6109,2.6613,2.7597,2.8358,2.8883,2.8874,2.9364,3.0016,3.0641,3.099,3.1231,3.1545,3.0856,3.0078,2.9799,2.8855,2.816,2.8448,2.7879,2.7202,2.6677,2.7223,2.762,2.7302,2.7611,2.7685,2.7258,2.7104,2.7008,2.6871,2.653,2.6741,2.7802,2.6889,2.6547,2.7097,2.6485,2.608,2.5911,2.6161,2.6635,2.7319,2.7733,2.8362,2.9299,2.9528,2.9845,3.0273,3.0542,3.0655,3.0607,3.0882,3.0334,2.9221,2.9346,2.9793,3.0406,3.0552,3.0589,3.0589,3.0589,3.0589,3.0589,0.0,0.0,0.0,0.0,0.0,0.0,0.0,0.0,0.0,0.0,0.0,0.0,0.0,0.0,0.0,2.5232,2.5232,2.5134,2.4955,2.5533,2.5689,2.5253,2.459,2.4111,2.3842,2.3044,2.2628,2.2653,2.2603,2.2689,2.2848,2.3167,2.321,2.3039,2.3084,2.2927,2.2639,2.2593,2.2608,2.2637,2.2623,2.2462,2.236,2.3223,2.3003,2.2331,2.2932,2.2986,2.2841,2.3168,2.4672,2.6504,2.6774,2.8033,2.9374,2.9027,2.9183,2.9449,0.0,0.0,0.0,3.2053,3.2664,3.3019,3.322,3.327,3.2947,3.2018,3.0963,3.0244,3.0332,2.9179,2.8217,2.8217,2.8181,2.8274,2.8655,2.8426,2.8259,2.8283,2.7967,2.764,2.7327,2.702,2.6958,2.7331,2.7004,2.6958,2.7331,2.7296,2.7404,2.7727,2.8461,2.8839,2.8839,2.9168,2.9676,3.0328,3.0328,3.07,3.141,3.141,3.141,3.141,3.141,3.0937,3.0259,3.0644,3.0809,3.0877,3.1263,3.141,3.141,3.141,3.141,3.141,0.0,0.0,0.0,0.0,0.0,0.0,0.0,0.0,0.0,0.0,0.0,0.0,0.0,0.0,2.5689,2.5439,2.5597,2.5759,2.5901,2.5908,2.5856,2.5709,2.5096,2.4731,2.466,2.3643,2.3313,2.3687,2.3191,2.3229,2.3735,2.3422,2.3561,2.4007,2.3575,2.3347,2.323,2.2779,2.2887,2.327,2.281,2.285,2.3179,2.2974,2.3173,2.36,2.3758,2.444,2.5397,2.6665,2.7319,2.7714,2.8119,2.9135,0.0,2.9782,3.0159,3.0589,3.0269,0.0,0.0,0.0,0.0,0.0,3.2357,3.1972,3.175,3.214,3.1097,3.0321,3.1047,3.0852,3.0805,3.1327,2.9785,2.8779,2.9409,2.9202,2.9292,3.0141,2.9693,2.9453,2.9924,2.966,2.9901,3.1029,3.0088,2.9817,3.07,2.9716,2.9077,2.8876,2.9071,2.9397,2.9887,3.0003,3.0375,3.1087,3.1087,3.1184,3.141,3.141,3.141,3.141,3.141,3.1281,3.1098,3.1208,3.1212,3.1263,3.1373,3.141,3.141,3.141,3.141,3.1446,0.0,0.0,0.0,0.0,0.0,0.0,0.0,0.0,0.0,0.0,0.0,0.0,0.0,0.0,0.0,2.5816,2.6048,2.6196,2.6256,2.6408,2.6395,2.6165,2.5597,2.5289,2.5289,2.3962,2.3584,2.4172,2.3459,2.3417,2.3958,2.3641,2.3756,2.4178,2.3808,2.3687,2.3686,2.3481,2.3375,2.3379,2.3274,2.339,2.3588,2.3491,2.3786,2.4397,2.4981,2.5929,2.7088,2.8265,2.8786,2.904,2.9663,3.0147,3.0518,3.049,3.0754,3.1051,3.0747,3.1179,3.1596,3.1075,0.0,0.0,3.2553,3.2203,3.2096,3.3225,3.2347,3.1681,3.2618,3.2314,3.2193,3.2949,3.1525,3.0418,3.0733,3.0488,3.052,3.1181,3.0884,3.0779,3.1217,3.0909,3.1115,3.2104,3.1271,3.1063,3.1837,3.1073,3.047,3.0228,3.0193,3.0343,3.0764,3.0764,3.0958,3.141,3.141,3.141,3.141,3.141,3.141,3.141,3.141,3.141,3.141,3.141,3.141,3.141,3.141,3.141,3.1428,3.1579,3.1634,3.1689,0.0,0.0,0.0,0.0,0.0,0.0,0.0,0.0,0.0,0.0,0.0,0.0,0.0,0.0,0.0,0.0,2.6519,2.6591,2.6356,2.6947,2.7052,2.6478,2.6008,2.5713,2.564,2.4176,2.3748,2.4394,2.3669,2.3527,2.3877,2.3928,0.0,0.0,2.4005,2.4046,2.4216,2.4568,2.4178,2.3414,2.394,2.4027,2.3936,2.4461,2.4787,2.5167,2.6405,2.754,2.8495,2.9105,2.9836,3.0554,3.1162,3.1166,3.0926,3.1167,3.1252,3.1277,3.1138,3.1426,0.0,3.2162,3.2011,0.0,3.3155,3.3126,3.3239,3.4452,3.3888,3.3454,3.4354,3.3433,3.2817,3.3516,3.315,3.2675,3.2399,3.2013,3.1753,3.1893,3.1841,3.1823,3.1893,3.1548,3.1461,3.1824,3.1513,3.1461,3.1772,3.1682,3.1614,3.1561,3.1454,3.141,3.141,3.141,3.141,3.141,3.141,3.141,3.141,3.141,3.141,3.141,3.141,3.141,3.141,3.141,3.141,3.141,3.141,3.141,3.1465,3.1854,3.2001,3.2074,0.0,0.0,0.0,0.0,0.0,0.0,0.0,0.0,0.0,0.0,0.0,0.0,0.0,0.0,0.0,0.0,2.6941,2.7123,2.7087,2.7206,2.6938,2.6212,2.6168,2.5883,2.5239,2.4607,2.4547,2.5086,2.4836,2.4613,2.4447,2.4785,0.0,0.0,2.4712,2.4708,2.5395,2.5834,2.5659,2.4995,2.4638,2.4934,2.5564,2.5156,2.605,2.7523,2.7818,2.9497,3.1685,3.2321,3.256,3.2586,3.2058,3.2216,3.2542,3.2186,3.2313,3.2525,3.2382,3.2682,3.2839,3.1973,3.2481,0.0,3.2174,3.2452,3.2996,3.3316,3.3195,3.323,3.3855,3.3747,3.3687,3.3893,3.4113,3.409,3.3539,3.2929,3.2825,3.3746,3.3282,3.3141,3.3781,3.3508,3.3309,3.3347,3.3309,3.313,3.2894,3.2559,3.226,3.1898,3.1569,3.141,3.141,3.141,3.141,3.141,3.141,3.141,3.141,3.141,3.141,3.141,3.141,3.141,3.141,3.141,3.141,3.141,3.141,3.141,3.1465,3.1854,3.2001,3.2111,0.0,2.6315,2.5625,2.5988,0.0,0.0,0.0,0.0,2.5481,2.55,2.6287,2.6653,2.6111,2.6906,0.0,0.0,0.0,0.0,0.0,2.6315,2.597,2.6035,2.5848,2.5648,2.5551,2.5286,2.5357,2.5795,2.5919,2.5827,2.5594,2.5928,2.6046,2.6,2.5645,2.5376,2.529,2.6569,2.6801,2.6347,2.6313,2.6614,2.7078,2.6923,2.785,2.9346,2.9639,3.1287,3.3308,3.3364,3.3639,3.3775,3.2834,3.2975,3.3347,3.2957,3.2883,3.2878,3.2736,3.2863,3.2909,3.2375,3.2603,0.0,0.0,3.244,3.2697,3.3137,3.2908,3.283,3.3468,3.3527,3.3563,3.3988,3.4465,3.4583,3.3945,3.3694,3.3698,3.4057,3.3709,3.3617,3.4073,3.3882,3.3769,3.3798,3.3817,3.3725,3.3489,3.2936,3.2496,3.2313,3.1689,3.141,3.141,3.141,3.141,3.141,3.141,3.141,3.141,3.141,3.141,3.141,3.141,3.141,3.1428,3.1598,3.1819,3.1981,3.1787,3.1818,3.2038,3.2459,3.2625,3.2698,2.5217,2.4468,2.3928,2.4147,2.4334,0.0,0.0,0.0,2.4837,2.4901,2.5766,2.6175,2.553,2.6326,2.6748,2.6367,0.0,0.0,2.6216,2.5281,2.4948,2.547,2.5391,2.5479,2.5799,2.5942,2.6203,2.6513,2.6812,2.6894,2.6691,2.6962,2.6859,2.6411,2.6534,2.6134,2.5492,2.7225,2.7813,2.7648,2.8455,2.8681,2.8561,2.8838,2.9725,3.0919,3.1778,3.2992,3.4192,3.3887,3.4177,3.4465,3.3737,3.3708,3.3921,3.3729,3.3432,3.3144,3.3136,3.3153,3.3198,3.315,3.3018,3.2895,0.0,0.0,0.0,3.3174,3.272,3.2428,3.3029,3.2884,3.2859,3.3463,3.4112,3.4288,3.3669,3.3983,3.4165,3.3801,3.383,3.3894,3.3858,3.3783,3.3709,3.3773,3.3757,3.3773,3.3681,3.2988,3.2551,3.2478,3.1795,3.1442,3.1506,3.1506,3.1538,3.1603,3.1603,3.157,3.1506,3.1506,3.1497,3.152,3.1446,3.1501,3.1667,3.1891,3.2341,3.28,3.2378,3.2478,3.2844,3.3268,3.3366,3.3421,2.3905,2.3112,2.2434,2.2987,2.2826,2.2677,0.0,0.0,2.334,2.3436,2.4363,2.4979,2.4912,2.5078,2.5326,2.5672,2.4872,2.4535,2.4978,2.5025,2.4631,2.3727,2.5279,2.584,2.5118,2.6254,2.6994,2.7273,2.7542,2.7446,2.6962,2.7233,2.7647,2.8178,2.7092,2.7058,2.7843,2.8388,2.8716,2.907,3.0956,3.1058,3.0067,3.0156,3.1064,3.2506,3.4302,3.479,3.4687,3.5039,3.4955,3.4694,3.4836,3.4716,3.4512,3.4615,3.4378,3.4196,3.4488,3.4817,3.4911,3.4146,3.4488,3.4653,3.3074,0.0,3.3174,3.2843,0.0,3.2042,3.2132,0.0,0.0,3.1595,3.2453,3.2989,3.2524,3.3274,3.3811,3.3629,3.4197,3.4478,3.418,3.3826,3.365,3.3691,3.3728,3.356,3.3204,3.281,3.2441,3.2093,3.1616,3.1538,3.1846,3.1846,3.1974,3.2294,3.2294,3.2134,3.1846,3.1846,3.1889,3.1909,3.1543,3.1781,3.2441,3.2129,3.2674,3.364,3.3215,3.325,3.361,3.4025,3.3992,3.383,2.1997,2.1644,2.1361,2.1474,2.1677,2.2093,2.2955,2.3365,2.3739,2.4299,2.4452,2.4692,2.5162,2.5214,2.5384,2.5698,2.4648,2.4256,2.493,2.4268,0.0,2.4028,2.5293,2.5847,2.5465,2.7048,2.7704,2.7403,2.8182,2.8281,2.7745,0.0,2.8237,2.8366,2.8071,2.8164,2.8613,2.9575,3.0141,3.0587,3.225,3.2737,3.2484,3.2239,3.2685,3.3597,3.4945,3.5273,3.5098,3.5019,3.5328,3.5679,3.5301,3.5521,3.5852,3.5404,3.5293,3.5325,3.518,3.5273,3.5273,3.4661,3.4699,3.4601,3.358,3.3432,3.3449,3.3281,0.0,0.0,0.0,0.0,0.0,0.0,3.2861,3.3168,3.288,3.3631,3.4011,3.3502,3.3654,3.3704,3.3348,3.3461,3.3467,3.3308,3.3293,3.3331,3.3406,3.303,3.2758,3.259,3.2179,3.207,3.2198,3.2198,3.2262,3.239,3.239,3.2458,3.2588,3.2311,3.2491,3.2959,3.2562,3.273,3.3221,3.3296,3.364,3.4128,3.4406,3.4459,3.441,3.458,3.4554,3.4523,2.0742,2.0622,2.0578,2.0605,2.1028,2.1802,2.3034,2.3294,2.3645,2.4439,2.4138,2.4064,2.4738,2.4763,2.487,2.5269,2.4172,2.3827,2.4629,2.3754,2.3475,2.4071,2.5201,2.5779,2.5785,2.7475,2.8123,2.7655,2.8672,2.8986,2.8611,0.0,0.0,0.0,2.9258,2.9383,2.9386,3.0827,3.1523,3.1821,3.3212,3.3965,3.4219,3.4043,3.416,3.4564,3.5293,3.5488,3.5351,3.5137,3.5636,3.6285,3.5732,3.6056,3.6524,3.5973,3.5913,3.596,3.585,3.5819,3.5654,3.5107,3.4914,3.4634,3.373,3.3767,3.3947,3.3735,3.3156,0.0,0.0,0.0,3.2497,3.3363,0.0,3.3825,3.3282,3.3817,3.4028,3.34,3.3389,3.349,3.3605,3.3508,3.3431,3.3354,3.3097,3.3045,3.3337,3.3081,3.2922,3.2825,3.2541,3.2453,3.2549,3.2549,3.2581,3.2676,3.2676,3.2854,3.3241,3.2885,3.3144,3.3837,3.342,3.3553,3.4046,3.4235,3.4436,3.4689,3.5286,3.5367,3.5196,3.5196,3.5127,3.5127,2.0711,2.0319,2.0118,2.0784,2.1104,2.1618,2.2565,2.2299,2.2227,2.2883,2.2793,2.2764,2.3036,2.2844,2.3051,2.3975,2.3174,2.292,2.359,2.3856,2.3694,2.3057,2.4837,2.5778,2.57,2.7151,2.8018,2.8254,2.9015,2.9382,2.9382,2.9502,0.0,0.0,3.0625,3.0726,3.0624,3.2108,3.2624,3.2599,3.4081,3.4668,3.4726,3.5156,3.5351,3.541,3.584,3.5742,3.5449,3.584,3.5996,3.6084,3.6364,3.6222,3.5971,3.6275,3.6053,3.5876,3.6628,3.6828,3.6619,3.5634,3.5613,3.5316,3.3219,3.3954,3.4819,3.4033,3.449,3.5134,3.5631,3.5313,3.4912,3.4769,3.491,0.0,0.0,3.3499,3.3543,3.3339,3.3807,3.4605,3.5767,3.4313,3.3579,3.4195,3.3296,3.2719,3.2739,3.2763,3.2708,3.2441,3.239,3.2549,3.288,3.288,3.3038,3.3355,3.3355,3.3429,3.3598,3.3579,3.3825,3.4254,3.3856,3.4141,3.4846,3.4463,3.4761,3.5451,3.547,3.5675,3.5947,3.5947,3.5743,3.5504,2.0493,2.0701,2.0893,2.1123,2.1088,2.1245,2.1889,2.2013,2.2301,2.3119,2.2812,2.28,2.3533,2.3497,2.3699,2.4265,2.4072,2.4016,2.4244,2.478,2.4875,2.4393,2.6025,2.67,2.616,2.7896,2.8622,2.8174,2.9058,2.9522,2.9541,2.9595,0.0,0.0,3.0684,3.1189,3.175,3.2755,3.3345,3.3636,3.4731,3.5508,3.5991,3.5547,3.5195,3.5,3.5449,3.5703,3.584,3.5942,3.5982,3.6016,3.6132,3.6237,3.6388,3.6757,3.6923,3.7116,3.7952,3.8143,3.7929,3.7021,3.655,3.5912,3.4273,3.4724,3.5312,3.4639,3.5248,3.5883,3.5916,3.5307,3.4903,3.5089,3.4642,3.4295,0.0,3.4643,3.5034,3.5683,3.5855,3.567,3.4996,3.4635,3.4137,3.3445,3.2835,3.2654,3.2953,3.3063,3.3101,3.3008,3.3029,3.3102,3.3228,3.3228,3.3447,3.3848,3.3848,3.4206,3.4776,3.4465,3.4729,3.5389,3.5017,3.5119,3.5621,3.5486,3.5437,3.5523,3.5743,3.5743,3.5709,3.5913,3.5913,3.5884,2.0852,2.1315,2.1634,2.1605,2.1374,2.1344,2.1682,2.1807,2.2215,2.3133,2.2935,2.2979,2.3781,2.3874,2.4085,2.4592,2.4674,2.479,2.4946,2.547,2.5684,2.5485,2.6615,2.7096,2.6863,2.8439,2.8961,2.8389,2.9546,2.9984,2.9833,2.9989,3.0204,3.0469,3.123,3.1827,3.2276,3.3574,3.4199,3.4375,3.5254,3.5859,3.6206,3.5762,3.543,3.5215,3.5508,3.5703,3.582,3.5942,3.5982,3.5982,3.5982,3.6234,3.6553,3.6789,3.7247,3.7821,3.8466,3.8719,3.8705,3.7931,3.7383,3.6729,3.5371,3.579,3.6295,3.5798,3.6423,3.7136,3.7288,3.6596,3.6002,3.6059,3.5358,3.4881,0.0,3.5442,3.6107,3.7091,3.6911,3.6331,3.5501,3.5164,3.4593,3.3476,3.2846,3.2655,3.3012,3.3175,3.3251,3.3318,3.336,3.3386,3.3386,3.3574,3.3789,3.4114,3.4251,3.4687,3.5391,3.5078,3.5332,3.5996,3.5742,3.5762,3.5982,3.5982,3.5879,3.5709,3.5913,3.5879,3.5728,3.6123,3.6348,3.6543,2.1631,2.2042,2.223,2.2087,2.1929,2.1834,2.1909,2.173,2.1878,2.2861,2.306,2.3276,2.3761,2.3856,2.4127,2.4848,2.4946,2.5148,2.5614,2.6038,2.627,2.6294,2.6673,2.7164,2.7784,2.8736,0.0,2.9025,3.0365,3.0789,3.0293,3.0703,3.0898,3.0937,3.2207,3.2589,3.2405,3.4486,3.5137,3.4844,3.5684,3.5801,3.5508,3.5898,3.604,3.604,3.6001,3.5762,3.5488,3.5879,3.5982,3.5982,3.6035,3.6273,3.6539,3.6539,3.7163,3.79,3.8262,3.8691,3.8917,3.8435,3.81,3.7626,3.6475,3.7054,3.7774,3.7391,3.8016,3.883,3.9477,3.8864,3.8078,3.7419,3.6948,3.633,3.5297,3.5805,3.6634,3.7497,3.6962,3.6648,3.7122,3.5878,3.484,3.4268,3.3265,3.2736,3.2919,3.3062,3.3175,3.332,3.3422,3.3489,3.3457,3.3919,3.4153,3.4173,3.4531,3.498,3.543,3.543,3.5644,3.5982,3.5982,3.5982,3.5982,3.5982,3.5982,3.5982,3.6035,3.604,3.6118,3.6543,3.6934,3.7363,2.1197,2.1645,2.1921,2.1685,2.1828,2.1733,2.1117,2.1751,2.2468,2.2858,2.3809,2.433,2.4116,2.4613,2.4973,2.489,2.5687,2.621,2.6359,2.7455,2.7981,2.7698,2.8873,2.934,2.8957,3.0402,3.1034,3.0754,3.1157,3.1473,3.169,3.1133,3.0898,3.0937,3.1925,3.2594,3.3105,3.4335,3.5195,3.5703,3.5903,3.6152,3.6401,3.6465,3.6699,3.6894,3.625,3.5923,3.5879,3.5996,3.5982,3.604,3.6406,3.676,3.7083,3.7323,3.7744,3.8303,3.9028,3.9282,3.9419,3.9647,3.9136,3.8424,3.781,3.8369,3.876,3.7989,3.9009,3.9661,3.8381,3.7941,3.7432,3.6306,3.6121,3.6022,3.5808,3.6113,3.6748,3.7792,3.6844,3.627,3.6547,3.531,3.4169,3.333,3.2756,3.2678,3.3101,3.3343,3.3576,3.3798,3.4374,3.4545,3.429,3.4757,3.5021,3.5059,3.5156,3.5449,3.5859,3.5859,3.5884,3.5982,3.5982,3.5982,3.5982,3.5982,3.5982,3.6021,3.6367,3.6894,3.7328,3.689,3.6934,3.7363,2.1264,2.1717,2.2059,2.1809,2.2268,2.2394,2.1425,2.2044,2.2706,2.3039,2.3873,2.4497,2.4666,2.5185,2.573,2.6198,2.667,2.7176,2.7722,2.8356,2.9003,2.9667,3.037,3.099,3.16,3.2168,3.2408,3.2365,3.198,3.186,3.1875,3.1211,3.0898,3.0918,3.1807,3.2427,3.2894,3.4178,3.5215,3.5982,3.5982,3.6172,0.0,3.6797,3.6973,3.7012,3.6894,3.6621,3.6328,3.6523,3.6465,3.6421,3.7025,3.7456,3.7817,3.8162,3.8669,3.924,3.966,3.9937,4.0179,4.0448,3.9937,3.9392,3.9328,3.9364,3.9357,3.9163,3.9596,3.9616,3.8432,3.772,3.6899,3.5641,3.5829,3.6088,3.599,3.6225,3.6684,3.7391,3.6258,3.5458,3.5564,3.4827,3.3923,3.2839,3.2785,3.2852,3.3064,3.3676,3.3992,3.4001,3.4897,3.5128,3.4608,3.5277,3.5532,3.5391,3.5586,3.5801,3.5982,3.5982,3.5982,3.5982,3.5982,3.5982,3.6035,3.623,3.6309,3.6348,3.6777,3.7344,3.7835,3.7402,3.75,3.7891,2.1556,2.2015,2.2321,2.2199,2.3034,2.3403,2.2444,2.271,2.3161,2.3423,2.3991,2.4652,2.5387,2.5778,2.6542,2.7943,2.7798,2.808,2.9188,2.9035,2.9766,3.1647,3.1543,3.2436,3.4603,3.3895,3.3591,3.3848,3.2777,3.2065,3.168,3.1133,3.0918,3.0996,3.1846,3.2316,3.2628,3.4205,3.5326,3.6094,3.6094,3.6133,3.6269,3.707,3.7148,3.6968,3.7734,3.7461,3.6851,3.7168,3.7051,3.694,3.7722,3.8227,3.8557,3.896,3.9595,4.0185,4.0185,4.051,4.08,4.0897,4.0628,4.0464,4.0794,4.0296,3.9926,4.0567,4.0009,3.9343,3.9035,3.7929,3.6677,3.5564,3.6022,3.653,3.64,3.6344,3.6469,3.6849,3.556,0.0,3.4597,3.4308,3.3678,3.2588,3.2895,3.3087,3.2968,3.3867,3.4303,3.4164,3.5195,3.5453,3.4854,3.565,3.5893,3.5566,3.5879,3.5982,3.5982,3.604,3.6094,3.6079,3.6172,3.6157,3.6177,3.6601,3.6812,3.691,3.7226,3.7637,3.8008,3.8008,3.8242,3.8611,2.1906,2.1785,2.1835,2.24,2.3581,2.4297,2.3952,2.4736,2.5171,2.4461,2.601,2.7024,2.6593,2.7102,2.7763,2.8424,2.8664,2.9047,2.9657,3.0184,3.1077,3.2456,3.3277,3.4248,3.5375,3.5464,3.5379,3.5177,3.3526,3.2653,3.2539,3.1406,3.1074,3.1426,3.1964,3.298,3.4329,3.5291,3.6012,3.6597,3.6597,3.6758,3.7129,3.7617,3.7738,3.7773,3.8281,3.791,3.7207,3.7266,3.7246,3.7336,3.8122,3.8686,3.9056,3.9373,3.9842,4.0185,4.0185,4.0247,4.0427,4.0779,4.109,4.1297,4.1368,4.1416,4.1413,4.1202,4.0918,4.0344,3.9196,3.8378,3.7648,3.6861,3.7123,3.7618,3.8316,3.6998,3.6332,3.7332,3.5465,3.4347,3.4956,3.3637,3.2556,3.206,3.2093,3.2454,3.32,3.3564,3.4112,3.4891,3.5583,3.6014,3.6168,3.6319,3.6439,3.648,3.6152,3.5982,3.6001,3.6387,3.6597,3.6616,3.6914,3.707,3.707,3.7148,3.7402,3.7715,3.7793,3.8086,3.8457,3.8457,3.8552,3.8611,2.2472,2.2443,2.2611,2.3478,2.4423,2.5139,2.5349,2.6256,2.645,2.5049,2.6164,2.7047,2.6809,2.783,2.8752,2.9336,2.9541,2.99,3.0584,3.1548,3.2636,3.3828,3.4984,3.611,3.7117,3.6394,3.5913,3.5743,3.3752,3.2676,3.2472,3.1387,3.0996,3.123,3.1905,3.3137,3.4726,3.5375,3.6048,3.6714,3.6949,3.7109,3.7344,3.7773,3.7894,3.7952,3.8418,3.8337,3.7949,3.7949,3.7812,3.7802,3.8807,3.9269,3.9499,4.009,4.0409,4.0572,4.0572,4.0572,4.0649,4.109,4.1366,4.1579,4.1983,4.1778,4.1503,4.1481,4.105,4.0388,3.9594,3.8761,3.8177,3.8139,3.8169,3.8212,3.8318,3.7647,3.702,3.6714,3.5489,3.4628,3.4489,3.3786,3.3003,3.2232,3.2162,3.2466,3.3161,3.376,3.4375,3.5019,3.6226,3.6752,3.6395,3.7131,3.7197,3.6583,3.6451,3.6348,3.6367,3.6616,3.6832,3.7012,3.7207,3.7305,3.7324,3.7539,3.7871,3.8262,3.8262,3.8398,3.8611,3.8611,3.8611,3.8611,2.3213,2.349,2.3779,2.4813,2.5564,2.6154,2.6654,2.7344,2.727,2.5829,2.6383,2.7061,2.7321,2.8527,2.9585,3.0307,3.0438,3.0863,3.1725,3.2813,3.4017,3.5344,3.6294,3.7364,3.8574,3.707,3.6211,3.5982,3.4043,3.2785,3.2179,3.1416,3.1113,3.1328,3.2218,3.3508,3.5019,3.5469,3.6245,3.7144,3.7539,3.7754,3.7891,3.8223,3.834,3.8379,3.884,3.8994,3.9031,3.9104,3.8714,3.8341,3.9398,3.975,3.9966,4.0704,4.0918,4.0918,4.0918,4.0954,4.1096,4.1402,4.1615,4.1898,4.2476,4.1895,4.1327,4.161,4.0935,4.0167,3.9744,3.9185,3.8783,3.8878,3.8856,3.8673,3.8033,3.8033,3.752,3.6048,3.5495,3.4875,3.3785,3.3905,3.3562,3.2359,3.2477,3.2726,3.3076,3.3792,3.4365,3.4778,3.6375,3.6949,3.6314,3.7415,3.7625,3.6899,3.6784,3.6753,3.6851,3.6929,3.7109,3.7441,3.7519,3.7578,3.7598,3.793,3.8262,3.8611,3.8611,3.8611,3.8611,3.8611,3.8611,3.863,2.4374,2.4701,2.4986,2.6118,2.7064,2.7669,2.7742,2.7725,2.7617,2.739,2.8103,2.8817,2.9201,2.9681,3.033,3.1187,3.1609,3.2184,3.2968,3.3837,3.4987,3.6553,3.6738,3.7364,3.8574,3.7656,3.6797,3.5982,3.4629,3.3371,3.2179,3.168,3.1875,3.2656,3.3547,3.4648,3.5918,3.6367,3.7301,3.8474,3.8848,3.9277,3.9668,3.9707,3.9707,3.9744,4.0196,4.0308,4.0383,4.0755,4.0084,3.9152,3.957,3.993,4.0346,4.0775,4.0918,4.0918,4.0918,4.1188,4.1437,4.1473,4.1983,4.2511,4.2559,4.2102,4.1644,4.1699,4.0935,4.0006,3.9075,3.9658,3.9809,3.8342,3.8861,3.9175,3.8536,3.7834,3.7049,3.6179,3.5569,3.463,3.313,3.3336,3.3121,3.2043,3.2693,3.3123,3.3103,3.3185,3.3507,3.4078,3.5212,3.5987,3.64,3.6515,3.7125,3.8196,3.7198,3.691,3.7246,3.7637,3.7832,3.7891,3.8281,3.8493,3.8493,3.8532,3.8571,3.8611,3.8611,3.8611,3.8611,3.8611,3.8611,3.8669,2.542,2.5834,2.6243,2.7519,2.7896,2.8297,2.9106,2.8957,2.8783,2.8744,2.8627,2.8705,2.9095,2.995,3.0778,3.1356,3.2222,3.2968,3.3538,3.522,3.6364,3.6775,3.7722,3.8331,3.8574,3.7734,3.6875,3.5982,3.4961,3.3926,3.291,3.248,3.2734,3.3625,3.4505,3.5586,3.6836,3.7555,3.8262,3.8984,3.9434,3.9876,4.0259,4.0259,4.0409,4.0614,4.0801,4.0876,4.0876,4.1062,4.0747,4.0429,4.0796,4.0833,4.0791,4.1188,4.1125,4.0954,4.1167,4.1366,4.1615,4.2053,4.237,4.2651,4.2918,4.2295,4.1699,4.1699,4.0935,4.0278,4.0322,4.0103,3.9993,4.0091,4.0007,3.9689,3.9062,3.8605,3.7702,3.6048,3.5173,3.4243,3.3234,3.3587,3.3595,3.2814,3.2731,3.2831,3.3103,3.3098,3.3477,3.4285,3.542,3.6123,3.6395,3.7199,3.7746,3.8022,3.763,3.75,3.7676,3.7816,3.8066,3.832,3.8532,3.8611,3.8611,3.8611,3.8611,3.8611,3.8611,3.8767,3.8945,3.8945,3.9121,3.9394,2.6475,2.7159,2.7784,2.8837,2.898,2.9245,3.033,2.9912,2.9601,2.9849,2.9173,2.8822,2.9197,3.026,3.1155,3.1695,3.2826,3.3827,3.4456,3.644,3.7501,3.7346,3.8406,3.8828,3.8398,3.7793,3.707,3.6211,3.5449,3.4648,3.3789,3.3633,3.4082,3.5092,3.5801,3.6777,3.791,3.8652,3.9199,3.9629,4.0229,4.0558,4.0709,4.0974,4.1143,4.1331,4.1557,4.167,4.167,4.1782,4.182,4.1796,4.1559,4.1359,4.1218,4.1328,4.1238,4.1132,4.1402,4.165,4.1969,4.2476,4.2686,4.2826,4.3128,4.2529,4.183,4.1546,4.0956,4.0617,4.095,4.0571,4.0394,4.0851,4.0644,4.0096,3.9142,3.8883,3.8029,3.5947,3.4989,3.4104,3.3025,3.3516,3.3593,3.2829,3.2771,3.2944,3.3329,3.3269,3.3561,3.4315,3.5554,3.6267,3.6395,3.7568,3.8172,3.8151,3.7987,3.7952,3.8105,3.8105,3.8281,3.8611,3.8611,3.8611,3.8611,3.8611,3.8611,3.863,3.8747,3.8945,3.9219,3.9355,3.9609,3.9922,2.754,2.8829,2.9755,3.0014,3.0462,3.0901,3.1302,3.0299,2.981,3.0663,3.0043,2.964,3.0052,3.0879,3.1695,3.2413,3.3655,3.4867,3.5996,3.7285,3.8155,3.8574,3.8611,3.8379,3.7913,3.7894,3.75,3.6695,3.623,3.5547,3.4687,3.5156,3.6035,3.7266,3.7695,3.8379,3.9199,3.9687,4.0117,4.0547,4.144,4.1521,4.1269,4.2062,4.2139,4.1907,4.2677,4.2966,4.3042,4.3442,4.3556,4.3291,4.1543,4.1295,4.1519,4.1063,4.1188,4.1473,4.1508,4.2018,4.2581,4.2616,4.2918,4.3184,4.3219,4.2769,4.2136,4.1219,4.1,4.0847,4.0399,4.1077,4.123,3.9841,4.0377,4.0378,3.8538,3.8312,3.7649,3.59,3.5295,3.4212,3.221,3.2755,3.2726,3.1615,3.2804,3.3706,3.3959,3.3678,3.3646,3.401,3.5294,3.6131,3.6395,3.7198,3.8081,3.8959,3.8232,3.8144,3.8611,3.8611,3.8611,3.8611,3.8611,3.8611,3.8611,3.8611,3.8611,3.865,3.9023,3.9199,3.9258,3.9726,3.9883,3.9961,2.8674,2.9299,2.9791,3.0454,3.0701,3.0933,3.1356,3.1071,3.0817,3.0794,3.0817,3.0724,3.0585,3.0817,3.1654,3.3255,3.4261,3.5439,3.6901,3.7876,3.8465,3.8574,3.8611,3.8552,3.8379,3.8086,3.7656,3.709,3.6953,3.6738,3.6484,3.6914,3.75,3.8203,3.8945,3.957,4.0137,4.0586,4.084,4.1015,4.1559,4.1889,4.212,4.2907,4.3289,4.348,4.3729,4.3995,4.4201,4.405,4.4163,4.4201,4.3,4.2554,4.2324,4.1844,4.1775,4.1912,4.2194,4.2441,4.2686,4.2953,4.3093,4.3219,4.3219,4.2529,4.1743,4.1131,4.1,4.0847,4.0399,4.1077,4.1328,4.0268,4.0585,4.0475,3.8991,3.8247,3.7212,3.5556,3.4596,3.3508,3.2134,3.2691,3.2815,3.2023,3.3153,3.3812,3.3664,3.4153,3.4585,3.4871,3.5756,3.6476,3.7006,3.7543,3.8114,3.8721,3.8762,3.8867,3.8984,3.8747,3.8611,3.8611,3.8611,3.8611,3.8611,3.8611,3.8611,3.865,3.9043,3.9394,3.9726,4.0156,4.0508,4.0781,2.9487,2.9989,3.0338,3.074,3.0933,3.1125,3.1356,3.1279,3.1125,3.1048,3.1648,3.1993,3.1725,3.2221,3.2992,3.3897,3.4881,3.6053,3.7504,3.8222,3.8611,3.8611,3.8611,3.8532,3.834,3.8223,3.8047,3.7773,3.793,3.8105,3.8281,3.8535,3.8984,3.9608,4.0137,4.0527,4.0781,4.1093,4.1211,4.125,4.1811,4.2177,4.2485,4.331,4.3767,4.3974,4.3974,4.4239,4.4541,4.4277,4.4466,4.4677,4.3911,4.3461,4.3076,4.2297,4.2145,4.23,4.2546,4.2721,4.2883,4.3128,4.3219,4.3219,4.3219,4.2551,4.1874,4.159,4.1546,4.1393,4.0891,4.159,4.1874,4.0738,4.0956,4.0671,3.8991,3.8039,3.6914,3.5311,3.4268,3.3308,3.2419,3.2839,3.2974,3.2453,3.3781,3.446,3.4056,3.4604,3.5077,3.538,3.6229,3.6956,3.7519,3.8105,3.8535,3.8809,3.9258,3.9375,3.9199,3.8926,3.873,3.8611,3.8611,3.8611,3.863,3.875,3.8747,3.8689,3.9394,3.9785,3.9961,4.0547,4.0937,4.1211,2.9991,3.0763,3.1187,3.0879,3.1071,3.1302,3.1302,3.101,3.0933,3.1395,3.2452,3.3196,3.3234,3.4699,3.5293,3.4493,3.5592,3.6773,3.788,3.8359,3.8611,3.8611,3.8611,3.8379,3.7969,3.8398,3.8669,3.8708,3.9062,3.9492,3.9941,3.9941,4.0391,4.1211,4.1211,4.1211,4.1211,4.1211,4.1211,4.1288,4.2082,4.2408,4.2524,4.3348,4.3691,4.3729,4.3691,4.3957,4.4315,4.4277,4.4541,4.4795,4.4326,4.4136,4.3838,4.2479,4.2356,4.2651,4.2651,4.2918,4.3219,4.3219,4.3219,4.3219,4.3219,4.2748,4.2342,4.2386,4.2364,4.2223,4.1765,4.2507,4.2704,4.124,4.1371,4.0879,3.8591,3.7718,3.6755,3.5133,3.4278,3.358,3.3003,3.3195,3.3223,3.2902,3.4561,3.5433,3.498,3.509,3.534,3.5734,3.6823,3.7594,3.8044,3.8809,3.9238,3.9297,3.9707,3.9687,3.9297,3.9258,3.9043,3.8708,3.8669,3.865,3.8689,3.9004,3.8945,3.8787,3.9961,4.0234,4.0039,4.084,4.1191,4.1211,3.0531,3.0492,3.0492,3.074,3.057,3.04,3.04,3.0624,3.1048,3.1763,3.2375,3.2968,3.3575,3.5079,3.5984,3.5757,3.657,3.7501,3.8365,3.8552,3.8611,3.8611,3.8611,3.8571,3.8418,3.8828,3.9219,3.959,3.9687,3.9961,4.0371,4.0371,4.0664,4.1211,4.1211,4.1211,4.1211,4.1211,4.1211,4.1288,4.2082,4.2562,4.2966,4.3746,4.4428,4.4918,4.4617,4.4955,4.5518,4.5218,4.5368,4.5617,4.5162,4.5018,4.4735,4.34,4.3024,4.3058,4.3058,4.315,4.3219,4.3219,4.3219,4.3219,4.3219,4.2485,4.1961,4.2333,4.2114,4.183,4.1699,4.2507,4.2704,4.124,4.1087,4.0465,3.8429,3.7277,3.6122,3.4779,3.4309,3.3872,3.3275,3.3559,3.3765,3.3782,3.4204,3.4836,3.5618,3.6309,3.6897,3.7422,3.7957,3.8576,3.9346,3.9249,3.9531,4.0215,4.0,4.0,4.0157,3.9883,3.9668,3.957,3.9199,3.9062,3.9043,3.8809,3.8848,3.9082,3.9394,3.9863,4.0391,4.0605,4.0879,4.1211,3.0701,3.0415,3.0144,3.0198,2.9989,2.9834,2.9834,3.067,3.1478,3.1955,3.331,3.4331,3.4594,3.6261,3.7257,3.7053,3.7595,3.8135,3.8557,3.875,3.8769,3.8611,3.8965,3.9082,3.8867,3.9297,3.9746,4.0176,4.0391,4.0605,4.082,4.082,4.0957,4.1211,4.1211,4.1211,4.1211,4.1211,4.1327,4.1502,4.2159,4.2869,4.3615,4.4012,4.4692,4.533,4.4955,4.5218,4.5704,4.548,4.5667,4.5959,4.5718,4.5478,4.5179,4.4438,4.3894,4.3525,4.3525,4.3372,4.3219,4.3219,4.3219,4.3219,4.3219,4.2804,4.2442,4.2704,4.2551,4.2376,4.2376,4.2848,4.2704,4.124,4.0825,3.993,3.7767,3.6647,3.5676,3.458,3.4503,3.4463,3.4191,3.4771,3.512,3.4994,3.5675,3.6319,3.6749,3.7941,3.8485,3.8248,3.8613,3.9136,3.981,3.9796,4.0156,4.082,4.0586,4.0488,4.0469,4.0293,3.9961,3.957,3.9316,3.9101,3.8906,3.8887,3.9004,3.9238,3.9648,4.0098,4.0547,4.0742,4.0976,4.1211,3.0701,3.0376,2.9912,2.9562,2.9446,2.9446,2.9484,3.0693,3.1791,3.2222,3.4368,3.5829,3.5866,3.7521,3.8462,3.8126,3.8527,3.877,3.8691,3.9004,3.9062,3.8826,3.9492,3.9707,3.9316,3.9766,4.0195,4.0625,4.0996,4.1211,4.1211,4.1211,4.1211,4.1288,4.1288,4.1327,4.1366,4.1366,4.1579,4.1927,4.2331,4.3136,4.4146,4.4184,4.4692,4.5368,4.4993,4.5143,4.548,4.548,4.5704,4.6002,4.6002,4.5703,4.5302,4.5302,4.467,4.3916,4.3834,4.3477,4.3093,4.3023,4.3058,4.3093,4.3023,4.3014,4.3062,4.3163,4.3154,4.3097,4.3197,4.3119,4.2604,4.1194,4.0454,3.9246,3.701,3.6114,3.5402,3.4664,3.496,3.5299,3.5409,3.6205,3.6597,3.6397,3.7593,3.8261,3.8188,3.9485,3.9749,3.8788,3.9138,3.9523,3.9909,4.0385,4.0801,4.1211,4.1211,4.0976,4.0625,4.0625,4.0215,3.9492,3.9434,3.9199,3.8923,3.918,3.9336,3.9473,4.0118,4.0508,4.0664,4.0957,4.1152,4.1211,3.0778,3.0159,2.9562,2.9523,2.9212,2.9134,2.9446,3.0013,3.1117,3.3234,3.3916,3.4932,3.6923,3.7726,3.8215,3.8473,3.9232,3.9515,3.9141,3.916,3.9355,3.9668,3.9824,3.9863,3.9785,4.0215,4.0644,4.1074,4.1172,4.1211,4.1211,4.1211,4.1366,4.1695,4.1695,4.1889,4.2216,4.2216,4.2254,4.2331,4.2736,4.3233,4.3729,4.4071,4.4692,4.5405,4.533,4.5555,4.5928,4.5928,4.5965,4.6002,4.6002,4.5735,4.5372,4.5372,4.4783,4.3961,4.3508,4.3054,4.2616,4.2265,4.2441,4.2616,4.2265,4.214,4.2302,4.3062,4.2835,4.266,4.3132,4.2835,4.2127,4.0865,3.9642,3.8327,3.6812,3.6019,3.5528,3.5341,3.5887,3.6333,3.6465,3.6631,3.7073,3.8058,3.7674,3.8122,3.98,3.9829,3.987,3.9999,4.0105,4.021,4.0308,4.0817,4.1152,4.1211,4.1211,4.1172,4.1074,4.1074,4.1035,4.0878,4.0469,4.0235,4.0195,3.9902,4.0,4.0293,4.0078,4.043,4.1035,4.0742,4.0859,4.1211,3.0415,2.9756,2.9251,2.9446,2.9368,2.9368,2.9756,3.0732,3.1922,3.331,3.4618,3.5949,3.7297,3.8198,3.8747,3.8952,3.9564,3.9909,3.9884,3.9922,3.9902,3.9902,4.0332,4.0586,4.0586,4.0781,4.0976,4.1211,4.1211,4.1211,4.1211,4.1211,4.1288,4.1483,4.1695,4.1889,4.2082,4.2293,4.2524,4.2736,4.2927,4.3386,4.3995,4.4352,4.488,4.5443,4.5667,4.5853,4.6002,4.6002,4.6002,4.5965,4.5742,4.5555,4.5368,4.5143,4.4294,4.3362,4.31,4.2526,4.1952,4.1773,4.188,4.1924,4.1494,4.139,4.1482,4.187,4.2093,4.2148,4.1975,4.1914,4.1443,4.0164,3.8669,3.7389,3.6695,3.5822,3.5448,3.5901,3.6507,3.7029,3.7305,3.7594,3.7959,3.8514,3.8375,3.8699,3.9642,3.9956,4.0149,4.0351,4.0354,4.027,4.0127,4.0858,4.1211,4.1211,4.1211,4.1211,4.1211,4.1211,4.1035,4.0801,4.0371,4.0195,4.0137,3.9453,3.9707,4.045,4.0059,4.041,4.1191,4.0957,4.0996,4.1211,3.026,2.9679,2.9275,2.9601,2.964,2.9795,3.0222,3.1577,3.2892,3.3657,3.5548,3.7107,3.7991,3.8823,3.9376,3.9546,3.9855,4.0221,4.0626,4.0684,4.0527,4.0215,4.082,4.1211,4.1211,4.1211,4.1211,4.1211,4.1211,4.1211,4.1211,4.1211,4.1268,4.148,4.1768,4.1959,4.205,4.2373,4.2639,4.285,4.285,4.3253,4.392,4.4341,4.4801,4.5309,4.5686,4.5841,4.5853,4.5742,4.5704,4.5667,4.5256,4.5106,4.5068,4.4767,4.3651,4.2537,4.2548,4.2016,4.1487,4.1275,4.1373,4.1363,4.0756,4.0786,4.0899,4.0903,4.1345,4.1594,4.1025,4.1004,4.0682,3.9371,3.7952,3.6946,3.6725,3.6099,3.5987,3.6938,3.756,3.8027,3.8465,3.8764,3.8921,3.8877,3.9169,3.9311,3.9321,4.0001,4.0355,4.0281,4.046,4.0375,4.0033,4.0819,4.1211,4.1211,4.1211,4.1211,4.1211,4.1211,4.0996,4.0664,4.0332,4.0195,4.0137,3.9355,3.9609,4.0488,4.0176,4.0449,4.1035,4.1172,4.1211,4.1211,3.074,3.0338,3.0013,3.0052,3.0052,3.0222,3.0663,3.1785,3.3297,3.5181,3.624,3.7558,3.9484,3.9487,3.9623,4.0373,4.0431,4.0665,4.1094,4.1172,4.1152,4.1113,4.1172,4.1211,4.1211,4.1211,4.1211,4.1211,4.1211,4.1211,4.1211,4.1211,4.1574,4.2241,4.2258,4.2446,4.2721,4.2758,4.2611,4.2352,4.2352,4.26,4.3044,4.3368,4.406,4.4891,4.5227,4.5372,4.5405,4.4993,4.488,4.4805,4.4428,4.4277,4.4277,4.4239,4.3053,4.1754,4.1722,4.1637,4.142,4.0662,4.1032,4.1261,4.006,4.0363,4.0909,4.0894,4.0954,4.0954,4.0918,4.0524,3.9803,3.8676,3.8013,3.7509,3.7106,3.7388,3.8021,3.9225,3.9439,3.9741,4.0246,3.9991,3.9778,3.9716,3.9733,3.9738,3.9662,4.0134,4.0255,3.9957,4.0652,4.0823,4.0389,4.0915,4.1211,4.1211,4.1211,4.1211,4.1211,4.1211,4.1191,4.1172,4.1132,4.1113,4.1093,4.0566,4.043,4.0527,4.0488,4.0527,4.0625,4.1035,4.1211,4.1211,3.0886,3.0415,3.0168,3.0492,3.1171,3.1807,3.2222,3.3293,3.4641,3.6128,3.7083,3.8084,3.9373,3.9852,4.0161,4.0469,4.0489,4.0703,4.1191,4.1211,4.1211,4.1211,4.1211,4.1211,4.1211,4.1211,4.1211,4.1211,4.1211,4.1035,4.0781,4.1577,4.1759,4.1528,4.2562,4.2811,4.2433,4.269,4.2601,4.2285,4.2285,4.2389,4.2534,4.2663,4.2957,4.3304,4.3689,4.3673,4.3468,4.36,4.3452,4.3192,4.2783,4.2819,4.2995,4.2749,4.2249,4.1705,4.1451,4.1155,4.0841,4.0549,4.0666,4.0722,3.9996,3.9852,3.9861,3.9828,4.0024,4.0002,3.9534,3.9459,3.9268,3.864,3.7707,3.7297,3.7883,3.7898,3.8232,3.9167,3.957,3.9858,4.0028,3.9951,3.9899,3.9873,3.9873,3.9869,3.984,4.0007,4.0151,4.0273,4.0582,4.0541,4.0071,4.0819,4.1211,4.1211,4.1211,4.1211,4.1211,4.1211,4.1055,4.0783,4.0763,4.0607,4.0356,3.9886,3.9883,4.0098,3.9824,4.0039,4.0508,4.0703,4.0937,4.1211,3.2212,3.1862,3.1731,3.2069,3.28,3.3445,3.3727,3.4764,3.5918,3.6864,3.784,3.8728,3.941,3.9985,4.0333,4.0469,4.0489,4.0703,4.1191,4.1211,4.1211,4.1211,4.1211,4.1211,4.1211,4.1211,4.1211,4.1211,4.1211,4.1093,4.0915,4.1802,4.1956,4.1599,4.2747,4.2889,4.2324,4.2324,4.1996,4.1485,4.1595,4.1604,4.1543,4.1911,4.2235,4.2506,4.28,4.2633,4.2338,4.2449,4.2265,4.1859,4.1451,4.158,4.1887,4.1666,4.1555,4.1517,4.1288,4.0957,4.0684,4.0566,4.0625,4.0586,4.0019,3.9746,3.957,3.9453,3.9468,3.9371,3.8879,3.8853,3.8831,3.8448,3.7896,3.7794,3.8549,3.8786,3.9176,4.0013,4.0164,4.0253,4.0392,4.0203,4.0039,3.9902,4.0019,4.0098,4.0098,4.0098,4.0234,4.0469,4.0644,4.0527,4.0098,4.082,4.1211,4.1211,4.1211,4.1211,4.1211,4.1211,4.0919,4.049,4.0511,4.0278,3.9855,3.9383,3.9394,3.9648,3.9336,3.9668,4.0332,4.043,4.0801,4.1211,3.5007,3.5007,3.5007,3.5007,3.5007,3.5007,3.5007,3.6034,3.6961,3.7352,3.8456,3.9375,3.9844,3.9883,4.0059,4.045,4.0527,4.0703,4.1191,4.1211,4.1211,4.1211,4.1211,4.1211,4.1211,4.1211,4.1211,4.1211,4.1211,4.1385,4.1792,4.1757,4.2106,4.28,4.2716,4.2678,4.2546,4.1735,4.074,3.9714,4.013,4.0085,3.9917,4.1052,4.2033,4.2853,4.2795,4.2559,4.2212,4.1822,4.1414,4.1005,4.0614,4.0764,4.1105,4.1093,4.1118,4.1083,4.1171,4.1211,4.1074,4.0644,4.0859,4.0957,4.0098,4.0234,4.041,3.998,3.9531,3.9199,3.9199,3.8867,3.8474,3.8008,3.8646,3.9181,3.9095,4.0216,4.1314,4.2207,4.1583,4.126,4.1646,4.0966,4.0351,3.9922,4.0293,4.0489,4.0489,4.0489,4.0489,4.0489,4.0937,4.0957,4.0489,4.0957,4.1211,4.1211,4.1211,4.1211,4.1211,4.1211,4.0919,4.049,4.0511,4.0297,3.9855,3.9421,3.9199,3.9199,3.9199,3.9492,3.9941,4.0371,4.0801,4.1211,3.5103,3.5007,3.5007,3.5007,3.5699,3.6256,3.6256,3.7291,3.8198,3.8622,3.8977,3.9258,3.9394,3.9414,3.959,4.0039,4.0078,4.0391,4.1172,4.1211,4.1211,4.1211,4.1211,4.1211,4.1211,4.1211,4.1327,4.1618,4.1889,4.194,4.1755,4.286,4.3015,4.2333,4.2892,4.2336,4.0948,4.0433,3.9389,3.8097,3.8226,3.8211,3.8217,3.9059,3.9413,3.9549,4.0351,4.0226,3.9735,3.9881,3.9699,3.9372,3.9539,3.9655,3.9886,4.0483,4.0503,4.0386,4.1015,4.0957,4.0762,4.0937,4.1113,4.1152,4.0878,4.0644,4.0488,4.0371,4.0,3.9687,3.9687,3.9794,3.9781,3.931,3.9974,4.0398,4.0013,4.0829,4.1596,4.1793,4.16,4.14,4.1318,4.1054,4.0774,4.0351,4.0742,4.0976,4.0976,4.0684,4.0664,4.0976,4.0801,4.0801,4.0976,4.1152,4.1211,4.1211,4.1211,4.1211,4.1211,4.1211,4.0919,4.0509,4.086,4.0569,3.9913,4.0044,3.9766,3.9199,3.9199,3.9492,3.9902,4.0039,4.0547,4.1211,3.6516,3.6423,3.6423,3.6423,3.7033,3.7511,3.7511,3.8117,3.8708,3.8926,3.8945,3.8945,3.8945,3.8945,3.9219,3.9844,4.0215,4.0625,4.1172,4.1211,4.1211,4.1211,4.1211,4.1211,4.1211,4.1211,4.1405,4.1811,4.2043,4.2172,4.2234,4.2845,4.259,4.172,4.1969,4.1322,4.0028,3.9442,3.8599,3.7577,3.7408,3.7203,3.7054,3.8294,3.8662,3.8625,3.9612,3.9596,3.9101,3.9162,3.8921,3.865,3.8867,3.9062,3.9336,4.0059,4.0215,4.0254,4.0781,4.084,4.0801,4.0898,4.1035,4.1211,4.1211,4.0976,4.0781,4.0781,4.0449,4.0175,4.0364,4.0302,4.0273,4.0293,4.077,4.1006,4.0605,4.1518,4.2093,4.1897,4.1752,4.1546,4.136,4.1041,4.081,4.08,4.1035,4.1211,4.1211,4.0918,4.0898,4.1211,4.0918,4.0898,4.1211,4.1211,4.1211,4.1211,4.1211,4.1211,4.1211,4.1211,4.0919,4.0529,4.0783,4.053,3.9913,4.0141,3.9961,3.9473,3.9473,3.9746,4.0156,4.0156,4.0586,4.1211,3.8611,3.8611,3.8611,3.8611,3.8611,3.8611,3.8611,3.865,3.865,3.8611,3.865,3.865,3.8611,3.865,3.9002,3.9824,4.0722,4.1211,4.1211,4.1211,4.1211,4.1211,4.1211,4.1211,4.1211,4.1211,4.1405,4.1811,4.181,4.2196,4.2907,4.1949,4.1336,4.1019,4.0315,3.9764,3.9343,3.8632,3.7988,3.7495,3.7181,3.6618,3.6204,3.8231,3.8975,3.9088,4.0011,4.0104,3.9677,3.9278,3.8921,3.8611,3.8611,3.8867,3.9297,3.9766,4.0137,4.0391,4.0547,4.082,4.0996,4.0703,4.0937,4.125,4.123,4.1211,4.1211,4.1211,4.0859,4.0701,4.1102,4.0596,4.0357,4.1085,4.1255,4.1262,4.1126,4.2192,4.2807,4.241,4.1994,4.1772,4.1776,4.0973,4.0671,4.123,4.1211,4.1211,4.1211,4.1211,4.1211,4.1211,4.1211,4.1211,4.1211,4.1211,4.1211,4.1211,4.1211,4.1211,4.1211,4.1211,4.0958,4.0568,4.055,4.0336,4.0048,4.0004,3.998,3.9961,3.9961,4.0195,4.0489,4.0489,4.0801,4.1211,3.8611,3.8611,3.8611,3.8611,3.8611,3.8611,3.8611,3.8848,3.8945,3.865,3.8867,3.8945,3.865,3.8867,3.9297,3.9844,4.0722,4.1211,4.1211,4.1211,4.1211,4.1211,4.1211,4.1211,4.1211,4.1211,4.1405,4.1811,4.176,4.199,4.2503,4.1231,4.0606,4.0477,3.9058,3.7864,3.6942,3.677,3.5919,3.4685,3.4932,3.4731,3.4545,3.6534,3.7334,3.754,3.931,3.9662,3.9251,3.8877,3.8683,3.8611,3.8611,3.8867,3.9297,3.9766,3.9707,3.9707,4.0762,4.0605,4.0391,4.1289,4.1582,4.1582,4.1289,4.1211,4.1211,4.1211,4.1132,4.119,4.1557,4.1785,4.1911,4.2003,4.2587,4.281,4.2117,4.2853,4.3284,4.2828,4.2402,4.2192,4.2263,4.1472,4.116,4.1617,4.1366,4.1211,4.1211,4.1211,4.1211,4.1211,4.1211,4.1211,4.1211,4.1211,4.1211,4.1211,4.1211,4.1211,4.1211,4.1211,4.1133,4.1036,4.1035,4.0996,4.0899,4.0937,4.0703,4.0391,4.0391,4.0411,4.0489,4.0489,4.0801,4.1211,3.8611,3.8611,3.8611,3.8611,3.8611,3.8611,3.8611,3.8769,3.8828,3.865,3.8769,3.8828,3.863,3.8945,3.9473,4.0137,4.0801,4.1211,4.1211,4.1211,4.1211,4.1211,4.1211,4.1211,4.1211,4.1405,4.1579,4.1811,4.1546,4.1737,4.235,4.046,3.9488,3.922,3.7559,3.6345,3.5648,3.564,3.5155,3.4368,3.4192,3.3856,3.3689,3.5111,3.5774,3.6232,3.8012,3.8904,3.916,3.8945,3.8867,3.8828,3.8669,3.8867,3.9297,3.9766,3.9863,3.998,4.0684,4.084,4.0918,4.1387,4.1797,4.1992,4.1562,4.1465,4.1406,4.125,4.1211,4.1366,4.2005,4.212,4.2309,4.2829,4.3166,4.3139,4.2625,4.318,4.3449,4.2973,4.2518,4.2241,4.2041,4.1643,4.1488,4.1772,4.1444,4.1211,4.1211,4.1211,4.1211,4.1211,4.1211,4.1211,4.1211,4.1211,4.1211,4.1211,4.1211,4.1211,4.1211,4.1211,4.1211,4.1211,4.1211,4.1327,4.1483,4.1483,4.1345,4.1128,4.1128,4.1013,4.084,4.084,4.0976,4.1211,3.8611,3.8611,3.8611,3.8611,3.8611,3.8611,3.8611,3.8669,3.8689,3.863,3.8669,3.8689,3.8611,3.9023,3.9668,4.0547,4.0976,4.1211,4.1211,4.1211,4.1211,4.1211,4.1211,4.1211,4.1211,4.1502,4.1695,4.1695,4.1298,4.1413,4.1926,3.9503,3.816,3.7699,3.606,3.5102,3.4814,3.4865,3.4903,3.4852,3.4311,3.3928,3.3702,3.4578,3.5093,3.5602,3.7136,3.8396,3.9316,3.9238,3.9258,3.9238,3.8809,3.9023,3.9492,3.9805,4.0195,4.0508,4.0605,4.1152,4.1641,4.1445,4.1973,4.2441,4.2109,4.1914,4.168,4.1289,4.125,4.1502,4.2254,4.2177,4.2351,4.3424,4.331,4.3072,4.3022,4.3366,4.3449,4.2973,4.26,4.2262,4.187,4.1887,4.197,4.2023,4.1618,4.1366,4.1327,4.1288,4.1288,4.1211,4.1094,4.1132,4.1211,4.1132,4.1094,4.1211,4.1211,4.1211,4.1211,4.1211,4.125,4.1288,4.1288,4.1502,4.1889,4.1889,4.185,4.1811,4.1811,4.154,4.1211,4.1211,4.1211,4.1211,3.8611,3.8611,3.8611,3.8611,3.8611,3.8611,3.8611,3.8887,3.8984,3.865,3.8887,3.8984,3.865,3.9316,4.0156,4.1054,4.1172,4.1211,4.1211,4.1211,4.1211,4.1211,4.1211,4.1211,4.1211,4.125,4.1288,4.1288,4.1145,4.0799,4.0197,3.8063,3.6818,3.6374,3.4748,3.4019,3.3977,3.4337,3.447,3.453,3.5131,3.5308,3.541,3.6553,3.6831,3.6789,3.8377,3.9318,3.9746,3.9336,3.9473,3.9726,3.9258,3.9687,4.0293,3.998,4.0195,4.0605,4.0976,4.1172,4.1465,4.209,4.2617,4.2969,4.293,4.2324,4.168,4.1289,4.1483,4.185,4.2331,4.2659,4.3004,4.3539,4.3539,4.3518,4.3532,4.3573,4.3449,4.2973,4.287,4.2791,4.2716,4.2771,4.2828,4.2851,4.2467,4.2082,4.1734,4.1734,4.154,4.1211,4.0801,4.0781,4.1211,4.0801,4.0801,4.1211,4.1211,4.1211,4.1211,4.1211,4.1405,4.1734,4.1734,4.1966,4.2331,4.2331,4.21,4.1811,4.1811,4.154,4.1211,4.1211,4.1211,4.1211,3.8611,3.8611,3.8611,3.8611,3.8611,3.8611,3.8611,3.873,3.8789,3.863,3.873,3.8826,3.863,3.9141,3.9961,4.1113,4.0957,4.0918,4.1191,4.1211,4.1211,4.1211,4.1211,4.1211,4.1211,4.1444,4.1211,4.047,4.0164,3.997,3.9844,3.7316,3.6149,3.6142,3.4505,3.3799,3.3854,3.4446,3.4743,3.4799,3.5617,3.5961,3.6027,3.6348,3.646,3.6699,3.8044,3.8964,3.9473,3.9277,3.9484,3.9788,3.9335,3.963,4.0105,4.0164,4.0327,4.0625,4.1055,4.1523,4.1973,4.2304,4.293,4.3359,4.3166,4.2598,4.2031,4.1621,4.1856,4.2206,4.2392,4.2736,4.3119,4.3539,4.3615,4.3615,4.3615,4.3615,4.3346,4.2642,4.2994,4.3097,4.26,4.2823,4.3004,4.3004,4.2621,4.2331,4.2139,4.2159,4.1966,4.156,4.1088,4.0953,4.1211,4.0742,4.0742,4.1211,4.1211,4.1211,4.1211,4.1444,4.1618,4.1811,4.2043,4.2351,4.2736,4.2485,4.2293,4.21,4.1889,4.154,4.1211,4.1211,4.1211,4.1211]},{"header":{"parameterUnit":"m.s-1","parameterCategory":1,"la1":30.6,"la2":28.766,"lo1":-90.7593,"lo2":-88.6598,"dy":0.0162,"dx":0.0183,"nx":116,"ny":114,"refTime":"2023-05-25T18:00:00:Z","depth":0,"parameterNumber":3,"parameterNumberName":"V-component_of_WINDS"},"data":[0.0,0.0,0.0,0.0,0.0,0.0,0.0,0.0,0.0,0.0,0.0,0.0,0.0,0.0,0.0,0.0,0.0,0.0,0.0,0.0,0.0,0.0,0.0,0.0,0.0,0.0,0.0,0.0,0.0,0.0,0.0,0.0,0.0,0.0,0.0,0.0,0.0,0.0,0.0,0.0,0.0,0.0,0.0,0.0,0.0,0.0,0.0,0.0,0.0,0.0,0.0,0.0,0.0,0.0,0.0,0.0,0.0,0.0,0.0,0.0,0.0,0.0,0.0,0.0,0.0,0.0,0.0,0.0,0.0,0.0,0.0,0.0,0.0,0.0,0.0,0.0,0.0,0.0,0.0,0.0,0.0,0.0,0.0,0.0,0.0,0.0,0.0,0.0,0.0,0.0,0.0,0.0,0.0,0.0,0.0,0.0,0.0,0.0,0.0,0.0,0.0,0.0,0.0,0.0,0.0,0.0,0.0,0.0,0.0,0.0,0.0,0.0,0.0,0.0,0.0,0.0,0.0,0.0,0.0,0.0,0.0,0.0,0.0,0.0,0.0,0.0,0.0,0.0,0.0,0.0,0.0,0.0,0.0,0.0,0.0,0.0,0.0,0.0,0.0,0.0,0.0,0.0,0.0,0.0,0.0,0.0,0.0,0.0,0.0,0.0,0.0,0.0,0.0,0.0,0.0,0.0,0.0,0.0,0.0,0.0,0.0,0.0,0.0,0.0,0.0,0.0,0.0,0.0,0.0,0.0,0.0,0.0,0.0,0.0,0.0,0.0,0.0,0.0,0.0,0.0,0.0,0.0,0.0,0.0,0.0,0.0,0.0,0.0,0.0,0.0,0.0,0.0,0.0,0.0,0.0,0.0,0.0,0.0,0.0,0.0,0.0,0.0,0.0,0.0,0.0,0.0,0.0,0.0,0.0,0.0,0.0,0.0,0.0,0.0,0.0,0.0,0.0,0.0,0.0,0.0,0.0,0.0,0.0,0.0,0.0,0.0,0.0,0.0,0.0,0.0,0.0,0.0,0.0,0.0,0.0,0.0,0.0,0.0,0.0,0.0,0.0,0.0,0.0,0.0,0.0,0.0,0.0,0.0,0.0,0.0,0.0,0.0,0.0,0.0,0.0,0.0,0.0,0.0,0.0,0.0,0.0,0.0,0.0,0.0,0.0,0.0,0.0,0.0,0.0,0.0,0.0,0.0,0.0,0.0,0.0,0.0,0.0,0.0,0.0,0.0,0.0,0.0,0.0,0.0,0.0,0.0,0.0,0.0,0.0,0.0,0.0,0.0,0.0,0.0,0.0,0.0,0.0,0.0,0.0,0.0,0.0,0.0,0.0,0.0,0.0,0.0,0.0,0.0,0.0,0.0,0.0,0.0,0.0,0.0,0.0,0.0,0.0,0.0,0.0,0.0,0.0,0.0,0.0,0.0,0.0,0.0,0.0,0.0,0.0,0.0,0.0,0.0,0.0,0.0,0.0,0.0,0.0,0.0,0.0,0.0,0.0,0.0,0.0,0.0,0.0,0.0,0.0,0.0,0.0,0.0,0.0,0.0,0.0,0.0,0.0,0.0,0.0,0.0,0.0,0.0,0.0,0.0,0.0,0.0,0.0,0.0,0.0,0.0,0.0,0.0,0.0,0.0,0.0,0.0,0.0,0.0,0.0,0.0,0.0,0.0,0.0,0.0,0.0,0.0,0.0,0.0,0.0,0.0,0.0,0.0,0.0,0.0,0.0,0.0,0.0,0.0,0.0,0.0,0.0,0.0,0.0,0.0,0.0,0.0,0.0,0.0,0.0,0.0,0.0,0.0,0.0,0.0,0.0,0.0,0.0,0.0,0.0,0.0,0.0,0.0,0.0,0.0,0.0,0.0,0.0,0.0,0.0,0.0,0.0,0.0,0.0,0.0,0.0,0.0,0.0,0.0,0.0,0.0,0.0,0.0,0.0,0.0,0.0,0.0,0.0,0.0,0.0,0.0,0.0,0.0,0.0,0.0,0.0,0.0,0.0,0.0,0.0,0.0,0.0,0.0,0.0,0.0,0.0,0.0,0.0,0.0,0.0,0.0,0.0,0.0,0.0,0.0,0.0,0.0,0.0,0.0,0.0,0.0,0.0,0.0,0.0,0.0,0.0,0.0,0.0,0.0,0.0,0.0,0.0,0.0,0.0,0.0,0.0,0.0,0.0,0.0,0.0,0.0,0.0,0.0,0.0,0.0,0.0,0.0,0.0,0.0,0.0,0.0,0.0,0.0,0.0,0.0,0.0,0.0,0.0,0.0,0.0,0.0,0.0,0.0,0.0,0.0,0.0,0.0,0.0,0.0,0.0,0.0,0.0,0.0,0.0,0.0,0.0,0.0,0.0,0.0,0.0,0.0,0.0,0.0,0.0,0.0,0.0,0.0,0.0,0.0,0.0,0.0,0.0,0.0,0.0,0.0,0.0,0.0,0.0,0.0,0.0,0.0,0.0,0.0,0.0,0.0,0.0,0.0,0.0,0.0,0.0,0.0,0.0,0.0,0.0,0.0,0.0,0.0,0.0,0.0,0.0,0.0,0.0,0.0,0.0,0.0,0.0,0.0,0.0,0.0,0.0,0.0,0.0,0.0,0.0,0.0,0.0,0.0,0.0,0.0,0.0,0.0,0.0,0.0,0.0,0.0,0.0,0.0,0.0,0.0,0.0,0.0,0.0,0.0,0.0,0.0,0.0,0.0,0.0,0.0,0.0,0.0,0.0,0.0,0.0,0.0,0.0,0.0,0.0,0.0,0.0,0.0,0.0,0.0,0.0,0.0,0.0,0.0,0.0,0.0,0.0,0.0,0.0,0.0,0.0,0.0,0.0,0.0,0.0,0.0,0.0,0.0,0.0,0.0,0.0,0.0,0.0,0.0,0.0,0.0,0.0,0.0,0.0,0.0,0.0,0.0,0.0,0.0,0.0,0.0,0.0,0.0,0.0,0.0,0.0,0.0,0.0,0.0,0.0,0.0,0.0,0.0,0.0,0.0,0.0,0.0,0.0,0.0,0.0,0.0,0.0,0.0,0.0,0.0,0.0,0.0,0.0,0.0,0.0,0.0,0.0,0.0,0.0,0.0,0.0,0.0,0.0,0.0,0.0,0.0,0.0,0.0,0.0,0.0,0.0,0.0,0.0,0.0,0.0,0.0,0.0,0.0,0.0,0.0,0.0,0.0,0.0,0.0,0.0,0.0,0.0,0.0,0.0,0.0,0.0,0.0,0.0,0.0,0.0,0.0,0.0,0.0,0.0,0.0,0.0,0.0,0.0,0.0,0.0,0.0,0.0,0.0,0.0,0.0,0.0,0.0,0.0,0.0,0.0,0.0,0.0,0.0,0.0,0.0,0.0,0.0,0.0,0.0,0.0,0.0,0.0,0.0,0.0,0.0,0.0,0.0,0.0,0.0,0.0,0.0,0.0,0.0,0.0,0.0,0.0,0.0,0.0,0.0,0.0,0.0,0.0,0.0,0.0,0.0,0.0,0.0,0.0,0.0,0.0,0.0,0.0,0.0,0.0,0.0,0.0,0.0,0.0,0.0,0.0,0.0,0.0,0.0,0.0,0.0,0.0,0.0,0.0,0.0,0.0,0.0,0.0,0.0,0.0,0.0,0.0,0.0,0.0,0.0,0.0,0.0,0.0,0.0,0.0,0.0,0.0,0.0,0.0,0.0,0.0,0.0,0.0,0.0,0.0,0.0,0.0,0.0,0.0,0.0,0.0,0.0,0.0,0.0,0.0,0.0,0.0,0.0,0.0,0.0,0.0,0.0,0.0,0.0,0.0,0.0,0.0,0.0,0.0,0.0,0.0,0.0,0.0,0.0,0.0,0.0,0.0,0.0,0.0,0.0,0.0,0.0,0.0,0.0,0.0,0.0,0.0,0.0,0.0,0.0,0.0,0.0,0.0,0.0,0.0,0.0,0.0,0.0,0.0,0.0,0.0,0.0,0.0,0.0,0.0,0.0,0.0,0.0,0.0,0.0,0.0,0.0,0.0,0.0,0.0,0.0,0.0,0.0,0.0,0.0,0.0,0.0,0.0,0.0,0.0,0.0,0.0,0.0,0.0,0.0,0.0,0.0,0.0,0.0,0.0,0.0,0.0,0.0,0.0,0.0,0.0,0.0,0.0,0.0,0.0,0.0,0.0,0.0,0.0,0.0,0.0,0.0,0.0,0.0,0.0,0.0,0.0,0.0,0.0,0.0,0.0,0.0,0.0,0.0,0.0,0.0,0.0,0.0,0.0,0.0,0.0,0.0,0.0,0.0,0.0,0.0,0.0,0.0,0.0,0.0,0.0,0.0,0.0,0.0,0.0,0.0,0.0,0.0,0.0,0.0,0.0,0.0,0.0,0.0,0.0,0.0,0.0,0.0,0.0,0.0,0.0,0.0,0.0,0.0,0.0,0.0,0.0,0.0,0.0,0.0,0.0,0.0,0.0,0.0,0.0,0.0,0.0,0.0,0.0,0.0,0.0,0.0,0.0,0.0,0.0,0.0,0.0,0.0,0.0,0.0,0.0,0.0,0.0,0.0,0.0,0.0,0.0,0.0,0.0,0.0,0.0,0.0,0.0,0.0,0.0,0.0,0.0,0.0,0.0,0.0,0.0,0.0,0.0,0.0,0.0,0.0,0.0,0.0,0.0,0.0,0.0,0.0,0.0,0.0,0.0,0.0,0.0,0.0,0.0,0.0,0.0,0.0,0.0,0.0,0.0,0.0,0.0,0.0,0.0,0.0,0.0,0.0,0.0,0.0,0.0,0.0,0.0,0.0,0.0,0.0,0.0,0.0,0.0,0.0,0.0,0.0,0.0,0.0,0.0,0.0,0.0,0.0,0.0,0.0,0.0,0.0,0.0,0.0,0.0,0.0,0.0,0.0,0.0,0.0,0.0,0.0,0.0,0.0,0.0,0.0,0.0,0.0,0.0,0.0,0.0,0.0,0.0,0.0,0.0,0.0,0.0,0.0,0.0,0.0,0.0,0.0,0.0,0.0,0.0,0.0,0.0,0.0,0.0,0.0,0.0,0.0,0.0,0.0,0.0,0.0,0.0,0.0,0.0,0.0,0.0,0.0,0.0,0.0,0.0,0.0,0.0,0.0,0.0,0.0,0.0,0.0,0.0,0.0,0.0,0.0,0.0,0.0,0.0,0.0,0.0,0.0,0.0,0.0,0.0,0.0,0.0,0.0,0.0,0.0,0.0,0.0,0.0,0.0,0.0,0.0,0.0,0.0,0.0,0.0,0.0,0.0,0.0,0.0,0.0,0.0,0.0,0.0,0.0,0.0,0.0,0.0,0.0,0.0,0.0,0.0,0.0,0.0,0.0,0.0,0.0,0.0,0.0,0.0,0.0,0.0,0.0,0.0,0.0,0.0,0.0,0.0,0.0,0.0,0.0,0.0,0.0,0.0,0.0,0.0,0.0,0.0,0.0,0.0,0.0,0.0,0.0,0.0,0.0,0.0,0.0,0.0,0.0,0.0,0.0,0.0,0.0,0.0,0.0,0.0,0.0,0.0,0.0,0.0,0.0,0.0,0.0,0.0,0.0,0.0,0.0,0.0,0.0,0.0,0.0,0.0,0.0,0.0,0.0,0.0,0.0,0.0,0.0,0.0,0.0,0.0,0.0,0.0,0.0,0.0,0.0,0.0,0.0,0.0,0.0,0.0,0.0,0.0,0.0,0.0,0.0,0.0,0.0,0.0,0.0,0.0,0.0,0.0,0.0,0.0,0.0,0.0,0.0,0.0,0.0,0.0,0.0,0.0,0.0,0.0,0.0,0.0,0.0,0.0,0.0,0.0,0.0,0.0,0.0,0.0,0.0,0.0,0.0,0.0,0.0,0.0,0.0,0.0,0.0,0.0,0.0,0.0,0.0,0.0,0.0,0.0,0.0,0.0,0.0,0.0,0.0,0.0,0.0,0.0,0.0,0.0,0.0,0.0,0.0,0.0,0.0,0.0,0.0,0.0,0.0,0.0,0.0,0.0,0.0,0.0,0.0,0.0,0.0,0.0,0.0,0.0,0.0,0.0,0.0,0.0,0.0,0.0,0.0,0.0,0.0,0.0,0.0,0.0,0.0,0.0,0.0,0.0,3.8998,3.8564,0.0,0.0,0.0,0.0,0.0,0.0,0.0,0.0,0.0,0.0,0.0,0.0,0.0,0.0,0.0,0.0,0.0,0.0,0.0,0.0,0.0,0.0,0.0,0.0,0.0,0.0,0.0,0.0,0.0,0.0,0.0,0.0,0.0,0.0,0.0,0.0,0.0,2.8391,2.8583,2.8999,2.9673,3.0685,3.1277,3.1455,0.0,0.0,0.0,0.0,0.0,0.0,0.0,0.0,0.0,0.0,0.0,0.0,0.0,0.0,0.0,0.0,0.0,0.0,0.0,0.0,0.0,0.0,0.0,0.0,0.0,0.0,0.0,0.0,0.0,0.0,0.0,0.0,0.0,0.0,0.0,0.0,0.0,0.0,0.0,0.0,0.0,0.0,0.0,0.0,0.0,0.0,0.0,0.0,0.0,0.0,0.0,0.0,0.0,0.0,0.0,0.0,0.0,0.0,0.0,0.0,0.0,0.0,0.0,0.0,0.0,0.0,0.0,0.0,0.0,0.0,4.135,4.0397,0.0,0.0,0.0,0.0,0.0,0.0,0.0,0.0,0.0,0.0,0.0,0.0,0.0,0.0,0.0,0.0,0.0,0.0,0.0,0.0,0.0,0.0,0.0,2.8789,2.8957,2.9382,2.9863,2.9809,0.0,0.0,0.0,0.0,0.0,0.0,0.0,2.818,2.8649,2.9177,2.9589,3.0333,3.1373,3.2695,3.312,3.2691,3.2538,0.0,0.0,0.0,0.0,0.0,0.0,0.0,0.0,0.0,0.0,0.0,0.0,0.0,0.0,0.0,0.0,0.0,0.0,0.0,0.0,0.0,0.0,0.0,0.0,0.0,0.0,0.0,0.0,0.0,0.0,0.0,0.0,0.0,0.0,0.0,0.0,0.0,0.0,0.0,0.0,0.0,0.0,0.0,0.0,0.0,0.0,0.0,0.0,0.0,0.0,0.0,0.0,0.0,0.0,0.0,0.0,0.0,0.0,0.0,0.0,0.0,0.0,0.0,4.6931,4.7315,4.7943,4.7819,4.7612,4.7294,4.397,4.2556,4.245,4.0773,0.0,0.0,0.0,0.0,0.0,0.0,0.0,0.0,0.0,0.0,0.0,0.0,0.0,0.0,0.0,0.0,0.0,0.0,0.0,0.0,0.0,2.8385,2.8776,2.874,2.992,3.0649,3.0517,0.0,0.0,0.0,0.0,0.0,2.8559,2.8955,2.9506,3.0212,3.1304,3.2246,3.3083,3.4137,3.4679,3.4658,3.3339,3.3616,3.4974,0.0,0.0,0.0,0.0,0.0,0.0,0.0,0.0,0.0,0.0,0.0,0.0,0.0,0.0,0.0,0.0,0.0,0.0,0.0,0.0,0.0,0.0,0.0,0.0,0.0,0.0,0.0,0.0,0.0,0.0,0.0,0.0,0.0,0.0,0.0,0.0,0.0,0.0,0.0,0.0,0.0,4.3944,4.3593,0.0,0.0,0.0,0.0,0.0,0.0,0.0,0.0,0.0,0.0,0.0,0.0,0.0,4.5701,4.5701,4.6406,4.6874,4.7066,4.7768,4.8155,4.8265,4.8223,4.8201,4.8144,4.7549,0.0,4.4833,4.3324,0.0,0.0,0.0,0.0,0.0,0.0,0.0,0.0,0.0,0.0,0.0,0.0,0.0,0.0,0.0,0.0,0.0,0.0,0.0,0.0,0.0,2.9277,2.994,3.0842,3.1252,3.1429,3.1375,3.1135,0.0,0.0,0.0,2.9848,3.0041,3.0,3.0586,3.1862,3.3348,3.4228,3.4545,3.531,3.5915,3.6277,3.5284,3.5116,3.5555,3.4541,0.0,0.0,0.0,0.0,0.0,0.0,0.0,0.0,0.0,0.0,0.0,0.0,0.0,0.0,0.0,0.0,0.0,0.0,0.0,0.0,0.0,0.0,0.0,0.0,0.0,0.0,0.0,0.0,0.0,0.0,0.0,0.0,0.0,0.0,0.0,0.0,0.0,0.0,0.0,4.3541,4.4339,4.3676,4.3767,4.3573,0.0,0.0,0.0,0.0,0.0,0.0,0.0,0.0,0.0,4.7036,4.7941,4.8694,4.9259,4.97,4.9946,5.0029,5.0383,5.0326,4.9926,4.9933,4.9944,4.9916,4.9914,4.9138,4.7712,4.5465,4.4265,4.3598,0.0,0.0,0.0,0.0,4.0181,4.0813,0.0,0.0,0.0,0.0,0.0,0.0,0.0,0.0,0.0,0.0,0.0,0.0,2.9659,3.0147,3.092,3.2341,3.2327,3.2212,3.2211,3.1859,3.1433,3.0979,3.0747,3.0848,3.1304,3.1433,3.2223,3.3775,3.4837,3.5448,3.5531,3.6216,3.6749,3.724,3.7022,3.6777,3.6446,3.5616,3.4744,3.3918,0.0,0.0,0.0,0.0,0.0,0.0,0.0,0.0,0.0,0.0,0.0,0.0,0.0,0.0,0.0,0.0,0.0,0.0,0.0,0.0,0.0,0.0,0.0,0.0,0.0,0.0,0.0,0.0,0.0,0.0,0.0,0.0,0.0,0.0,0.0,0.0,0.0,4.4015,4.4768,4.3828,4.452,4.4592,0.0,0.0,0.0,0.0,0.0,0.0,4.6962,4.7864,4.8697,4.9427,5.0422,5.1279,5.204,5.1996,5.1997,5.2154,5.1981,5.1615,5.111,5.1094,5.1115,5.1131,5.1135,5.0744,4.9942,4.7615,4.6371,4.5796,4.422,4.3312,4.2949,4.2978,4.3273,4.379,0.0,0.0,0.0,0.0,0.0,0.0,0.0,0.0,0.0,0.0,0.0,2.9419,2.9668,3.0392,3.1132,3.178,3.2413,3.2905,3.3291,3.2719,3.2227,3.1932,3.1671,3.1664,3.1934,3.3385,3.4715,3.5952,3.5323,3.5323,3.5906,3.6703,3.7084,3.7164,3.8022,3.8435,3.8366,3.7011,3.5873,3.494,3.4011,0.0,0.0,0.0,0.0,0.0,0.0,0.0,0.0,0.0,0.0,0.0,0.0,0.0,0.0,0.0,0.0,0.0,0.0,0.0,0.0,0.0,0.0,0.0,0.0,0.0,0.0,0.0,0.0,0.0,0.0,0.0,0.0,0.0,0.0,0.0,0.0,0.0,0.0,4.4772,4.5776,0.0,0.0,0.0,0.0,4.6599,4.735,4.8235,4.9275,5.018,5.0747,5.0988,5.182,5.236,5.2463,5.1847,5.1601,5.1718,5.1063,5.0799,5.0816,5.0816,5.0847,5.0907,5.0914,5.0902,5.0869,4.9874,4.9033,4.8338,4.82,4.7714,4.7081,4.7109,4.7071,4.704,0.0,0.0,0.0,0.0,0.0,0.0,0.0,0.0,2.9401,2.961,3.0185,3.0771,3.1292,3.1827,3.2552,3.3648,3.4006,3.4302,3.4657,3.437,3.4129,3.399,3.3804,3.3767,3.3796,3.5053,3.5615,3.5464,3.5644,3.5804,3.5964,3.625,3.6669,3.7184,3.7674,3.8154,3.8536,3.7489,3.6776,3.6264,3.4745,3.3741,0.0,0.0,0.0,0.0,0.0,0.0,0.0,0.0,0.0,0.0,0.0,0.0,0.0,0.0,0.0,0.0,0.0,0.0,0.0,0.0,0.0,0.0,0.0,0.0,0.0,0.0,0.0,0.0,0.0,0.0,0.0,0.0,0.0,0.0,0.0,0.0,0.0,4.6158,4.6875,0.0,4.6776,4.7168,4.7596,4.7919,4.8698,4.9791,5.1227,5.1633,5.2148,5.2827,5.3311,5.3335,5.29,5.2812,5.2301,5.1376,5.1321,5.1039,5.0596,5.0738,5.0808,5.085,5.0855,5.0812,5.0799,5.0537,4.9979,4.9272,4.8807,4.8498,4.824,4.7656,4.7847,4.8258,0.0,0.0,0.0,0.0,0.0,0.0,0.0,0.0,3.0533,3.0711,3.1609,3.2396,3.286,3.335,3.4097,3.5247,3.5259,3.5373,3.5652,3.5786,3.56,3.4969,3.4874,3.4921,3.5088,3.5838,3.6061,3.5673,3.5809,3.5873,3.5866,3.5946,3.629,3.6829,3.7306,3.7929,3.8609,3.7947,3.7494,3.7076,3.582,3.5065,3.4571,0.0,0.0,0.0,0.0,0.0,0.0,0.0,0.0,0.0,0.0,0.0,0.0,0.0,0.0,0.0,0.0,0.0,0.0,0.0,0.0,0.0,0.0,0.0,0.0,0.0,0.0,0.0,0.0,0.0,0.0,0.0,0.0,0.0,0.0,4.5217,4.6432,4.7123,4.8042,4.8451,4.806,4.8759,4.9423,4.9738,5.0227,5.1168,5.2572,5.2668,5.3035,5.3727,5.386,5.3635,5.304,5.2876,5.2251,5.1127,5.1166,5.0933,5.0455,5.0659,5.0772,5.0772,5.0785,5.0733,5.0706,5.0791,5.0607,5.0168,4.9686,4.939,4.9149,4.8573,4.8785,4.9296,0.0,0.0,0.0,0.0,0.0,0.0,0.0,3.1391,3.201,3.2374,3.3529,3.4259,3.4177,3.4866,3.563,3.6351,3.6105,3.6018,3.6229,3.685,3.6483,3.4809,3.4744,3.5033,3.5679,3.5769,3.6118,3.6758,3.5881,3.5503,3.5534,3.5836,3.5951,3.5975,3.6915,3.7837,3.8647,3.8479,3.8021,3.7456,3.7248,3.6853,3.6359,0.0,0.0,0.0,0.0,0.0,0.0,0.0,0.0,0.0,0.0,0.0,0.0,0.0,0.0,0.0,0.0,0.0,0.0,0.0,0.0,0.0,0.0,0.0,0.0,0.0,0.0,0.0,0.0,0.0,0.0,0.0,0.0,0.0,4.5734,4.6751,4.7615,4.7744,4.934,5.0128,4.9372,5.0251,5.1206,5.195,5.2024,5.2395,5.3261,5.3308,5.341,5.3684,5.343,5.3173,5.284,5.1973,5.134,5.0941,5.0501,5.0312,5.0385,5.0556,5.0668,5.0712,5.0716,5.0701,5.071,5.085,5.0939,5.1001,5.1032,5.0641,5.0051,5.0051,5.0111,5.0273,0.0,0.0,0.0,0.0,0.0,0.0,0.0,3.283,3.3601,3.3442,3.5196,3.623,3.5674,3.5953,3.6293,3.6585,3.6581,3.6721,3.7103,3.7511,3.7698,3.7659,3.6631,3.6447,3.7192,3.6627,3.6053,3.558,3.5347,3.4929,3.4381,3.5178,3.525,3.4688,3.5633,3.6835,3.8104,3.8054,3.857,3.934,3.8298,3.766,3.7212,0.0,0.0,0.0,0.0,0.0,0.0,0.0,0.0,0.0,0.0,0.0,0.0,0.0,0.0,0.0,0.0,0.0,0.0,0.0,0.0,0.0,0.0,0.0,0.0,0.0,0.0,0.0,0.0,0.0,0.0,0.0,4.6247,4.7767,4.738,4.8214,4.935,5.0684,5.1109,5.126,5.1224,5.2019,5.238,5.2024,5.2527,5.2978,5.322,5.3386,5.34,5.3345,5.3657,5.3172,5.1839,5.1836,5.126,5.0109,4.9454,4.9559,5.0312,4.9767,4.9969,5.0682,5.0692,5.072,5.0773,5.0929,5.0984,5.0966,5.0431,5.0559,5.0859,4.9619,4.921,4.9453,0.0,0.0,0.0,0.0,0.0,0.0,0.0,3.3632,3.4473,3.4593,3.6199,3.7137,3.6577,3.6909,3.7122,3.686,3.7084,3.734,3.7572,3.7811,3.7927,3.7935,3.7117,3.6706,3.6791,3.6316,3.581,3.5307,3.5288,3.4881,3.412,3.5072,3.5069,3.4275,3.5201,3.6562,3.8067,3.8029,3.8961,4.0392,3.961,3.9234,3.9194,3.9076,3.922,3.9519,3.9497,3.9239,3.8844,3.8274,0.0,0.0,0.0,0.0,0.0,0.0,0.0,0.0,0.0,0.0,0.0,0.0,0.0,0.0,0.0,0.0,0.0,0.0,0.0,0.0,0.0,0.0,0.0,0.0,4.7939,4.9463,4.9876,5.0274,5.1063,5.2424,5.2423,5.2328,5.248,5.292,5.2994,5.2527,5.292,5.3198,5.3241,5.3339,5.3359,5.3235,5.3316,5.2707,5.1438,5.1423,5.0892,4.9855,4.9537,4.9704,5.0291,4.993,5.0144,5.0733,5.0751,5.0812,5.0898,5.102,5.108,5.1037,0.0,0.0,0.0,0.0,4.9918,5.0078,0.0,0.0,0.0,0.0,0.0,0.0,0.0,3.421,3.5001,3.5542,3.6723,3.7333,3.6844,3.747,3.7662,3.6953,3.7488,3.7914,3.804,3.8124,3.7829,3.7057,3.69,3.6386,3.5463,3.5346,3.5296,3.5314,3.5248,3.4854,3.412,3.5087,3.5101,3.4311,3.5281,3.6647,3.8252,3.8225,3.9182,4.0772,4.082,4.1058,4.1442,4.1485,4.1911,4.2503,4.2558,4.1785,4.0767,4.0721,0.0,0.0,0.0,0.0,0.0,0.0,0.0,0.0,0.0,0.0,0.0,0.0,0.0,0.0,0.0,0.0,0.0,0.0,0.0,0.0,0.0,0.0,0.0,0.0,4.9682,5.112,5.2586,5.2519,5.2562,5.3228,5.3261,5.3225,5.3214,5.3225,5.3198,5.3198,5.3246,5.3272,5.338,5.3363,0.0,0.0,0.0,5.2231,5.1585,5.0986,5.0446,4.994,5.0099,5.0214,5.0331,5.0485,5.0656,5.0812,5.0888,5.0937,5.105,5.1083,5.1152,5.1086,5.035,5.0547,5.1267,5.1366,5.1406,5.1406,0.0,0.0,0.0,0.0,0.0,0.0,0.0,3.5649,3.6341,3.5358,3.705,3.7817,3.6419,3.6271,3.6281,3.6278,3.7134,3.8395,4.0108,3.9634,3.9228,3.9043,3.7713,3.6555,3.5646,3.4936,3.4268,3.357,3.3581,3.313,3.2336,3.3927,3.42,3.3427,3.5,3.6613,3.812,3.8176,3.9191,4.0709,4.0798,4.1193,4.1894,4.2575,4.3242,4.393,4.4566,4.4564,4.4288,4.4055,4.3276,4.2366,4.2187,4.1659,0.0,0.0,0.0,0.0,0.0,0.0,0.0,0.0,0.0,0.0,0.0,0.0,0.0,0.0,0.0,0.0,0.0,0.0,0.0,5.1002,5.2076,5.2977,5.3929,5.3899,5.3693,5.3501,5.3349,5.3246,5.3225,5.3261,5.3277,5.3277,5.3369,5.3541,5.3776,5.3833,5.3879,5.3961,5.3533,5.2883,5.2001,5.145,5.0856,5.0212,4.9545,0.0,5.0514,4.9879,5.0096,5.0977,5.0984,5.1066,5.1183,5.122,5.0899,5.0364,5.0914,5.0846,5.0504,5.1171,5.1406,5.1406,0.0,0.0,0.0,0.0,0.0,0.0,0.0,3.5152,3.5705,3.5402,3.6395,3.6826,3.6028,3.5937,3.5864,3.5609,3.702,3.8542,4.0051,3.9816,3.9203,3.8336,3.704,3.5913,3.5035,3.4166,3.3481,3.3014,3.2987,3.278,3.2318,3.3634,3.4016,3.3621,3.4918,3.6434,3.7983,3.8038,3.9071,4.0688,4.1161,4.1838,4.2606,4.3149,4.4073,4.5156,4.5519,4.5577,4.5541,4.5822,4.5521,4.5104,4.5409,4.5201,4.4767,0.0,0.0,0.0,0.0,0.0,0.0,0.0,0.0,0.0,0.0,0.0,0.0,0.0,0.0,4.838,4.9578,0.0,5.0761,5.273,5.329,5.3702,5.4406,5.4459,5.4231,5.3747,5.368,5.3593,5.342,5.3553,5.3553,5.3266,5.3651,5.3879,5.3786,5.4033,5.419,5.4144,5.3392,5.2736,5.2201,5.1389,5.079,5.0462,5.0038,5.0187,5.0735,5.034,5.0518,5.1083,5.1083,5.1144,5.1271,5.1328,5.1096,5.0848,5.171,5.1284,5.0311,5.1094,5.168,5.1992,0.0,0.0,0.0,0.0,0.0,0.0,0.0,3.4393,3.4804,3.5277,3.5517,3.5595,3.5518,3.5625,3.5622,3.5395,3.7093,3.8587,3.9488,3.9588,3.8882,3.7283,3.6218,3.5118,3.3972,3.3139,3.256,3.235,3.2506,3.2554,3.2565,3.3565,3.401,3.3976,3.4833,3.6162,3.7735,3.7763,3.8881,4.0746,4.1501,4.2425,4.3395,4.3588,4.4641,4.5971,4.5925,4.5849,4.5835,4.6495,4.6591,4.6617,4.7477,4.7726,4.7598,4.6994,4.736,0.0,0.0,0.0,0.0,0.0,0.0,0.0,0.0,4.8928,4.9431,5.0398,5.0971,5.1545,5.2334,5.2336,5.2691,5.4046,5.4108,5.4209,5.4686,5.4746,5.4589,5.4149,5.4097,5.4007,5.3748,5.3953,5.3907,5.3454,5.3998,5.4236,5.398,5.4309,5.4506,5.4444,5.3245,5.2539,5.248,5.1234,5.0615,5.062,5.0708,5.0823,5.0914,5.1001,5.1092,5.1232,5.1245,5.1283,5.133,5.1363,5.1503,5.1711,5.2414,5.1988,5.1015,5.168,5.2344,5.2851,0.0,0.0,0.0,0.0,0.0,0.0,0.0,0.0,3.5161,3.4515,3.5001,3.5163,3.445,3.4393,3.4926,3.6215,3.743,3.8567,3.9615,3.9641,3.9091,3.8018,3.6325,3.4592,3.2829,3.1954,3.1129,3.0307,3.1096,3.1496,3.1588,3.32,3.3823,3.3666,3.456,3.5757,3.7112,3.7306,3.8776,4.0994,4.1308,4.2479,4.4003,4.4226,4.4974,4.5912,4.5896,4.5877,4.588,4.5992,4.5986,4.6133,4.6988,4.7306,4.733,4.7257,4.7342,4.7261,4.6318,4.6791,4.7857,4.9283,4.9582,5.0322,0.0,5.2876,5.2299,5.3804,5.3584,5.3356,5.4073,5.4197,5.447,5.5363,5.5304,5.5186,5.5301,5.5203,5.5068,5.4881,5.4568,5.4301,5.4228,5.4322,5.4318,5.4259,5.4446,5.4653,5.4837,5.4954,5.5102,5.5275,5.3822,5.3015,5.3009,5.1472,5.0678,5.0687,5.0882,5.0972,5.0992,5.1117,5.1236,5.1305,5.1348,5.1365,5.1409,5.1412,5.1855,5.257,5.2649,5.3044,5.3594,5.3672,5.3789,5.3828,0.0,0.0,0.0,0.0,0.0,0.0,0.0,0.0,0.0,3.3923,3.4111,3.4224,3.4086,3.4367,3.5256,3.698,3.7757,3.8718,4.0087,3.9269,3.8484,3.7874,3.5638,3.4032,3.3244,3.2264,3.134,3.0476,3.12,3.1577,3.16,3.2726,3.372,3.4536,3.4913,3.5926,3.7449,3.8097,3.9337,4.0968,4.208,4.3063,4.3954,4.4566,4.5083,4.5487,4.5749,4.5824,0.0,4.6447,4.6625,4.6807,4.7747,4.8074,4.8001,4.7527,4.7746,4.8262,4.8381,4.8669,4.9192,5.0345,5.0975,5.1753,5.3638,5.3514,5.3475,5.5105,5.5186,5.5014,5.5384,5.5354,5.5461,5.5808,5.5735,5.5615,5.5643,5.5537,5.5449,5.5351,5.5198,5.4936,5.456,5.4646,5.4646,5.4363,5.4783,5.5009,5.4886,5.5198,5.5419,5.5497,5.4463,5.372,5.3262,5.2189,5.1431,5.0994,5.1591,5.1891,5.1933,5.2511,5.2517,5.2135,5.215,5.1882,5.1454,5.1934,5.2373,5.2809,5.3827,5.4453,5.4685,5.4179,5.4336,5.4687,0.0,0.0,0.0,0.0,0.0,0.0,0.0,0.0,0.0,0.0,3.4208,3.4234,3.4368,3.4536,3.5248,3.6757,3.7585,3.842,3.9378,3.8563,3.7797,3.7249,3.4849,3.3483,3.3378,3.2354,3.1491,3.0841,3.1553,3.2008,3.2249,3.2994,3.4056,3.5379,3.5614,3.6519,3.7874,3.8832,4.0002,4.1339,4.2649,4.3453,4.3932,4.4724,4.5038,4.5083,4.5491,4.5688,4.5819,4.6487,4.6752,4.7014,4.7935,4.83,4.8218,4.7595,4.79,4.8649,4.9492,5.0025,5.0603,5.1661,5.2508,5.3275,5.4079,5.4259,5.4608,5.5842,5.6091,5.6083,5.6132,5.6068,5.6007,5.6024,5.6132,5.6117,5.588,5.5979,5.595,5.5626,5.556,5.5407,5.4952,5.5033,5.4952,5.4648,5.5119,5.5275,5.5036,5.5402,5.5659,5.567,5.4974,5.4362,5.3832,5.3084,5.2469,5.1947,5.2574,5.2927,5.3004,5.3634,5.3617,5.3059,5.3059,5.2711,5.2169,5.2804,5.32,5.3554,5.4804,5.5464,5.5578,5.4959,5.5116,5.5585,0.0,0.0,0.0,0.0,0.0,0.0,0.0,0.0,0.0,0.0,0.0,0.0,0.0,3.4728,3.4534,3.5043,3.6655,3.7378,3.686,3.7458,3.7295,3.6101,3.4163,3.2933,3.2554,3.1617,3.1048,3.0889,3.1781,3.2664,3.3561,3.4372,3.5097,3.5828,3.6674,3.7435,3.8143,3.9211,4.0663,4.2288,4.2745,4.3438,4.4227,4.4654,4.4864,4.4931,4.5217,4.54,4.5526,4.5611,4.5822,4.6184,4.7069,4.7388,4.7432,4.7494,4.7521,4.7715,4.8515,4.9951,5.1648,5.3303,5.4338,5.5134,5.6031,5.6223,5.6223,5.6262,5.6301,5.6256,5.6193,5.6186,5.6189,5.61,5.6741,5.6943,5.6027,5.6551,5.6698,5.5714,5.5526,5.5517,5.5461,5.5407,5.537,5.5358,5.5376,5.5437,5.5554,5.5694,5.5808,5.5884,5.5256,5.489,5.4854,5.4115,5.3736,5.3738,5.3873,5.3972,5.3973,5.3984,5.3995,5.3966,5.3966,5.3935,5.3904,5.3944,5.4453,5.5232,5.5271,5.5816,5.6554,5.6515,5.6554,5.6556,0.0,0.0,0.0,0.0,0.0,0.0,0.0,0.0,0.0,0.0,0.0,0.0,0.0,0.0,0.0,0.0,3.7133,3.7578,3.8297,3.71,3.6282,3.6154,3.4437,3.3376,3.3099,3.3132,3.2898,3.2364,3.3573,3.402,3.3753,3.4841,3.5678,3.6347,3.7113,3.7851,3.8652,3.9951,4.1266,4.2523,4.2925,4.3738,4.4628,4.4364,4.4294,4.4414,0.0,4.4638,4.4456,4.4608,4.4796,4.5104,4.6108,4.651,4.6718,4.7338,4.7916,4.8662,5.0108,5.1718,5.3301,5.4446,5.53,5.592,5.6232,5.631,5.631,5.631,5.584,5.545,5.5459,5.5448,5.5419,5.5441,5.6537,5.7267,5.6939,5.7602,5.778,5.683,5.6762,5.65,5.5882,5.551,5.5333,5.5502,5.5588,5.5651,5.5726,5.5954,5.6068,5.6118,5.5931,5.5561,5.505,5.4788,5.4433,5.3952,5.4562,5.5162,5.5714,5.5717,5.5414,5.4878,5.4878,5.4529,5.4023,5.4608,5.5035,5.5345,5.5922,5.6345,5.6617,5.6584,5.6586,5.6588,0.0,0.0,0.0,0.0,0.0,0.0,0.0,0.0,0.0,0.0,0.0,0.0,0.0,0.0,0.0,0.0,0.0,3.7124,3.775,3.6615,3.5743,3.5447,3.4546,3.3843,3.3437,3.3583,3.3413,3.2843,3.3635,3.4098,3.4251,3.5054,3.607,3.7192,3.8031,3.8666,3.9231,4.0446,4.149,4.2392,4.2667,4.3369,4.4182,4.4013,4.3986,0.0,4.4148,4.4026,4.3858,4.4403,4.475,4.5049,4.5784,4.6304,4.6781,4.7666,4.8751,5.0086,5.1808,5.3316,5.4609,5.546,5.603,5.6404,5.6404,5.64,5.6397,5.6397,5.5693,5.5109,5.5156,5.5134,5.5062,5.5104,5.6409,5.7384,5.7405,5.8071,5.8269,5.7366,5.7326,5.7017,5.6117,5.5977,5.5885,5.5765,5.5773,5.5853,5.5932,5.6142,5.6264,5.6275,5.6356,5.6119,5.5599,5.5619,5.5405,5.4956,5.5514,5.6071,5.6586,5.6589,5.6284,5.5742,5.5742,5.5468,5.4957,5.5537,5.5767,5.5803,5.6376,5.6605,5.6606,5.657,5.6576,5.6584,0.0,0.0,0.0,0.0,0.0,0.0,0.0,0.0,0.0,0.0,0.0,0.0,0.0,0.0,0.0,0.0,0.0,0.0,3.5418,3.5954,3.5608,3.4071,3.4393,3.4235,3.3431,3.2946,3.263,3.2461,3.2156,3.3071,3.504,3.5166,3.6285,3.815,3.925,3.9733,3.9779,4.0678,4.1401,4.1917,4.2056,4.2491,4.3114,4.361,4.3878,4.3998,4.3756,4.3667,4.3888,4.4949,4.5671,4.6123,4.6188,4.6857,4.777,4.866,5.0104,5.1801,5.3442,5.4619,5.5565,5.6328,5.6522,5.659,5.6628,5.6632,5.6635,5.6597,5.5894,5.5231,5.5154,5.5154,5.5129,5.5081,5.6449,5.7504,5.7524,5.8209,5.8385,5.7461,5.7387,5.706,5.6287,5.6816,5.6894,5.6145,5.6104,5.6202,5.6341,5.6368,5.6411,5.6472,5.6486,5.6509,5.6509,5.6561,5.6607,5.6609,5.6658,5.6627,5.6594,5.6638,5.664,5.6599,5.6598,5.6593,5.6581,5.6581,5.6615,5.6605,5.6605,5.6604,5.6603,5.6511,5.6523,5.6584,0.0,0.0,0.0,0.0,0.0,0.0,0.0,0.0,0.0,0.0,0.0,0.0,0.0,0.0,0.0,0.0,0.0,0.0,3.6417,3.5421,3.4645,3.4177,3.3591,3.2929,3.2196,3.2481,3.286,3.3291,3.3664,3.4375,3.5383,3.5666,3.6189,3.6907,3.8135,3.8751,3.8897,3.996,4.1101,4.2158,4.1896,4.269,4.4008,4.3713,4.3929,4.4404,4.4511,4.4793,4.5136,4.5367,4.6984,4.8909,4.9034,4.9666,5.0547,5.1434,5.2434,5.3553,5.4615,5.5564,5.6272,5.6411,5.6437,5.6569,5.7032,5.7133,5.6945,5.6368,5.5572,5.4635,5.3441,5.3777,5.4413,5.4933,5.6982,5.8683,5.9117,5.9986,6.0242,5.9448,5.8898,5.8242,5.7438,5.7535,5.7556,5.7354,5.7814,5.8093,5.8129,5.7664,5.7442,5.7446,5.6869,5.6561,5.6561,5.658,5.6592,5.6599,5.7225,5.7187,5.6601,5.7222,5.7177,5.6587,5.6535,5.6568,5.6609,5.6609,5.6608,5.6604,5.6555,5.6513,5.6511,5.6496,5.6516,5.6425,0.0,0.0,0.0,0.0,0.0,0.0,0.0,0.0,0.0,0.0,0.0,0.0,0.0,0.0,0.0,0.0,0.0,0.0,0.0,3.5277,3.4604,3.4251,3.3771,3.3141,3.2322,3.2434,3.2498,3.2457,3.2997,3.372,3.4634,3.5024,3.5816,3.6971,3.7943,3.8576,3.8925,3.9765,4.0778,0.0,0.0,4.2542,4.378,4.3716,4.3975,4.4465,4.5236,4.6487,4.7777,4.7765,4.8754,5.0036,5.0537,5.1269,5.2133,5.2951,5.3818,5.465,5.5465,5.6293,5.6929,5.6879,5.6826,5.6845,5.6798,5.6469,5.597,5.5124,5.4286,5.3475,5.2623,5.3209,5.4062,5.4914,5.686,5.8662,5.9766,6.0394,6.0445,5.9703,5.9248,5.8531,5.7359,5.7616,5.7824,5.7792,5.8484,5.8915,5.893,5.8228,5.7821,5.783,5.7049,5.6779,5.7137,5.7495,5.7695,5.7654,5.8121,5.8115,5.767,5.7731,5.7523,5.7048,5.6655,5.6538,5.658,5.6553,5.6554,5.6548,5.65,5.6497,5.6496,5.6517,5.6499,5.6371,0.0,0.0,0.0,0.0,0.0,0.0,0.0,0.0,0.0,0.0,0.0,0.0,0.0,0.0,0.0,0.0,0.0,0.0,0.0,0.0,3.4833,3.4123,3.4249,3.3855,3.2907,3.2467,3.1886,3.113,3.1549,3.2319,3.3466,3.4001,3.5242,3.7128,3.7844,3.8515,3.9109,3.9664,4.0349,4.1047,4.1595,4.2337,4.3132,0.0,4.4087,4.4482,4.5846,4.8116,5.0481,5.0773,5.0824,5.0965,5.1754,5.2717,5.3656,5.4264,5.4984,5.5714,5.6363,5.7042,5.756,5.7543,5.7458,5.7183,5.6386,5.5532,5.4604,5.3641,5.2822,5.2298,5.2175,5.2895,5.3862,5.5,5.6497,5.8128,5.996,6.0247,6.0058,5.9414,5.9153,5.8489,5.7149,5.764,5.8075,5.8148,5.8952,5.9382,5.9286,5.8574,5.8105,5.8079,5.7337,5.7263,5.7968,5.871,5.9057,5.9001,5.9188,5.9166,5.8967,5.8205,5.7873,5.7821,5.688,5.6535,5.664,5.6524,5.649,5.6477,5.6517,5.6519,5.6516,5.6498,5.6473,5.6338,0.0,0.0,0.0,0.0,0.0,0.0,0.0,0.0,0.0,0.0,3.6478,3.689,0.0,0.0,0.0,0.0,0.0,0.0,0.0,0.0,0.0,3.3166,3.3537,3.3111,3.1818,3.1587,3.1588,3.1846,3.1913,3.24,3.328,3.4017,3.4385,3.4528,3.5839,3.6912,3.7785,3.8663,3.9834,4.1151,4.1679,4.2549,4.3635,4.4019,0.0,0.0,4.6209,4.7876,4.974,5.1209,5.3211,5.5122,5.5258,5.6451,5.783,5.7892,5.8,5.8095,5.822,5.8372,5.8464,5.8329,5.7753,5.7164,5.6832,5.6055,5.4951,5.3418,5.2982,5.2478,5.1236,5.1816,5.3159,5.5322,5.6713,5.831,6.0596,6.1114,6.1209,6.1064,5.988,5.9255,5.969,5.9202,5.9174,5.9882,6.0778,6.0928,6.0216,6.003,5.9607,5.8906,5.875,5.8709,5.8801,5.8995,5.9051,5.9026,5.9724,5.9715,5.9001,5.8805,5.8675,5.8608,5.7019,5.6739,5.7341,5.6697,5.6402,5.64,5.6494,5.6498,5.6496,5.6517,5.6476,5.6207,0.0,0.0,0.0,0.0,0.0,0.0,0.0,0.0,3.5836,3.5991,3.6389,3.6495,3.6075,3.5833,0.0,0.0,0.0,0.0,0.0,0.0,0.0,0.0,3.3737,3.3202,3.224,3.2171,3.198,3.1735,0.0,3.2675,3.3061,3.4146,3.4885,3.5323,3.6705,3.7824,3.8809,3.9615,4.0585,4.1606,4.221,4.2941,4.3669,0.0,0.0,0.0,4.7074,4.8523,5.0114,5.1057,5.319,5.5543,5.5893,5.6883,5.7952,5.7932,5.8178,5.8428,5.837,5.8655,5.9016,5.8946,5.8269,5.7346,5.637,5.5306,5.3983,5.192,5.1755,5.17,5.0699,5.1361,5.2795,5.4907,5.611,5.7672,6.0271,6.0733,6.0846,6.0875,6.0187,5.9726,5.9687,5.9247,5.9196,5.9631,6.0403,6.0918,6.1014,6.0577,5.9942,5.9077,5.9456,5.967,5.9675,6.0083,6.0278,6.0255,6.0628,6.0604,6.0177,5.9681,5.948,5.9377,5.7671,5.7165,5.7479,5.6692,5.6337,5.6351,5.6361,5.6405,5.6402,5.6393,5.6332,5.6111,0.0,0.0,0.0,0.0,0.0,0.0,0.0,3.5541,3.5715,3.608,3.6182,3.6009,3.5352,3.5418,3.5524,0.0,0.0,0.0,0.0,0.0,0.0,0.0,0.0,0.0,3.2978,0.0,0.0,3.1784,3.2549,0.0,0.0,0.0,0.0,0.0,3.7644,3.8838,3.9886,4.0573,4.1325,0.0,0.0,4.335,4.3863,0.0,0.0,0.0,0.0,4.8938,5.029,5.0604,5.2107,5.3957,5.4703,5.6059,5.7322,5.7313,5.8033,5.8788,5.8649,5.9344,6.0061,5.9843,5.9019,5.7755,5.5766,5.4326,5.2778,5.0448,5.0395,5.0676,5.028,5.0985,5.2292,5.4278,5.5284,5.6803,5.9738,6.0173,6.0256,6.0543,6.0375,6.0044,5.9562,5.9307,5.9243,5.9528,6.0055,6.0716,6.1498,6.0928,6.0206,5.9535,6.0124,6.049,6.0516,6.1098,6.1363,6.1362,6.1335,6.1287,6.1263,6.0406,6.0087,6.0157,5.8291,5.7596,5.7676,5.6871,5.6565,5.6544,5.6556,5.6561,5.6522,5.637,5.6248,5.6064,0.0,0.0,0.0,0.0,0.0,0.0,0.0,3.5719,3.5729,3.5373,3.5523,3.5559,3.5235,3.5819,3.5935,0.0,0.0,0.0,0.0,0.0,0.0,0.0,0.0,0.0,0.0,0.0,0.0,3.2775,3.2866,0.0,0.0,0.0,0.0,0.0,0.0,3.8194,3.9405,4.014,0.0,0.0,0.0,0.0,0.0,0.0,0.0,0.0,0.0,4.8227,4.9091,4.9906,5.0382,5.0788,5.1622,5.4754,5.8074,5.8028,5.9359,6.0814,6.0665,6.1629,6.2449,6.159,6.0288,5.8432,5.5573,5.3736,5.2001,4.9895,4.9653,4.9848,4.9837,5.0169,5.1315,5.3903,5.4554,5.5969,5.9503,6.0,6.0397,6.1361,6.0636,6.0369,6.1205,6.0504,6.0358,6.1227,6.1205,6.1256,6.1427,6.1349,6.1256,6.1187,6.1259,6.1268,6.121,6.1281,6.132,6.1318,6.1314,6.131,6.1263,6.0406,6.042,6.0963,5.849,5.7807,5.8441,5.7711,5.7349,5.7288,5.7359,5.7382,5.7305,5.6495,5.6156,5.5978,0.0,0.0,0.0,0.0,0.0,0.0,3.5291,3.5042,3.506,3.5557,3.5495,3.5672,3.6263,3.6343,3.6089,0.0,0.0,0.0,0.0,0.0,0.0,0.0,0.0,0.0,0.0,0.0,3.3584,3.3511,3.3584,0.0,0.0,0.0,0.0,0.0,0.0,3.9611,4.0538,4.1216,0.0,0.0,0.0,0.0,0.0,0.0,0.0,0.0,0.0,0.0,4.8504,4.8901,4.9325,4.9758,5.0034,5.198,5.4436,5.589,5.8122,6.0215,6.0469,6.1544,6.2473,6.2099,6.0418,5.8334,5.654,5.4713,5.2879,5.0844,5.0483,5.0426,5.0057,5.0405,5.1319,5.2952,5.3936,5.5377,5.7899,5.8334,5.8892,6.0351,6.0642,6.0906,6.1355,6.1423,6.1403,6.1256,6.1193,6.1177,6.1229,6.1317,6.1335,6.1359,6.1294,6.1275,6.1314,6.122,6.1186,6.1255,6.1191,6.1177,6.1177,6.0824,6.0854,6.1068,5.9577,5.8794,5.8574,5.8278,5.785,5.7416,5.7412,5.7408,5.7269,5.6462,5.607,5.5912,0.0,0.0,0.0,0.0,0.0,3.5095,3.4883,3.4418,3.4418,3.5304,3.5246,3.5522,3.6522,3.6336,3.595,3.5538,0.0,0.0,0.0,0.0,0.0,0.0,0.0,0.0,0.0,0.0,3.4077,3.4054,3.4128,3.4488,0.0,0.0,3.7217,3.8157,0.0,0.0,0.0,0.0,0.0,0.0,0.0,0.0,0.0,0.0,0.0,0.0,0.0,0.0,0.0,0.0,0.0,4.9581,4.9487,5.025,5.1604,5.3729,5.6424,5.883,5.9624,6.0973,6.2175,6.2137,6.0292,5.8165,5.6845,5.4996,5.305,5.1245,5.0968,5.0879,5.0479,5.0844,5.1599,5.2721,5.365,5.4923,5.6873,5.7219,5.7819,5.9272,5.9972,6.0479,6.082,6.1556,6.1862,6.1546,6.1248,6.1123,6.1137,6.1191,6.1221,6.1221,6.1186,6.1182,6.126,6.115,6.1132,6.1164,6.1132,6.1118,6.1118,6.1118,6.1118,6.1079,6.0242,5.9546,5.8995,5.8952,5.848,5.7705,5.7693,5.7512,5.7177,5.6326,5.5984,5.588,0.0,0.0,0.0,0.0,0.0,0.0,0.0,3.3982,3.3923,3.4275,3.4531,3.4917,3.5462,3.5489,3.5424,3.5215,0.0,0.0,0.0,0.0,0.0,0.0,0.0,0.0,0.0,0.0,3.4196,3.4382,3.4382,3.4806,3.5611,3.6275,3.7391,3.8817,0.0,0.0,0.0,0.0,0.0,0.0,0.0,0.0,0.0,0.0,0.0,0.0,0.0,0.0,0.0,0.0,0.0,0.0,0.0,5.0231,5.0688,5.2177,5.4557,5.7039,5.8348,6.0293,6.1874,6.1729,6.0103,5.8023,5.6124,5.3934,5.1949,5.065,5.0611,5.0844,5.1055,5.1294,5.1981,5.3559,5.3817,5.4609,5.6974,5.7228,5.7548,5.8485,5.8456,5.8724,5.9727,6.0587,6.1503,6.2409,6.1637,6.1137,6.1182,6.1141,6.1118,6.1118,6.1118,6.1118,6.1118,6.1118,6.1118,6.1118,6.1118,6.1118,6.1118,6.1118,6.1118,6.1041,6.0239,5.9886,5.988,5.9794,5.9268,5.8496,5.8432,5.7911,5.711,5.6213,5.587,5.5792,0.0,0.0,0.0,0.0,0.0,0.0,0.0,3.3531,3.3671,3.4115,3.4394,3.4805,3.5429,3.5519,3.5457,3.5408,0.0,0.0,0.0,0.0,0.0,0.0,0.0,0.0,0.0,0.0,3.4652,3.4938,3.5169,3.5753,3.6646,3.7435,3.8441,3.9592,4.0651,4.1554,0.0,0.0,0.0,0.0,0.0,0.0,4.625,0.0,0.0,0.0,0.0,0.0,0.0,0.0,0.0,0.0,0.0,0.0,0.0,5.0269,5.2503,5.4915,5.5737,5.7336,5.8734,5.8711,5.7618,5.6388,5.564,5.4117,5.2679,5.2043,5.1624,5.137,5.1443,5.1867,5.2341,5.2769,5.3823,5.4886,5.5691,5.6582,5.7413,5.8234,5.9873,6.135,6.231,6.264,6.2684,6.2331,6.203,6.188,6.1935,6.1384,6.1041,6.1113,6.1118,6.1118,6.1118,6.1118,6.1118,6.1118,6.1118,6.1118,6.1118,6.1118,6.1099,6.1027,6.0775,6.0326,5.9808,6.0388,5.976,5.8432,5.8412,5.7886,5.7017,5.6164,5.5782,5.5735,0.0,0.0,0.0,0.0,0.0,0.0,0.0,3.2978,3.3254,3.3803,3.4255,3.4757,3.5429,3.5519,3.5457,3.5392,0.0,0.0,0.0,0.0,0.0,0.0,0.0,0.0,0.0,3.3839,3.4731,3.5022,3.5775,3.6646,3.7598,3.8321,3.9333,4.0554,4.1321,4.1987,0.0,0.0,0.0,0.0,0.0,0.0,4.6178,0.0,0.0,0.0,0.0,0.0,0.0,0.0,0.0,0.0,0.0,0.0,0.0,0.0,5.0766,5.2263,5.3549,5.495,5.6139,5.6557,5.5812,5.4999,5.5105,5.397,5.2813,5.2635,5.2327,5.2051,5.2105,5.2589,5.2968,5.2967,5.3995,5.4962,5.5466,5.6587,5.7841,5.9072,6.0944,6.2491,6.3411,6.3516,6.3279,6.2701,6.2392,6.2115,6.1821,6.1301,6.1007,6.1056,6.1094,6.1118,6.1118,6.1118,6.1118,6.1118,6.1118,6.1118,6.1118,6.106,6.1032,6.1002,6.0982,6.0681,0.0,6.0739,6.0112,5.8834,5.8505,5.7829,5.6955,5.6048,5.5703,5.5671,0.0,0.0,0.0,0.0,0.0,0.0,0.0,0.0,3.2721,3.3335,3.4039,3.4727,3.537,3.5459,3.5408,3.5245,0.0,0.0,0.0,0.0,0.0,0.0,0.0,0.0,0.0,3.3723,3.46,3.4878,3.6321,3.7499,3.8432,3.8942,3.9993,4.1468,4.1753,4.2267,0.0,0.0,0.0,0.0,0.0,0.0,0.0,0.0,0.0,0.0,0.0,0.0,0.0,0.0,0.0,0.0,0.0,0.0,0.0,0.0,0.0,0.0,0.0,5.2944,5.3867,5.5006,5.4449,5.3784,5.4358,5.346,0.0,5.2593,5.2705,5.2817,5.2948,5.3383,5.3711,5.3842,5.4204,5.4881,5.5993,5.7158,5.861,6.0639,6.1621,6.2437,6.3168,6.3433,6.3557,6.348,6.2772,6.2004,6.1218,6.1034,6.1,6.0987,6.1046,6.106,6.1075,6.1075,6.1109,6.1104,6.1109,6.1109,6.1099,6.1017,6.0997,6.0997,6.1018,6.0987,6.0981,6.0933,6.0366,5.943,5.8605,5.7742,5.6819,5.5895,5.5598,5.5587,0.0,0.0,0.0,0.0,0.0,0.0,0.0,0.0,0.0,0.0,3.3769,3.4563,3.4727,3.519,3.5473,0.0,0.0,0.0,0.0,0.0,0.0,0.0,0.0,0.0,0.0,3.45,3.56,3.6778,3.7584,3.8208,3.8728,3.946,4.0161,4.0838,4.1455,4.2443,0.0,0.0,0.0,0.0,0.0,0.0,0.0,0.0,0.0,0.0,4.8318,4.8977,0.0,0.0,0.0,0.0,0.0,0.0,0.0,0.0,4.9107,4.9132,4.9683,0.0,5.0813,5.13,5.1698,5.2032,0.0,5.2438,5.2491,5.2526,5.2593,5.2705,5.2817,5.3234,5.3469,5.3234,5.4354,5.5388,5.5814,5.7427,5.9126,6.0639,6.175,6.248,6.273,6.4209,6.4917,6.4296,6.3449,6.2927,6.2854,6.156,6.0861,6.0927,6.0878,6.0932,6.1022,6.1022,6.0997,6.0951,6.1002,6.1016,6.0932,6.0964,6.1013,6.1013,6.0997,6.0965,6.0927,6.0916,5.9997,5.8605,5.8396,5.7357,5.5956,5.5526,5.537,5.5333,0.0,0.0,0.0,0.0,0.0,0.0,0.0,0.0,0.0,0.0,0.0,0.0,0.0,0.0,0.0,0.0,0.0,0.0,0.0,0.0,0.0,0.0,0.0,0.0,3.3601,3.526,3.6503,3.7359,3.8344,3.9001,3.9362,4.014,4.0771,4.1331,4.2469,0.0,0.0,0.0,0.0,0.0,4.6163,0.0,0.0,0.0,0.0,0.0,4.8805,4.9281,0.0,4.9538,4.9735,4.9939,0.0,0.0,0.0,0.0,4.9018,4.9065,4.926,4.9669,5.0133,5.0642,5.1253,5.1828,5.2269,5.2414,5.248,5.248,5.2581,5.2728,5.2783,5.3529,5.4064,5.3875,5.508,5.6454,5.7558,5.9115,6.0468,6.1467,6.2528,6.3123,6.29,6.3992,6.4382,6.3594,6.2794,6.229,6.208,6.1511,6.1236,6.1267,6.155,6.1478,6.0927,6.0894,6.0861,6.0762,6.0861,6.0856,6.0794,6.0861,6.0933,6.0949,6.09,6.0877,6.0866,6.0804,6.0231,5.9317,5.8519,5.7796,5.6996,5.565,5.5331,5.5506,0.0,0.0,0.0,0.0,0.0,0.0,0.0,0.0,0.0,0.0,0.0,0.0,0.0,0.0,0.0,0.0,0.0,0.0,0.0,0.0,0.0,0.0,0.0,3.3235,3.3689,3.5883,3.7194,3.7487,3.8825,3.969,4.0095,4.0728,4.1474,4.2281,4.364,4.4001,0.0,0.0,0.0,0.0,4.6261,0.0,0.0,0.0,0.0,0.0,0.0,0.0,0.0,5.0214,4.9953,4.9471,4.9323,0.0,0.0,0.0,0.0,0.0,4.9831,5.0384,5.0898,5.1343,5.1835,5.2338,5.2822,5.2702,5.2503,5.2493,5.2629,5.2786,5.294,5.4053,5.4936,5.4926,5.6098,5.7729,5.9774,6.0958,6.1744,6.2126,6.3085,6.3559,6.3125,6.3394,6.3326,6.2606,6.1948,6.1277,6.0655,6.1159,6.1472,6.1472,6.2089,6.183,6.0748,6.0881,6.0825,6.0571,6.0683,6.0746,6.0651,6.0746,6.0825,6.0877,6.0752,6.0734,6.0769,6.0716,6.0608,6.0309,5.8808,5.8385,5.8413,5.6124,5.5496,5.5694,0.0,0.0,0.0,0.0,0.0,0.0,0.0,0.0,0.0,0.0,0.0,0.0,0.0,0.0,0.0,0.0,0.0,0.0,0.0,0.0,0.0,0.0,3.354,3.4043,3.594,3.6568,3.7318,3.833,3.937,4.005,4.0333,4.0675,4.1521,4.2721,4.316,4.4132,4.5394,0.0,0.0,0.0,4.7137,0.0,0.0,0.0,0.0,0.0,0.0,0.0,0.0,4.8978,4.9159,4.9338,4.8425,0.0,0.0,0.0,0.0,0.0,5.0942,5.1931,5.2439,5.1497,5.197,5.2623,5.2328,5.2448,5.2547,5.2352,5.2434,5.2824,5.3647,5.4539,5.521,5.5438,5.711,5.8838,6.0137,6.0821,6.1069,6.0774,6.181,6.255,6.2597,6.3553,6.3926,6.3276,6.2644,6.1947,6.1225,6.0706,6.043,6.043,6.0478,6.0455,6.0373,6.1148,6.1137,6.0349,6.0552,6.0552,6.0446,6.0565,6.0654,6.0722,6.0757,6.0746,6.071,6.0697,6.0201,5.9376,5.888,5.827,5.7604,5.6769,5.6084,5.5385,0.0,0.0,0.0,0.0,0.0,0.0,0.0,0.0,0.0,0.0,0.0,0.0,0.0,0.0,0.0,0.0,0.0,0.0,0.0,0.0,0.0,3.6555,3.612,3.6204,3.6861,3.7806,3.8587,3.9299,4.0244,4.0676,4.0627,4.1482,4.2265,4.2942,4.3976,4.4729,4.527,0.0,0.0,0.0,0.0,0.0,0.0,0.0,0.0,0.0,0.0,0.0,0.0,0.0,4.9331,4.9526,4.8961,0.0,0.0,0.0,0.0,0.0,5.123,5.2447,5.3419,5.3192,5.3828,5.4568,5.4702,5.4689,5.4559,5.439,5.4496,5.4763,5.5188,5.6196,5.7286,5.8358,5.9508,6.0458,6.0981,6.1286,6.1249,6.0762,6.1711,6.233,6.2134,6.2691,6.2977,6.283,6.1741,6.1045,6.0882,6.0593,6.0446,6.045,6.0829,6.0841,6.0467,6.0892,6.0843,6.0306,6.0377,6.0436,6.0384,6.0486,6.0565,6.0635,6.0629,6.0565,6.0428,6.0387,6.0025,5.9399,5.8788,5.8446,5.8214,5.694,5.6248,5.5781,0.0,0.0,0.0,0.0,0.0,0.0,0.0,0.0,0.0,0.0,0.0,0.0,0.0,0.0,0.0,0.0,0.0,0.0,0.0,0.0,3.8254,3.8337,3.8545,3.8402,3.787,3.9017,3.9785,4.0099,4.093,4.1287,4.1209,4.2432,4.3161,4.3493,4.474,4.5242,4.5227,4.6493,4.7019,0.0,0.0,0.0,0.0,0.0,0.0,0.0,0.0,0.0,0.0,0.0,0.0,0.0,0.0,0.0,0.0,5.0487,5.0611,5.0875,5.1625,5.3001,5.4319,5.4882,5.5365,5.603,5.7169,5.6799,5.6325,5.6702,5.6806,5.6805,5.6766,5.7761,5.9105,6.0724,6.1497,6.1969,6.2155,6.2228,6.2134,6.1749,6.222,6.2424,6.2118,6.2165,6.2232,6.2227,6.1182,6.0553,6.0656,6.0734,6.0736,6.0604,6.1149,6.1093,6.0313,6.0295,6.0257,6.0144,6.019,6.0219,6.032,6.0363,6.0412,6.0453,6.0363,6.021,6.0038,5.9969,5.9818,5.9571,5.8754,5.868,5.8817,5.7191,5.658,5.6459,0.0,0.0,0.0,0.0,0.0,0.0,0.0,0.0,0.0,0.0,0.0,0.0,0.0,0.0,0.0,0.0,0.0,0.0,0.0,0.0,3.9142,3.9025,3.9675,3.9989,3.981,3.9957,4.0193,4.0456,4.1156,4.178,4.2384,4.3164,4.3963,4.4756,4.4756,4.5377,4.6472,4.6339,4.6495,4.6778,0.0,0.0,0.0,0.0,0.0,0.0,0.0,0.0,0.0,0.0,0.0,0.0,0.0,0.0,5.0724,5.1048,5.1231,5.1579,5.2817,5.4204,5.5357,5.5588,5.527,5.5559,5.8081,5.7254,5.6504,5.8497,5.8402,5.7947,5.7913,5.8568,5.9529,6.0792,6.1964,6.3015,6.3799,6.3922,6.3909,6.3859,6.3235,6.2794,6.288,6.2904,6.2669,6.2086,6.2094,6.1829,6.1108,6.1224,6.1042,6.0366,6.0393,6.0115,5.9494,5.9411,5.9484,5.9659,5.9798,5.9922,6.0106,6.0045,6.0052,6.0014,5.9856,5.9677,5.9537,5.9528,5.9505,5.939,5.9074,5.8858,5.8607,5.7732,5.7398,5.7266,0.0,0.0,0.0,0.0,0.0,0.0,0.0,0.0,0.0,0.0,0.0,0.0,0.0,0.0,0.0,0.0,0.0,0.0,0.0,0.0,4.0246,4.0528,4.0802,4.0914,4.088,4.079,4.0803,4.1009,4.1553,4.2285,4.3168,4.3466,4.4035,4.479,4.4818,4.528,4.6082,4.5935,4.6057,4.6266,4.607,0.0,0.0,0.0,0.0,0.0,0.0,0.0,0.0,0.0,5.0724,5.0986,5.0999,5.127,5.1612,5.1712,5.1859,5.2089,5.2642,5.4265,5.5822,5.5975,5.6385,5.729,5.9224,5.9599,5.9719,6.0449,6.0895,6.0841,5.9938,6.0473,6.1149,6.134,6.2181,6.2903,6.3246,6.3282,6.3282,6.3282,6.3013,6.2818,6.2867,6.288,6.2782,6.2536,6.2189,6.184,6.1544,6.0741,6.0146,5.9855,5.9435,5.9072,5.8818,5.8885,5.9014,5.9225,5.9434,5.9618,5.9736,5.9702,5.9685,5.9685,5.9618,5.9432,5.9271,5.9271,5.9131,5.8945,5.8862,5.877,5.8613,5.7687,5.7693,5.7979,0.0,0.0,0.0,0.0,0.0,0.0,0.0,0.0,0.0,0.0,0.0,0.0,0.0,0.0,0.0,0.0,0.0,0.0,3.9629,4.0285,4.0802,4.1071,4.1231,4.1231,4.1082,4.0925,4.1,4.1343,4.1975,4.2757,4.3687,4.3791,4.425,4.4981,4.5383,4.5732,4.6067,4.6265,4.6408,4.648,4.6028,4.6287,0.0,0.0,0.0,0.0,0.0,0.0,0.0,0.0,5.1147,5.1624,5.1612,5.1896,5.2222,5.2222,5.2578,5.2967,5.2971,5.4485,5.6125,5.6118,5.7079,5.8519,6.0333,6.1219,6.1931,6.2918,6.2881,6.2343,6.1519,6.1507,6.1606,6.1618,6.2511,6.3196,6.3196,6.3196,6.3196,6.3196,6.2976,6.2793,6.2793,6.2793,6.2793,6.2793,6.2365,6.212,6.212,6.1173,6.0418,5.9981,5.9494,5.9015,5.8572,5.8656,5.875,5.8835,5.9015,5.9243,5.9479,5.9388,5.9361,5.9352,5.9299,5.914,5.8957,5.8957,5.8855,5.8687,5.8687,5.8687,5.8603,5.7973,5.8069,5.8397,0.0,0.0,0.0,0.0,0.0,0.0,0.0,0.0,0.0,0.0,0.0,0.0,0.0,0.0,0.0,0.0,0.0,0.0,3.9395,4.0294,4.0683,4.0429,4.085,4.0885,4.0417,4.0247,4.0589,4.1388,4.2389,4.3252,4.3912,4.4164,4.4749,4.5541,4.6556,4.6843,4.6637,4.7439,4.7708,4.7514,4.6581,4.7116,0.0,0.0,0.0,0.0,0.0,0.0,0.0,0.0,5.1467,5.215,5.241,5.2516,5.2516,5.248,5.3416,5.4323,5.3975,5.5128,5.6322,5.5979,5.7074,5.8873,6.1375,6.172,6.2512,6.5964,6.4107,6.196,6.2508,6.1422,6.0676,6.1484,6.3001,6.4103,6.4103,6.4103,6.4103,6.4103,6.3319,6.2793,6.2793,6.2793,6.2793,6.2793,6.2793,6.2793,6.2793,6.2793,6.2169,6.0833,6.0808,6.0145,5.8714,5.8725,5.8635,5.8519,5.8481,5.8798,5.9372,5.9187,5.9102,5.9083,5.8794,5.8687,5.8687,5.8687,5.8687,5.8687,5.8687,5.8687,5.8687,5.8687,5.8614,5.8497,0.0,0.0,0.0,0.0,0.0,0.0,0.0,0.0,0.0,0.0,0.0,0.0,0.0,0.0,0.0,0.0,0.0,0.0,3.9804,4.0269,4.0502,4.0383,4.026,4.0036,3.9701,3.9657,3.9997,4.0772,4.2144,4.3099,4.3646,4.4086,4.4949,4.6167,4.6777,4.6833,4.6482,4.685,4.6809,4.648,4.6634,4.6868,0.0,0.0,0.0,0.0,0.0,0.0,0.0,0.0,0.0,0.0,5.2524,5.3001,5.3411,5.2719,5.3355,5.4071,5.3238,5.4655,5.64,5.6393,5.8561,6.1158,6.2842,6.2891,6.319,6.5348,6.3969,6.2399,6.2579,6.2239,6.2069,6.2377,6.3392,6.4103,6.4103,6.4103,6.387,6.3282,6.2976,6.2793,6.2793,6.2793,6.2793,6.2793,6.2793,6.2793,6.2793,6.2254,6.1777,6.1372,6.0903,6.0457,6.0058,5.9634,5.9366,5.9333,5.8778,5.8593,5.8708,5.8646,5.8614,5.8604,5.8497,5.8502,5.8502,5.8502,5.8508,5.8561,5.8523,5.8508,5.8551,5.84,5.8312,5.8268,0.0,0.0,0.0,0.0,0.0,0.0,0.0,0.0,0.0,0.0,0.0,0.0,0.0,0.0,0.0,0.0,0.0,0.0,0.0,3.9995,4.0095,3.991,3.9732,3.9441,3.896,3.9607,3.9935,3.9999,4.1489,4.282,4.3893,4.47,4.5754,4.7061,4.8086,4.8041,4.724,4.8012,4.7997,4.7413,4.7848,4.8125,4.8342,0.0,0.0,0.0,0.0,0.0,0.0,0.0,0.0,0.0,5.2536,5.2942,5.334,5.307,5.3916,5.4885,5.425,5.5677,5.7441,5.8079,5.9916,6.2047,6.3951,6.4602,6.5072,6.6014,6.4859,6.3778,6.4084,6.3339,6.2815,6.327,6.3466,6.3686,6.4066,6.3796,6.3503,6.3356,6.3013,6.2793,6.2793,6.2793,6.2793,6.2793,6.2793,6.2793,6.2793,6.2352,6.1949,6.1667,6.1298,6.0805,6.0199,5.983,5.9468,5.9091,5.8943,5.8803,5.8691,5.8497,5.8393,5.8393,5.8393,5.8393,5.8393,5.8393,5.8437,5.8454,5.8426,5.8437,5.8443,5.8301,5.826,5.8204,0.0,0.0,0.0,0.0,0.0,0.0,0.0,0.0,0.0,0.0,0.0,0.0,0.0,0.0,0.0,0.0,0.0,0.0,0.0,0.0,3.9571,3.9162,3.9289,3.9061,3.8395,3.9852,4.0221,3.9475,4.0888,4.2569,4.4481,4.5686,4.6918,4.8129,4.9937,4.9924,4.8706,5.0257,5.0342,4.953,4.973,5.0219,5.0735,5.0224,0.0,0.0,0.0,0.0,0.0,0.0,0.0,0.0,5.2503,5.2587,5.2768,5.3385,5.4796,5.6148,5.6248,5.7434,5.898,6.039,6.1251,6.2415,6.4891,6.6563,6.7556,6.7424,6.6333,6.5605,6.6366,6.4591,6.3294,6.4163,6.3613,6.3306,6.4103,6.3466,6.316,6.3906,6.3282,6.2793,6.2793,6.2793,6.2793,6.2793,6.2793,6.2793,6.2793,6.2793,6.2524,6.191,6.1874,6.1196,5.9811,5.97,5.9249,5.8436,5.911,5.9336,5.922,5.8776,5.8545,5.8471,5.8397,5.836,5.836,5.836,5.8371,5.8382,5.8371,5.8371,5.8382,5.8371,5.8294,5.8167,0.0,0.0,0.0,0.0,0.0,0.0,0.0,0.0,0.0,0.0,0.0,0.0,0.0,0.0,0.0,0.0,0.0,0.0,0.0,0.0,3.9315,3.8898,3.8912,3.9007,3.9149,3.9621,4.0396,4.154,4.2521,4.3348,4.4085,4.594,4.7711,4.9362,5.0389,5.0617,5.0247,5.0688,5.0342,4.9566,5.0446,5.0502,5.0188,5.0783,5.1054,0.0,0.0,0.0,0.0,0.0,0.0,0.0,5.2559,5.3097,5.3579,5.2936,5.4082,5.5519,5.5348,5.7081,5.9246,6.0712,6.352,6.603,6.652,6.7572,6.8119,6.696,6.6383,6.6173,6.6463,6.5467,6.4927,6.5839,6.5301,6.4811,6.5007,6.4347,6.3649,6.3135,6.2903,6.2793,6.2793,6.2793,6.2793,6.2793,6.2793,6.2793,6.2793,6.2793,6.2732,6.2573,6.2585,6.212,6.1164,6.0634,6.0301,6.0082,5.9615,5.9382,5.9359,5.9779,5.9646,5.8984,5.8371,5.8077,5.8077,5.8077,5.8133,5.8249,5.8122,5.8133,5.8249,5.8111,5.8065,5.8042,0.0,0.0,0.0,0.0,0.0,0.0,0.0,0.0,0.0,0.0,0.0,0.0,0.0,0.0,0.0,0.0,0.0,0.0,0.0,0.0,0.0,3.9088,3.9222,3.9448,3.9735,4.002,4.0817,4.2096,4.3147,4.4273,4.5501,4.7066,4.869,5.0421,5.1214,5.1299,5.0832,5.1346,5.107,5.0352,5.1342,5.1531,5.1217,5.1708,5.191,5.1991,5.1887,0.0,0.0,0.0,0.0,0.0,0.0,0.0,5.3233,5.3142,5.4173,5.5508,5.6006,5.8166,6.0762,6.2947,6.5318,6.7097,6.7097,6.7539,6.7752,6.698,6.6915,6.6969,6.6969,6.6243,6.5777,6.6283,6.5607,6.5081,6.5147,6.4464,6.383,6.3453,6.3429,6.3282,6.2829,6.316,6.3246,6.2829,6.2793,6.2793,6.2793,6.2793,6.2793,6.2793,6.2793,6.2389,6.1606,6.1251,6.0882,6.0515,6.049,6.0673,6.0992,5.9782,5.9024,5.8609,5.818,5.7997,5.7997,5.7997,5.8008,5.8008,5.8008,5.8008,5.8008,5.8008,5.7997,5.7997,0.0,0.0,0.0,0.0,0.0,0.0,0.0,0.0,0.0,0.0,0.0,0.0,0.0,0.0,0.0,0.0,0.0,0.0,0.0,0.0,0.0,3.9467,3.9742,3.9961,4.0201,4.0712,4.1424,4.2291,4.3559,4.5421,4.7765,4.8405,4.9608,5.1308,5.1981,5.1922,5.1335,5.2029,5.1932,5.132,5.2169,5.248,5.248,5.248,5.2503,5.2515,5.2491,5.2503,5.2515,5.2491,0.0,0.0,0.0,0.0,5.2625,5.3313,5.4345,5.5537,5.6637,5.9235,6.2322,6.5255,6.6573,6.7179,6.7119,6.7263,6.7342,6.7111,6.7378,6.762,6.747,6.6907,6.6431,6.6368,6.5601,6.4976,6.4965,6.4393,6.392,6.383,6.3916,6.3659,6.2828,6.3538,6.3697,6.2866,6.2939,6.2976,6.2793,6.2793,6.2793,6.2793,6.2793,6.2389,6.1606,6.1606,6.1263,6.0639,6.1263,6.1936,6.2424,5.9467,5.8244,5.8365,5.806,5.7939,5.7939,5.7939,5.7869,5.7786,5.7845,5.7774,5.7679,5.7726,5.7738,5.7738,0.0,0.0,0.0,0.0,0.0,0.0,0.0,0.0,0.0,0.0,0.0,0.0,0.0,0.0,0.0,0.0,0.0,0.0,3.8788,0.0,0.0,3.9906,3.9786,4.0011,4.0629,4.1407,4.2398,4.3475,4.4695,4.6932,5.0044,4.9424,5.014,5.1994,5.2198,5.2486,5.2806,5.2569,5.2292,5.2006,5.2351,5.248,5.248,5.248,5.2549,5.2593,5.2526,5.2561,5.2593,5.2526,5.248,0.0,0.0,0.0,5.2516,5.2625,5.3747,5.4991,5.5038,5.8329,6.244,6.5151,6.6939,6.7775,6.6821,6.7448,6.7912,6.6814,6.7083,6.747,6.7266,6.7277,6.7282,6.707,6.6372,6.5592,6.4926,6.4708,6.4174,6.2801,6.3252,6.3377,6.2689,6.3361,6.3546,6.2853,6.3503,6.3613,6.2829,6.2793,6.2793,6.2793,6.2793,6.2389,6.1606,6.1606,6.1569,6.1447,6.1569,6.1507,6.1354,5.9529,5.9152,5.981,5.8312,5.7631,5.7631,5.7631,5.7631,5.7631,5.7388,5.7289,5.7226,5.6845,5.6678,5.6665,0.0,0.0,0.0,0.0,0.0,0.0,0.0,0.0,0.0,0.0,0.0,0.0,0.0,0.0,0.0,3.8725,3.8849,3.8898,3.8898,3.9195,3.9513,3.9825,3.9876,4.0175,4.0702,4.1535,4.2561,4.3698,4.4741,4.6814,4.9779,4.9875,5.1226,5.3519,5.3147,5.3062,5.3167,5.263,5.2305,5.2222,5.241,5.248,5.248,5.248,5.2515,5.2524,5.2503,5.2515,5.2524,5.2503,5.248,5.248,5.248,0.0,0.0,0.0,5.2709,5.4005,5.6206,5.9056,6.2026,6.4583,6.5856,6.6457,6.6506,6.7003,6.7361,6.6881,6.6997,6.7233,6.721,6.7196,6.7261,6.7359,6.6871,6.6052,6.4959,6.4722,6.4112,6.2589,6.3126,6.3298,6.2548,6.3218,6.3377,6.2638,6.2931,6.3006,6.2679,6.2692,6.2717,6.2793,6.2793,6.2646,6.2291,6.2217,6.2067,6.1951,6.1873,6.1448,6.0661,5.9903,5.9447,5.9235,5.8008,5.7388,5.7215,5.7215,5.7038,5.6753,5.6714,5.6648,5.6555,5.6461,5.6384,5.6371,0.0,0.0,0.0,0.0,0.0,0.0,0.0,0.0,0.0,0.0,0.0,0.0,0.0,0.0,0.0,0.0,3.8925,3.908,3.9228,3.9468,3.9677,3.9845,4.0231,4.0622,4.1037,4.2139,4.3167,4.406,4.4998,4.6824,4.9528,5.0399,5.2315,5.4988,5.4182,5.364,5.3277,5.2846,5.2641,5.263,5.2759,5.2661,5.2552,5.2951,5.2842,5.2516,0.0,5.2661,5.248,5.2445,5.2375,5.2281,5.2221,5.2018,0.0,0.0,0.0,5.2762,5.6667,5.8763,6.0493,6.2959,6.4153,6.4956,6.5941,6.652,6.6897,6.7091,6.7193,6.7223,6.7162,6.7054,6.7076,6.7275,6.7019,6.6374,6.5107,6.4855,6.4246,6.2721,6.3062,6.3175,6.244,6.3073,6.3232,6.2456,6.2602,6.2655,6.2539,6.2552,6.259,6.2679,6.2692,6.2679,6.2641,6.2513,6.2305,6.2024,6.1914,6.1354,6.034,6.0053,5.9458,5.869,5.7719,5.7038,5.6674,5.6841,5.6693,5.634,5.6574,5.6574,5.6496,5.6489,5.6489,5.6475,0.0,0.0,0.0,0.0,0.0,0.0,0.0,0.0,0.0,0.0,0.0,0.0,0.0,3.8632,3.8711,3.8985,3.9013,3.9255,3.9807,3.9507,3.9599,4.0226,4.0946,0.0,4.194,4.3785,4.4842,4.5033,4.5915,4.7722,5.0359,5.1232,5.3152,5.5819,5.5135,5.4254,5.3313,5.352,5.3568,5.3436,5.3592,5.3168,5.2661,5.4182,5.382,5.2589,5.3349,5.3132,5.2468,5.2328,5.2018,5.1613,5.15,5.1144,5.0778,0.0,0.0,0.0,5.4667,5.6049,5.7151,5.964,6.1923,6.3871,6.503,6.6103,6.7016,6.7368,6.7749,6.7751,6.715,6.6983,6.6976,6.6845,6.6837,6.6438,6.5437,6.5329,6.4751,6.3162,6.3004,6.2827,6.2244,6.2939,6.3138,6.2443,6.3126,6.3199,6.247,6.2397,6.2397,6.241,6.241,6.2344,6.2225,6.2091,6.1859,6.1529,6.1515,6.1163,6.0458,5.9684,5.9239,5.9011,5.7606,5.6616,5.6014,5.6708,5.6998,5.7011,5.7434,5.7629,5.7568,5.7115,5.6974,5.6958,0.0,0.0,0.0,0.0,0.0,0.0,0.0,0.0,0.0,0.0,0.0,0.0,0.0,3.8752,3.8903,3.898,3.9121,3.9282,3.9494,3.9395,3.9422,3.9638,4.0609,4.1316,4.1741,4.3645,4.4778,4.5115,4.5889,4.7326,4.9374,5.0393,5.201,5.4139,5.4542,5.4845,5.4965,5.4074,5.3688,5.3616,5.3688,5.353,5.3277,5.3349,5.3313,5.3229,5.2929,5.2989,5.317,5.2636,5.2933,5.3319,5.2113,5.1682,5.1413,5.0255,5.0562,5.1533,5.2758,5.4437,5.6176,5.7591,5.9476,6.1402,6.2879,6.4353,6.5629,6.6319,6.6884,6.7133,6.6748,6.6786,6.6918,6.7026,6.6794,6.6349,6.5598,6.5328,6.4618,6.2983,6.2803,6.2738,6.2528,6.234,6.2183,6.2105,6.2233,6.2065,6.1544,6.1832,6.206,6.2132,6.2132,6.1933,6.155,6.143,6.114,6.0722,6.063,6.0105,5.9172,5.9367,5.8803,5.7607,5.7586,5.7339,5.6947,5.7228,5.7133,5.6871,5.7073,5.7129,5.7113,5.6934,5.6853,5.6853,0.0,0.0,0.0,0.0,0.0,0.0,0.0,0.0,0.0,0.0,0.0,0.0,0.0,0.0,3.9402,3.9457,3.9579,3.9553,3.9235,3.9705,3.9898,3.968,4.1123,4.209,4.2432,4.4177,4.5187,4.5454,4.5968,4.7133,4.8897,4.9829,5.1301,5.3127,5.3815,5.4807,5.5933,5.4907,5.4472,5.4472,5.4472,5.4327,5.4146,5.4363,5.4327,5.4098,5.3978,5.3966,5.3917,5.3348,5.3528,5.377,5.2523,5.18,5.1191,5.0043,5.0379,5.1115,5.1165,5.2771,5.4642,5.5636,5.7003,5.8737,6.1085,6.2484,6.3684,6.5106,6.5871,6.6341,6.6515,6.6586,6.6697,6.6867,6.6646,6.6271,6.5811,6.5343,6.4633,6.3541,6.3182,6.3053,6.3111,6.2407,6.2147,6.2536,6.2211,6.1975,6.195,6.2299,6.2385,6.2075,6.1631,6.1257,6.0912,6.0767,6.0477,6.0072,5.9959,5.9453,5.8621,5.9142,5.8731,5.7564,5.8081,5.7885,5.7273,5.7516,5.7462,5.7185,5.746,5.7529,5.7529,5.7529,5.7529,5.7529,0.0,0.0,0.0,0.0,0.0,0.0,0.0,0.0,0.0,0.0,0.0,0.0,0.0,0.0,0.0,4.0428,4.0428,4.0029,3.9125,4.0516,4.111,4.0462,4.2591,4.3892,4.4083,4.5471,4.6202,4.6189,4.6214,4.7171,4.8997,4.9753,5.1152,5.3066,5.3089,5.4176,5.5945,5.5921,5.5957,5.6029,5.5993,5.5595,5.5257,5.7478,5.6935,5.5184,5.6669,5.6098,5.4636,5.4498,5.3748,5.2869,5.2689,5.1363,4.993,5.0087,5.0042,4.9931,0.0,0.0,0.0,5.3609,5.4564,5.6125,5.97,6.0565,6.1318,6.3782,6.4734,6.5417,6.6366,6.6412,6.6274,6.6274,6.629,6.6207,6.6001,6.5376,6.4895,6.4757,6.4128,6.3759,6.3893,6.3175,6.3031,6.3807,6.3139,6.3031,6.3807,6.3822,6.3308,6.2184,6.0948,6.0294,6.0294,6.0135,5.993,5.9602,5.9602,5.9368,5.8995,5.8995,5.8995,5.8995,5.8995,5.8185,5.6909,5.7633,5.7943,5.7995,5.872,5.8995,5.8995,5.8995,5.8995,5.8995,0.0,0.0,0.0,0.0,0.0,0.0,0.0,0.0,0.0,0.0,0.0,0.0,0.0,0.0,4.111,4.1311,4.1213,4.0974,4.0607,4.1111,4.1328,4.1143,4.2658,4.3545,4.3586,4.5118,4.5816,4.5624,4.6577,4.756,4.853,4.9591,5.1035,5.2678,5.2873,5.3614,5.4727,5.4239,5.5083,5.6615,5.5495,5.6027,5.7369,5.6862,5.6908,5.724,5.7005,5.6716,5.638,5.5748,5.5474,5.5059,5.3445,5.1825,0.0,5.0687,5.1009,5.1162,5.0626,0.0,0.0,0.0,0.0,0.0,5.5833,5.731,5.9168,6.1657,6.2713,6.3569,6.491,6.5694,6.6061,6.5772,6.5928,6.599,6.5668,6.559,6.5121,6.3999,6.395,6.3889,6.3627,6.2888,6.26,6.3008,6.2641,6.2337,6.2169,6.2039,6.1565,6.0709,6.0355,6.0024,5.9781,5.9767,5.9535,5.9166,5.9166,5.9115,5.8995,5.8995,5.8995,5.8995,5.8995,5.8754,5.8409,5.8616,5.8702,5.872,5.8926,5.8995,5.8995,5.8995,5.8995,5.9064,0.0,0.0,0.0,0.0,0.0,0.0,0.0,0.0,0.0,0.0,0.0,0.0,0.0,0.0,0.0,4.218,4.1991,4.1668,4.1214,4.1904,4.2189,4.1872,4.3132,4.3856,4.3856,4.5126,4.5853,4.5943,4.6923,4.7946,4.8986,4.9703,5.0728,5.1997,5.2167,5.2737,5.3593,5.3128,5.4325,5.6528,5.6275,5.6819,5.7836,5.7959,5.805,5.8092,5.8057,5.8067,5.7924,5.6923,5.6267,5.5564,5.3721,5.2282,5.1296,5.1312,5.1564,5.1614,5.0794,5.1445,5.2197,5.1782,0.0,0.0,5.4312,5.5289,5.6657,5.9025,6.0044,6.1103,6.2993,6.3764,6.4218,6.458,6.4636,6.4862,6.5534,6.5476,6.4987,6.4108,6.4208,6.4259,6.4004,6.3285,6.3009,6.352,6.3063,6.2817,6.2823,6.1983,6.128,6.0877,6.0065,5.9551,5.9334,5.9334,5.9233,5.8995,5.8995,5.8995,5.8995,5.8995,5.8995,5.8995,5.8995,5.8995,5.8995,5.8995,5.8995,5.8995,5.8995,5.8995,5.903,5.9392,5.9495,5.9599,0.0,0.0,0.0,0.0,0.0,0.0,0.0,0.0,0.0,0.0,0.0,0.0,0.0,0.0,0.0,0.0,4.2802,4.2297,4.1521,4.2811,4.3345,4.2736,4.3933,4.4649,4.4691,4.5588,4.6295,4.6797,4.7343,4.8371,4.985,4.9956,0.0,0.0,5.1259,5.1714,5.2453,5.2462,5.3673,5.5751,5.7352,5.7739,5.7608,5.9884,5.975,5.8402,5.9481,5.9653,5.9159,5.7901,5.6558,5.5193,5.3771,5.2909,5.2371,5.2,5.1949,5.1797,5.0876,5.1157,0.0,5.2356,5.2173,0.0,5.4038,5.4056,5.4307,5.6358,5.7245,5.8311,6.0721,6.1099,6.1477,6.2786,6.2759,6.3272,6.525,6.5006,6.4655,6.4673,6.4655,6.462,6.4673,6.3972,6.3797,6.4533,6.3902,6.3797,6.4428,6.277,6.1797,6.1692,5.9944,5.8995,5.8995,5.8995,5.8995,5.8995,5.8995,5.8995,5.8995,5.8995,5.8995,5.8995,5.8995,5.8995,5.8995,5.8995,5.8995,5.8995,5.8995,5.8995,5.9099,5.9909,6.0185,6.0323,0.0,0.0,0.0,0.0,0.0,0.0,0.0,0.0,0.0,0.0,0.0,0.0,0.0,0.0,0.0,0.0,4.3964,4.33,4.3138,4.3433,4.3691,4.3949,4.4927,4.5631,4.5946,4.7082,4.7598,4.7492,4.8416,4.9098,4.9573,5.019,0.0,0.0,5.0878,5.1011,5.0934,5.2243,5.3197,5.3986,5.6076,5.7949,5.9592,6.0358,6.0361,6.0047,6.0256,6.0062,5.9513,5.8233,5.7113,5.6016,5.456,5.4285,5.4227,5.2845,5.2859,5.3141,5.2266,5.2493,5.281,5.1921,5.2939,0.0,5.244,5.2957,5.4043,5.5311,5.5657,5.6272,5.8125,5.9044,5.9617,5.9905,6.0991,6.2298,6.3747,6.4108,6.4336,6.4652,6.4277,6.4174,6.4634,6.4027,6.3647,6.3803,6.3647,6.3388,6.2938,6.1967,6.1153,6.0549,5.953,5.8995,5.8995,5.8995,5.8995,5.8995,5.8995,5.8995,5.8995,5.8995,5.8995,5.8995,5.8995,5.8995,5.8995,5.8995,5.8995,5.8995,5.8995,5.8995,5.9099,5.9909,6.0185,6.0392,0.0,4.0619,4.2022,4.39,0.0,0.0,0.0,0.0,4.6748,4.6783,4.7241,4.735,4.6624,4.6079,0.0,0.0,0.0,0.0,0.0,4.4841,4.5267,4.5725,4.592,4.6211,4.6755,4.7431,4.7879,4.8133,4.8554,4.9089,4.9695,5.0006,4.9901,4.9484,5.0195,5.0551,5.0724,5.2004,5.3244,5.447,5.5871,5.7154,5.8317,5.9334,5.981,5.9918,5.9774,5.9546,5.9248,5.8228,5.7753,5.7266,5.5326,5.5152,5.5293,5.3518,5.3334,5.3521,5.2644,5.2656,5.2858,5.2637,5.3139,0.0,0.0,5.2873,5.3356,5.4141,5.4097,5.4236,5.5357,5.6005,5.6484,5.6776,5.8219,5.9599,6.0458,6.238,6.3795,6.4136,6.348,6.3308,6.4083,6.3388,6.3094,6.3565,6.36,6.3427,6.3066,6.1944,6.1116,6.0771,5.9599,5.8995,5.8995,5.8995,5.8995,5.8995,5.8995,5.8995,5.8995,5.8995,5.8995,5.8995,5.8995,5.8995,5.903,5.9426,5.953,5.9443,5.9547,5.984,6.0254,6.1047,6.1358,6.1496,4.0161,4.1486,4.3056,4.4939,4.5946,0.0,0.0,0.0,4.7711,4.7898,4.8459,4.8461,4.7389,4.713,4.6622,4.5669,0.0,0.0,4.6161,4.6502,4.6858,4.7155,4.6886,4.6927,4.7331,4.7654,4.8135,4.8767,4.8558,4.8959,4.9869,4.9723,4.9468,4.9088,4.9642,5.0471,5.1409,5.1884,5.3428,5.5529,5.5997,5.6365,5.6819,5.8558,5.9294,5.9474,5.9374,5.929,5.9148,5.8693,5.8751,5.8583,5.6426,5.6169,5.6315,5.4372,5.3959,5.3953,5.3223,5.312,5.3322,5.3766,5.3618,5.3418,0.0,0.0,0.0,5.3153,5.2746,5.2467,5.2922,5.3011,5.3165,5.3617,5.5192,5.6504,5.6875,5.9988,6.2435,6.2988,6.2307,6.2183,6.3179,6.2465,6.2328,6.3269,6.3321,6.3269,6.3096,6.1961,6.122,6.1082,5.9719,5.8978,5.8944,5.8944,5.8927,5.8892,5.8892,5.8909,5.8944,5.8944,5.9082,5.9202,5.9064,5.9168,5.9478,5.9978,6.0269,6.0332,6.0338,6.0683,6.1285,6.2077,6.2423,6.2527,4.2038,4.279,4.3852,4.5543,4.68,4.761,0.0,0.0,4.7723,4.8588,4.9745,5.0792,5.1433,4.9957,4.9437,5.0795,4.9011,4.8087,4.8825,4.801,4.7378,4.7138,4.7921,4.8153,4.7741,4.8862,4.9394,4.933,4.918,4.9323,4.9723,4.9575,4.9748,5.0122,4.9963,5.109,5.306,5.2149,5.3304,5.5769,5.5774,5.661,5.8068,5.9909,6.0235,5.9869,6.0705,6.0562,6.008,6.0689,6.0467,5.9715,5.8408,5.8207,5.801,5.5937,5.5487,5.5599,5.5326,5.5719,5.5937,5.4711,5.5326,5.5591,5.3123,0.0,5.3153,5.2623,0.0,5.1465,5.1547,0.0,0.0,5.0685,5.2635,5.4231,5.4465,5.67,5.9007,6.0903,6.0675,6.0785,6.1981,6.1418,6.1336,6.2293,6.2362,6.2053,6.1313,6.1303,6.1013,6.0358,5.9461,5.8927,5.8806,5.8806,5.8736,5.8561,5.8561,5.8648,5.8806,5.8806,5.9271,6.0013,5.9323,5.9771,6.1013,6.0427,6.0889,6.1876,6.1174,6.0843,6.0868,6.1621,6.204,6.2307,4.254,4.3769,4.5164,4.6448,4.7429,4.827,4.8947,4.9401,4.97,4.982,5.0483,5.1192,5.1876,5.1198,5.0983,5.1612,5.1603,5.1357,5.0903,5.0312,0.0,5.0946,5.0112,4.9784,5.0112,5.0076,4.985,4.9436,4.8997,4.8984,4.929,0.0,4.928,4.9567,4.9869,5.1203,5.3182,5.2877,5.4306,5.6777,5.6929,5.7641,5.8679,5.8992,5.9193,5.9534,6.0833,6.1095,6.0791,6.0655,6.0883,6.095,5.9631,5.941,5.9301,5.7562,5.7033,5.6876,5.6368,5.6448,5.6448,5.5402,5.5194,5.484,5.3221,5.2668,5.2379,5.2116,0.0,0.0,0.0,0.0,0.0,0.0,5.1272,5.2696,5.2876,5.4479,5.6534,5.8914,5.8512,5.8303,5.8867,5.952,6.0144,6.0633,6.0686,6.0754,6.0891,6.0518,6.0177,5.9868,5.9113,5.8684,5.8613,5.8613,5.8578,5.8508,5.8508,5.8782,5.9246,5.8819,5.9299,6.0468,5.9661,5.997,6.0948,6.1085,6.1476,6.1966,6.199,6.2006,6.2077,6.2385,6.2578,6.2684,4.3426,4.4733,4.6083,4.6968,4.7507,4.8188,4.9255,5.0168,5.078,5.088,5.1326,5.205,5.3202,5.3104,5.3183,5.3729,5.4531,5.4555,5.3424,5.2964,5.296,5.3592,5.203,5.1354,5.1787,5.0867,5.0153,4.9699,4.9164,4.9025,4.9245,0.0,0.0,0.0,5.0676,5.2133,5.4052,5.4279,5.5859,5.8152,5.8405,5.8829,5.9268,5.8964,5.9167,5.9791,6.1129,6.1467,6.1231,6.0858,6.1337,6.1908,6.0737,6.0455,6.0264,5.9137,5.8533,5.8182,5.7791,5.7672,5.7407,5.6183,5.5336,5.4496,5.3265,5.2686,5.2337,5.2196,5.1546,0.0,0.0,0.0,4.9272,4.9115,0.0,5.1531,5.1558,5.27,5.4324,5.649,5.6542,5.6572,5.7049,5.7965,5.864,5.8953,5.8873,5.9082,5.968,5.9375,5.924,5.9294,5.8781,5.8472,5.8419,5.8419,5.8401,5.8348,5.8348,5.8741,5.9509,5.8947,5.9563,6.0966,6.0214,6.0453,6.1341,6.1683,6.1884,6.2101,6.2527,6.2751,6.2847,6.2847,6.2885,6.2885,4.538,4.5771,4.62,4.6889,4.6917,4.7027,4.7576,4.8649,4.9924,5.1471,5.2577,5.4203,5.6837,5.6451,5.6873,5.9154,5.8087,5.7179,5.6863,5.5861,5.4655,5.3186,5.3112,5.2706,5.1829,5.0996,5.048,5.0259,5.0004,4.988,4.988,5.0715,0.0,0.0,5.3044,5.4515,5.6402,5.6606,5.7884,5.973,5.9933,6.0047,6.0148,6.0892,6.1231,6.1332,6.2076,6.1907,6.14,6.2076,6.2347,6.2341,6.2043,6.1492,6.0914,6.0597,6.0002,5.9561,6.0064,6.0171,5.9611,5.7235,5.6511,5.5636,5.3033,5.3169,5.3681,5.3165,5.3428,5.3335,5.1965,5.1141,5.0326,4.9425,5.0089,0.0,0.0,5.1277,5.2273,5.3419,5.4967,5.6402,5.7659,5.7036,5.6792,5.7335,5.7094,5.6886,5.692,5.7761,5.833,5.8524,5.8508,5.8419,5.8189,5.8189,5.8099,5.7918,5.7918,5.8415,5.9309,5.9275,6.0167,6.1717,6.1,6.1512,6.2863,6.2093,6.215,6.2659,6.2693,6.2576,6.242,6.242,6.2537,6.2673,4.5693,4.6156,4.6584,4.6823,4.6882,4.7368,4.8663,5.0701,5.2617,5.4137,5.4818,5.6343,5.9457,5.9556,5.9686,6.0343,5.9957,5.9348,5.8622,5.7505,5.6953,5.7119,5.605,5.5124,5.4387,5.3517,5.2511,5.142,5.097,5.0749,5.0782,5.1067,0.0,0.0,5.3145,5.4432,5.6046,5.7091,5.8194,5.9376,6.0461,6.1501,6.226,6.1569,6.096,6.0622,6.14,6.1839,6.2076,6.2333,6.24,6.2381,6.2268,6.1981,6.1621,6.1401,6.1073,6.0865,6.1405,6.1563,6.1144,5.9317,5.7998,5.6507,5.4123,5.4114,5.4246,5.2959,5.4147,5.4666,5.2196,5.1855,5.1563,5.0346,5.0228,5.0134,0.0,4.9132,4.9286,5.0549,5.2475,5.3636,5.3378,5.4171,5.4763,5.4913,5.4917,5.5161,5.5665,5.6552,5.7117,5.7171,5.7789,5.8063,5.7991,5.7991,5.8225,5.8626,5.8626,5.9321,6.0615,6.0073,6.0687,6.2154,6.1422,6.1679,6.2562,6.2324,6.2397,6.2707,6.2537,6.2537,6.2557,6.244,6.244,6.2546,4.656,4.6908,4.7062,4.6732,4.731,4.8435,5.0163,5.2486,5.4725,5.6545,5.7215,5.871,6.1751,6.2092,6.2136,6.2231,6.2241,6.1648,6.0318,5.9462,5.9157,5.9498,5.8401,5.7532,5.7038,5.6268,5.49,5.2903,5.2624,5.2196,5.1607,5.1877,5.2249,5.2773,5.4093,5.5056,5.5834,5.8152,5.9235,5.9539,6.1061,6.211,6.2632,6.1941,6.1366,6.0994,6.1501,6.1839,6.2042,6.2333,6.24,6.24,6.24,6.2209,6.1977,6.1837,6.1836,6.1945,6.2236,6.2493,6.2318,6.0775,5.932,5.7793,5.5925,5.5843,5.5889,5.4861,5.6086,5.6507,5.4002,5.3435,5.2753,5.0905,5.0205,4.9585,0.0,4.7734,4.7429,4.8447,5.034,5.1526,5.1533,5.2565,5.3269,5.3379,5.3403,5.3748,5.4537,5.5487,5.6169,5.6492,5.7419,5.79,5.79,5.8152,5.8524,5.9013,5.925,6.008,6.1298,6.0757,6.1197,6.2347,6.1907,6.1941,6.24,6.24,6.2459,6.2557,6.244,6.2459,6.2591,6.2725,6.2956,6.3294,4.7879,4.795,4.7604,4.6765,4.8259,5.014,5.185,5.3868,5.6079,5.8504,5.9684,6.1233,6.3763,6.402,6.421,6.4731,6.4776,6.3943,6.2029,6.181,6.1329,6.0383,6.0173,5.9953,5.9583,5.8999,0.0,5.4733,5.4851,5.4075,5.2469,5.3179,5.3518,5.3585,5.5784,5.6375,5.5986,5.9656,6.0858,6.0351,6.1806,6.2009,6.1501,6.2178,6.2502,6.2502,6.2434,6.1941,6.1467,6.2144,6.24,6.24,6.2415,6.2277,6.203,6.203,6.2387,6.2765,6.2591,6.3061,6.3197,6.1658,6.0531,5.949,5.823,5.8234,5.8515,5.8622,5.9103,5.8945,5.7238,5.5762,5.3879,5.1033,4.9875,4.8874,4.7647,4.6874,4.6627,4.714,4.8497,5.0096,5.1923,5.208,5.2265,5.2642,5.2404,5.2644,5.3587,5.4552,5.5487,5.6355,5.7382,5.7931,5.7949,5.8675,5.9081,5.9115,5.981,6.0588,6.1366,6.1366,6.1738,6.24,6.24,6.24,6.24,6.24,6.24,6.24,6.2415,6.2502,6.2637,6.3294,6.3971,6.4715,4.8244,4.8687,4.9162,4.965,5.0653,5.167,5.2431,5.4953,5.7777,6.0431,6.1824,6.3381,6.559,6.5613,6.5268,6.484,6.4486,6.4065,6.3538,6.3711,6.378,6.3606,6.3081,6.2563,6.201,5.9828,5.8443,5.784,5.5707,5.4719,5.482,5.3923,5.3518,5.3585,5.5225,5.6101,5.6482,5.9246,6.096,6.1839,6.2265,6.2618,6.297,6.3159,6.3565,6.3903,6.2787,6.2299,6.2144,6.2347,6.24,6.2502,6.3057,6.3033,6.2798,6.2656,6.2585,6.2657,6.2991,6.3247,6.3391,6.3526,6.2555,6.1342,6.0436,6.0592,6.0621,5.963,6.0647,6.0783,5.7509,5.6582,5.504,5.1017,4.8153,4.6262,4.5884,4.4845,4.4579,4.5693,4.6112,4.7108,4.9054,4.9904,5.0598,5.1201,5.1292,5.1666,5.2461,5.4014,5.4925,5.5018,5.7137,5.8354,5.8504,5.9227,5.9977,6.0723,6.0892,6.14,6.211,6.211,6.2231,6.24,6.24,6.24,6.24,6.24,6.24,6.2468,6.299,6.3903,6.4735,6.3815,6.3971,6.4715,4.9493,5.002,5.0808,5.185,5.3267,5.4399,5.483,5.6685,5.9151,6.224,6.3221,6.4446,6.6636,6.7026,6.7028,6.6721,6.6533,6.6117,6.5508,6.5705,6.5721,6.5381,6.4669,6.407,6.3641,6.1466,5.9922,5.9146,5.6813,5.5533,5.5209,5.4059,5.3518,5.3551,5.5023,5.5883,5.6334,5.8976,6.0994,6.24,6.24,6.2651,0.0,6.3734,6.4038,6.4106,6.3903,6.3429,6.2922,6.326,6.3159,6.3004,6.3647,6.3666,6.3407,6.32,6.3257,6.3411,6.3702,6.399,6.4299,6.473,6.399,6.304,6.2481,6.2088,6.163,6.1105,6.1338,6.0859,5.8272,5.7057,5.4834,4.9909,4.6905,4.5015,4.4593,4.3847,4.3718,4.4858,4.5379,4.6106,4.7302,4.8377,4.93,5.0028,5.0484,5.0952,5.1466,5.3438,5.4531,5.4479,5.7368,5.8825,5.8679,6.0189,6.1081,6.1298,6.1637,6.2009,6.24,6.24,6.24,6.24,6.24,6.24,6.2415,6.2753,6.2888,6.2956,6.37,6.4681,6.5615,6.4783,6.4952,6.5628,5.1405,5.2102,5.2906,5.3676,5.5867,5.7742,5.8373,5.9066,6.0733,6.4138,6.4595,6.539,6.7451,6.8264,6.8808,6.9053,6.9237,6.8744,6.743,6.7581,6.7348,6.6442,6.5669,6.5145,6.4907,6.3248,6.1547,5.975,5.7933,5.6316,5.4871,5.3923,5.3551,5.3687,5.509,5.5902,5.6443,5.9096,6.111,6.2516,6.2516,6.2584,6.2821,6.4208,6.4343,6.3951,6.5358,6.4884,6.3748,6.4377,6.4174,6.3741,6.428,6.4254,6.4011,6.3812,6.4064,6.4387,6.4387,6.4829,6.5293,6.537,6.494,6.4443,6.4188,6.3024,6.2147,6.2617,6.1535,6.0151,5.9185,5.6966,5.3616,4.8614,4.6262,4.486,4.4157,4.3748,4.3898,4.4851,4.5978,0.0,4.6755,4.7547,4.8377,4.9118,4.9758,5.0286,5.0645,5.2715,5.4105,5.4607,5.7644,5.9223,5.917,6.1283,6.2091,6.1603,6.2144,6.24,6.24,6.2502,6.2516,6.257,6.2651,6.2705,6.2739,6.3396,6.368,6.3849,6.4478,6.5189,6.5831,6.5831,6.6237,6.6791,5.405,5.557,5.6514,5.5704,5.8091,6.0709,6.2397,6.3098,6.4312,6.6753,6.7757,6.8494,6.9165,6.9135,6.9041,6.894,6.8883,6.8638,6.8206,6.87,6.8687,6.8046,6.7387,6.6855,6.6531,6.3815,6.2295,6.2096,5.8585,5.6699,5.6359,5.4397,5.3822,5.4431,5.5293,5.7052,5.9385,6.0362,6.1751,6.3308,6.3308,6.3666,6.4309,6.5155,6.5446,6.5425,6.6305,6.5662,6.4444,6.4546,6.4512,6.4505,6.5042,6.5026,6.4759,6.4567,6.4462,6.4387,6.4387,6.4487,6.4697,6.526,6.5203,6.4979,6.4934,6.3928,6.3091,6.3369,6.1967,6.0379,5.9219,5.5386,5.164,4.9307,4.7037,4.5634,4.5816,4.5334,4.5421,4.6671,4.8203,4.9053,4.8669,4.8263,4.8152,4.8437,4.8602,4.9207,5.0399,5.1561,5.3161,5.5165,5.7083,5.9203,6.1478,6.1888,6.2406,6.3105,6.2618,6.24,6.2434,6.3024,6.3308,6.3342,6.3937,6.4208,6.4208,6.4343,6.4783,6.5324,6.5459,6.5967,6.6609,6.6609,6.669,6.6791,5.6685,5.7158,5.7679,5.8386,6.0448,6.2812,6.5081,6.6656,6.7796,6.8243,6.8159,6.8443,6.9501,6.9645,6.9735,6.9957,6.9913,6.9803,6.9506,6.9932,6.969,6.8597,6.7926,6.7379,6.6874,6.392,6.244,6.2537,5.8681,5.6596,5.6172,5.4363,5.3687,5.4093,5.5192,5.7322,6.0148,6.0811,6.2046,6.3511,6.3917,6.4275,6.4681,6.5425,6.5717,6.5818,6.6542,6.6318,6.573,6.573,6.5493,6.5228,6.5636,6.5679,6.5495,6.5181,6.4984,6.4929,6.4929,6.4929,6.4973,6.5203,6.5167,6.5031,6.4725,6.3646,6.2704,6.2672,6.1363,5.9737,5.8152,5.5357,5.2607,5.0497,4.8799,4.7718,4.7583,4.717,4.7118,4.79,4.9297,4.9858,4.8858,4.8873,4.8699,4.8182,4.8134,4.8589,4.9628,5.0825,5.2431,5.4574,5.6863,5.8886,6.0571,6.2179,6.2912,6.2729,6.2896,6.2956,6.299,6.3342,6.3714,6.4106,6.4444,6.4613,6.4647,6.5019,6.5595,6.6271,6.6271,6.6508,6.6791,6.6791,6.6791,6.6791,5.9499,5.9348,5.9696,6.1512,6.3273,6.5141,6.7128,6.9418,7.0579,6.9662,6.8618,6.848,6.9805,7.0165,7.0446,7.0861,7.0847,7.0663,7.0324,7.0469,6.9939,6.8532,6.799,6.7407,6.6812,6.4208,6.2719,6.24,5.8964,5.6713,5.5665,5.4346,5.389,5.4262,5.5733,5.7965,6.0655,6.1434,6.2699,6.4255,6.5019,6.5392,6.5628,6.6203,6.6406,6.6474,6.702,6.7201,6.718,6.7137,6.6551,6.5909,6.6057,6.6074,6.5943,6.5537,6.5403,6.5403,6.5403,6.5381,6.5291,6.5144,6.5008,6.4826,6.4402,6.3147,6.2071,6.1834,6.0688,5.9132,5.729,5.6157,5.4624,5.1945,5.0983,5.0286,4.9398,4.9398,4.9397,4.9276,5.0634,5.0921,4.9158,4.9738,4.9641,4.8144,4.7923,4.8178,4.8979,5.0098,5.1736,5.394,5.6349,5.8208,5.9478,6.1963,6.293,6.2408,6.3154,6.3579,6.3748,6.3883,6.4275,6.485,6.4986,6.5087,6.5121,6.5696,6.6271,6.6791,6.6791,6.6791,6.6791,6.6791,6.6791,6.6825,6.2778,6.4243,6.5305,6.5155,6.7091,6.87,6.8881,7.0611,7.1827,7.1704,7.1344,7.1101,7.1155,7.0998,7.0809,7.0564,7.0375,7.0114,6.9706,6.9376,6.8759,6.7851,6.7751,6.7407,6.6812,6.5222,6.3734,6.24,5.9979,5.7728,5.5665,5.4871,5.5209,5.6562,5.8032,6.0013,6.2212,6.299,6.4525,6.6555,6.7286,6.803,6.8707,6.8774,6.8774,6.8753,6.858,6.8515,6.8471,6.8249,6.7376,6.6385,6.6182,6.5965,6.5758,6.5492,6.5403,6.5403,6.5403,6.5279,6.5122,6.5099,6.4725,6.4379,6.43,6.301,6.1812,6.1821,6.0688,5.9241,5.7796,5.7635,5.6721,5.3692,5.3365,5.2941,5.1371,5.2373,5.2788,5.149,5.3422,5.371,5.0772,5.115,5.0638,4.8354,4.768,4.7858,4.8961,4.9141,5.0805,5.4339,5.5007,5.6968,6.0431,6.0772,6.1863,6.3726,6.3546,6.3849,6.4512,6.5189,6.5527,6.5628,6.6305,6.6588,6.6588,6.6656,6.6724,6.6791,6.6791,6.6791,6.6791,6.6791,6.6791,6.6893,6.5473,6.5688,6.6199,6.737,6.7975,6.8739,7.0053,7.1002,7.1578,7.1593,7.164,7.1609,7.1452,7.1097,7.0785,7.0531,7.0097,6.9706,6.9434,6.9122,6.8571,6.7731,6.779,6.7492,6.6812,6.5358,6.3869,6.24,6.0554,5.8761,5.7002,5.6258,5.6697,5.8168,5.9689,6.1637,6.3802,6.4965,6.6271,6.7523,6.8301,6.8721,6.886,6.886,6.8772,6.8606,6.8495,6.8451,6.8451,6.8339,6.7982,6.7535,6.7313,6.6879,6.6401,6.6155,6.5734,6.5381,6.5246,6.5167,6.5008,6.4679,6.4472,6.4286,6.4156,6.2927,6.1821,6.1821,6.0688,5.9434,5.86,5.8419,5.7783,5.5947,5.5574,5.5322,5.4953,5.4942,5.4665,5.3759,5.3776,5.2983,5.0751,5.0564,5.0278,4.9577,4.8411,4.8106,4.8961,4.9012,5.0638,5.4208,5.5199,5.7252,6.0571,6.191,6.3131,6.4148,6.4606,6.4952,6.5256,6.5581,6.5933,6.6373,6.6656,6.6791,6.6791,6.6791,6.6791,6.6791,6.6791,6.7062,6.7455,6.7455,6.776,6.8233,6.7535,6.7221,6.7388,6.9192,6.9005,6.9106,7.0596,7.1114,7.1243,7.1182,7.142,7.1562,7.1368,7.0966,7.0492,6.9951,6.96,6.9163,6.8546,6.8443,6.809,6.7462,6.7539,6.7252,6.6508,6.5459,6.4208,6.2719,6.14,6.0013,5.8524,5.8254,5.9032,6.0704,6.2009,6.37,6.5662,6.6948,6.7895,6.8639,6.933,6.9545,6.9457,6.9301,6.9155,6.9043,6.8907,6.8839,6.8839,6.8771,6.8748,6.8625,6.7901,6.7244,6.6689,6.6299,6.5756,6.5269,6.5144,6.4986,6.4781,6.4402,6.4263,6.417,6.4015,6.3052,6.2016,6.1595,6.072,5.9865,5.9306,5.9377,5.9119,5.7803,5.771,5.7664,5.742,5.684,5.6051,5.509,5.3943,5.2515,5.0794,5.0518,5.0514,5.0734,4.9746,4.9303,4.9704,4.9791,5.119,5.4189,5.5809,5.7899,6.0571,6.26,6.3923,6.4526,6.5301,6.5818,6.6,6.6,6.6305,6.6791,6.6791,6.6791,6.6791,6.6791,6.6791,6.6825,6.7028,6.7455,6.7929,6.8166,6.8605,6.9147,6.892,6.9492,6.9992,7.0816,7.0795,7.0647,7.0513,7.0949,7.1198,7.0836,7.1101,7.1227,7.1012,7.0699,6.9951,6.8629,6.8812,6.8338,6.673,6.7004,6.7097,6.6812,6.6791,6.6474,6.5751,6.5717,6.4952,6.3477,6.2753,6.1569,6.008,6.0892,6.2415,6.4546,6.529,6.6474,6.7895,6.8741,6.9485,7.0229,7.0704,7.1019,7.121,7.0699,7.0654,7.0791,7.033,7.02,7.0153,6.986,6.9789,6.9448,6.7544,6.6733,6.6363,6.5635,6.5279,6.5099,6.5076,6.4702,6.4333,6.431,6.4156,6.4024,6.4,6.3408,6.2469,6.1109,6.0785,6.0558,5.9824,6.0828,6.1054,5.8928,5.9792,6.0074,5.8155,5.7883,5.7151,5.5215,5.435,5.3189,5.136,5.1663,5.1867,5.1591,5.1678,5.1655,5.1489,5.1674,5.2624,5.4427,5.6619,5.8673,6.0571,6.2138,6.3613,6.5,6.5475,6.6068,6.6791,6.6791,6.6791,6.6791,6.6791,6.6791,6.6791,6.6791,6.6791,6.6859,6.759,6.7895,6.7996,6.8808,6.9079,6.9214,7.0527,7.0734,7.0826,7.0883,7.0819,7.0718,7.0531,7.0615,7.0769,7.0821,7.0769,7.0766,7.0869,7.0769,7.027,6.9137,6.8905,6.8351,6.7261,6.7031,6.6875,6.6812,6.6791,6.669,6.6474,6.5967,6.5222,6.4241,6.4005,6.3632,6.3193,6.3937,6.4952,6.617,6.7455,6.8538,6.9519,7.0297,7.0737,7.0951,7.0906,7.0848,7.071,7.019,6.9955,6.9836,6.9727,6.9559,6.9382,6.9478,6.9406,6.8965,6.7415,6.6958,6.6918,6.6159,6.5416,6.4771,6.4587,6.4426,6.4263,6.4132,6.4038,6.4,6.4,6.3052,6.1886,6.0979,6.0785,6.0558,5.9824,6.0828,6.1271,5.963,6.017,6.0291,5.8839,5.7786,5.669,5.5344,5.3592,5.2156,5.1362,5.175,5.2134,5.2257,5.312,5.3074,5.1776,5.2716,5.4157,5.6008,5.8491,6.0932,6.3296,6.4295,6.5273,6.623,6.6884,6.732,6.7523,6.7028,6.6791,6.6791,6.6791,6.6791,6.6791,6.6791,6.6791,6.6859,6.7624,6.8233,6.8808,6.9553,7.0161,7.0635,7.1079,7.1081,7.0933,7.0802,7.0718,7.0633,7.0531,7.0565,7.0633,7.0667,7.0358,7.0202,7.0324,7.0398,6.9954,6.8737,6.855,6.7985,6.6882,6.679,6.6791,6.6791,6.6791,6.6656,6.6406,6.6203,6.5899,6.5425,6.5696,6.6,6.6305,6.6745,6.7523,6.8516,6.9519,7.0195,7.0635,7.1086,7.1289,7.1267,7.0893,7.0631,7.0446,6.9988,6.9703,6.9526,6.9526,6.9358,6.9164,6.9334,6.9213,6.8797,6.7618,6.7165,6.6809,6.5916,6.5131,6.4518,6.4356,6.424,6.4179,6.4015,6.4,6.4,6.4,6.3084,6.2081,6.166,6.1595,6.1368,6.0623,6.166,6.2081,6.0397,6.072,6.0583,5.8839,5.7267,5.5904,5.4897,5.3339,5.2284,5.2197,5.3132,5.3874,5.4144,5.5532,5.5619,5.3845,5.4977,5.634,5.7806,6.067,6.3054,6.4986,6.6,6.6745,6.7218,6.7996,6.8199,6.7895,6.7421,6.7083,6.6791,6.6791,6.6791,6.6825,6.7117,6.7028,6.6927,6.8233,6.891,6.9214,7.0229,7.0906,7.1289,7.0868,7.075,7.0564,7.0699,7.0615,7.0513,7.0513,7.0684,7.0718,7.0514,6.9991,6.9598,6.958,6.9691,6.9173,6.7695,6.7919,6.7465,6.586,6.644,6.6791,6.6791,6.6791,6.6474,6.5764,6.6508,6.6893,6.696,6.7658,6.8402,6.918,6.918,6.9958,7.1289,7.1289,7.1289,7.1289,7.1289,7.1289,7.1244,7.0733,7.0492,7.0423,6.9964,6.9751,6.9727,6.9751,6.9583,6.931,6.9334,6.9164,6.8814,6.8094,6.7238,6.6311,6.5101,6.4528,6.4286,6.4286,6.4156,6.4,6.4,6.4,6.4,6.4,6.3376,6.2848,6.2913,6.2881,6.2599,6.1919,6.302,6.3311,6.1141,6.1336,6.082,5.8167,5.6449,5.5072,5.4036,5.3611,5.3544,5.3856,5.552,5.6684,5.6916,5.8526,5.8825,5.7363,5.8256,5.9108,5.9692,6.2905,6.5033,6.5811,6.7218,6.7963,6.8064,6.8774,6.8741,6.8064,6.7996,6.7624,6.696,6.6893,6.6859,6.6927,6.7557,6.7455,6.7096,6.9214,6.9688,6.935,7.0737,7.1255,7.1289,7.085,7.0867,7.0867,7.0802,7.0833,7.0864,7.0864,7.0852,7.0667,7.0306,7.0026,6.9706,6.9416,6.9501,6.9124,6.8053,6.8418,6.809,6.6617,6.669,6.6791,6.6791,6.6791,6.6724,6.6542,6.7252,6.7929,6.8571,6.8741,6.9214,6.9925,6.9925,7.0432,7.1289,7.1289,7.1289,7.1289,7.1289,7.1289,7.1244,7.0733,7.0399,7.02,6.967,6.9237,6.892,6.9116,6.8896,6.8526,6.8724,6.8625,6.8271,6.7589,6.7215,6.6793,6.5571,6.4695,6.4062,6.4062,6.4047,6.4,6.4,6.4,6.4,6.4,6.2987,6.221,6.2761,6.2437,6.2016,6.1821,6.302,6.3311,6.1141,6.0915,6.0062,5.7242,5.632,5.549,5.4264,5.4839,5.5477,5.5791,5.6759,5.768,5.8438,5.8871,5.9361,5.9943,6.1258,6.1636,6.0769,6.3642,6.5817,6.7131,6.764,6.847,6.9654,6.9282,6.9282,6.9642,6.9079,6.8707,6.8538,6.7895,6.7658,6.7624,6.7218,6.7286,6.7692,6.8233,6.9045,6.9958,7.0331,7.0804,7.1289,7.0819,7.09,7.1015,7.1035,7.1081,7.1146,7.1146,7.0747,7.0391,7.0219,6.9543,6.9045,6.8914,6.9288,6.9068,6.7801,6.8261,6.8095,6.6867,6.7117,6.7151,6.6791,6.7489,6.7692,6.732,6.8064,6.8842,6.9586,6.9958,7.0331,7.0703,7.0703,7.0939,7.1289,7.1289,7.1289,7.1289,7.1289,7.1222,7.1075,7.0687,7.0213,6.9798,6.9502,6.9067,6.8649,6.8896,6.8724,6.8401,6.855,6.8426,6.8136,6.778,6.7424,6.706,6.6428,6.5382,6.4453,6.4453,6.4227,6.4,6.4,6.4,6.4,6.4,6.3385,6.2923,6.3311,6.3084,6.2825,6.2825,6.345,6.3311,6.1141,6.0526,5.9198,5.5992,5.5565,5.5266,5.4345,5.596,5.7356,5.7973,5.9399,6.0372,6.0535,6.1404,6.1888,6.177,6.3379,6.3735,6.2416,6.4661,6.644,6.7584,6.8497,6.9553,7.0703,7.0297,7.0128,7.0184,6.9789,6.9214,6.8538,6.8098,6.7726,6.7387,6.7354,6.7557,6.7963,6.8673,6.9451,7.0229,7.0567,7.0973,7.1289,7.0819,7.0916,7.1114,7.126,7.1308,7.1308,7.1292,7.0695,7.0165,7.0097,6.9026,6.828,6.826,6.9015,6.8942,6.7473,6.8009,6.8006,6.7015,6.7557,6.7658,6.7163,6.8402,6.8774,6.8098,6.8876,6.962,7.0364,7.1007,7.1289,7.1289,7.1289,7.1289,7.1244,7.1244,7.1222,7.1199,7.1199,7.103,7.0825,7.0538,7.0049,6.9463,6.9439,6.9067,6.8625,6.8871,6.8773,6.855,6.855,6.8401,6.8201,6.8201,6.7837,6.7401,6.7401,6.6461,6.5415,6.514,6.4533,6.4038,6.4085,6.4062,6.4038,6.4085,6.3997,6.3918,6.3991,6.3903,6.3894,6.3968,6.3926,6.3237,6.1361,6.0258,5.8528,5.5324,5.5215,5.5303,5.4939,5.733,5.9405,6.0338,6.2316,6.3308,6.2882,6.422,6.4552,6.3321,6.491,6.5344,6.4236,6.5621,6.6846,6.7752,6.951,7.0669,7.1289,7.1289,7.0973,7.0364,7.0364,6.9654,6.8402,6.8301,6.7895,6.7332,6.7861,6.8132,6.8368,6.9574,7.0161,7.0432,7.0939,7.1188,7.1289,7.0785,7.1051,7.126,7.1276,7.1404,7.1436,7.1308,7.1029,7.0509,6.958,6.925,6.8743,6.7739,6.8323,6.8588,6.8174,6.8642,6.8615,6.7793,6.7827,6.8166,6.8707,6.8977,6.9045,6.891,6.9654,7.0398,7.1142,7.1222,7.1289,7.1289,7.1289,7.1199,7.0961,7.0961,7.0848,7.0608,7.0608,7.0584,7.0538,7.034,7.0035,6.9727,6.9511,6.9067,6.86,6.8649,6.8501,6.8251,6.8251,6.8226,6.8201,6.8201,6.8286,6.8388,6.8388,6.7981,6.7212,6.5734,6.4816,6.431,6.4541,6.4426,6.431,6.4541,6.3969,6.3534,6.3918,6.3505,6.3246,6.3871,6.3505,6.2899,6.2329,6.0609,5.8808,5.723,5.7363,5.7623,5.76,5.9873,6.1834,6.2843,6.3288,6.389,6.4853,6.4037,6.3998,6.5267,6.5798,6.5865,6.5512,6.5767,6.6755,6.8515,7.0253,7.1188,7.1289,7.1289,7.1222,7.1142,7.1142,7.0985,7.0714,7.0094,6.9777,6.962,6.9113,6.9282,6.9789,6.9417,7.0026,7.1075,7.0567,7.077,7.1289,7.09,7.1179,7.1388,7.1308,7.134,7.134,7.1179,7.0678,7.0148,6.9543,6.9338,6.8966,6.8336,6.9178,6.9543,6.8936,6.9487,6.965,6.9168,6.9147,6.9113,6.9113,6.9857,7.0297,7.0297,7.0635,7.0973,7.1289,7.1289,7.1289,7.1289,7.1289,7.1244,7.1131,7.0961,7.0848,7.0733,7.0561,7.0423,7.034,7.0223,6.9941,6.9559,6.9285,6.8945,6.8575,6.8426,6.8301,6.8201,6.8201,6.8201,6.8226,6.8376,6.8501,6.8625,6.8773,6.8207,6.7414,6.6607,6.5955,6.5535,6.5649,6.5581,6.5413,6.5132,6.4735,6.449,6.4705,6.428,6.4057,6.4636,6.393,6.3211,6.2969,6.0771,5.8901,5.8369,5.8313,5.8633,5.9455,6.1822,6.3735,6.4613,6.5033,6.5499,6.6125,6.5392,6.5291,6.6139,6.6497,6.6654,6.6578,6.7078,6.7856,6.8892,7.0501,7.1289,7.1289,7.1289,7.1289,7.1289,7.1289,7.1075,7.0669,6.9925,6.962,6.9519,6.8335,6.8774,7.015,6.9383,6.9992,7.1255,7.0939,7.1007,7.1289,7.0966,7.1211,7.1336,7.1243,7.1227,7.1162,7.0982,7.0304,6.9742,6.968,6.9393,6.9149,6.898,6.9859,7.0221,6.9632,7.0085,7.0461,7.0454,7.0466,7.0195,6.9654,7.0703,7.1289,7.1289,7.1289,7.1289,7.1289,7.1289,7.1289,7.1289,7.1289,7.112,7.0771,7.0556,7.0352,7.0069,6.9829,6.9666,6.9583,6.9583,6.9472,6.919,6.8689,6.8577,6.8617,6.8132,6.8122,6.8301,6.8376,6.8401,6.8426,6.8699,6.8797,6.8822,6.9018,6.8436,6.7662,6.7516,6.7158,6.6798,6.6699,6.6776,6.6599,6.578,6.5669,6.5691,6.5459,6.5134,6.4976,6.5336,6.4518,6.3704,6.3468,6.1405,5.9777,5.9638,5.9563,6.0041,6.1475,6.3605,6.5369,6.6289,6.6973,6.7244,6.6998,6.6828,6.6654,6.6421,6.7153,6.7579,6.7623,6.8516,6.8973,6.8992,7.0523,7.1289,7.1289,7.1289,7.1289,7.1289,7.1289,7.1007,7.0432,6.9857,6.962,6.9519,6.8166,6.8605,7.0128,6.9586,7.006,7.1075,7.1222,7.1289,7.1289,7.0802,7.0933,7.1029,7.1012,7.1012,7.0982,7.0836,7.0253,6.9809,6.9799,6.9431,6.9172,6.9083,6.9351,6.9678,7.0104,7.0206,7.0522,7.1176,7.1222,7.1188,7.112,7.1222,7.1289,7.1289,7.1289,7.1289,7.1289,7.1289,7.1289,7.1289,7.1289,7.0579,6.9269,6.9213,6.8593,6.7545,6.7522,6.7615,6.7777,6.7777,6.8175,6.8635,6.7504,6.7847,6.8798,6.7687,6.7824,6.86,6.8871,6.8945,6.8994,6.9237,6.9334,6.9334,6.9358,6.932,6.9062,6.8167,6.7945,6.7757,6.7257,6.7536,6.7579,6.6343,6.6434,6.6512,6.5603,6.5381,6.5381,6.5403,6.4774,6.4165,6.3893,6.3108,6.2271,6.1602,6.207,6.2966,6.4245,6.5395,6.6716,6.8324,6.8745,6.8553,6.7594,6.7538,6.7127,6.6172,6.771,6.8682,6.8946,6.9445,6.939,6.8739,7.0422,7.1289,7.1289,7.1289,7.1289,7.1289,7.1289,7.1255,7.1222,7.1154,7.112,7.1086,7.0263,7.0026,7.0195,7.0128,7.0195,7.0364,7.1075,7.1289,7.1289,7.0611,7.09,7.0963,7.0867,7.0528,7.02,7.0097,6.9508,6.9196,6.9402,6.9561,6.9597,6.9326,6.9638,7.0001,7.0184,7.0217,7.05,7.1255,7.1289,7.1289,7.1289,7.1289,7.1289,7.1289,7.1289,7.1289,7.1289,7.1289,7.1075,7.0635,7.0759,7.0016,6.8605,6.8613,6.8181,6.7496,6.7334,6.7437,6.7589,6.7589,6.7754,6.7986,6.7536,6.7673,6.8055,6.7436,6.7493,6.7904,6.7865,6.796,6.8126,6.8384,6.8775,6.931,7.0103,7.0314,7.0275,7.0108,6.9693,6.9334,6.9098,6.921,6.9132,6.8154,6.774,6.7418,6.7028,6.6365,6.5922,6.6204,6.5428,6.4951,6.5598,6.4334,6.3397,6.3913,6.3859,6.4024,6.4784,6.6182,6.7329,6.7954,6.8678,6.8934,6.8543,6.8543,6.8364,6.7974,6.8601,6.9194,6.9755,6.9938,6.9691,6.897,7.0523,7.1289,7.1289,7.1289,7.1289,7.1289,7.1289,7.1379,7.1445,7.0871,7.069,7.0699,6.9347,6.9079,6.9451,6.8977,6.935,7.0251,7.05,7.0906,7.1289,6.9973,7.0219,7.0235,7.0167,6.9742,6.9435,6.9342,6.8784,6.8542,6.9058,6.9241,6.9331,6.9304,6.9606,6.9947,7.0184,7.0217,7.05,7.1255,7.1289,7.1289,7.1289,7.1289,7.1289,7.1289,7.1289,7.1289,7.1289,7.1289,7.0996,7.0422,7.0263,6.9397,6.7967,6.7668,6.7161,6.6595,6.6595,6.6802,6.7121,6.7053,6.7231,6.7544,6.7316,6.7344,6.745,6.7264,6.7324,6.7509,6.744,6.7556,6.7808,6.8058,6.8437,6.9027,7.0208,7.0546,7.0658,7.1154,7.0939,7.0466,7.0263,7.0364,7.0297,6.9316,6.8842,6.8538,6.8335,6.7423,6.6755,6.7087,6.6289,6.5758,6.6344,6.5309,6.4645,6.5199,6.5194,6.528,6.5778,6.701,6.7912,6.8147,6.8938,6.935,6.9113,6.9316,6.9451,6.9451,6.9451,6.9688,7.0184,7.0398,7.0195,6.9451,7.0703,7.1289,7.1289,7.1289,7.1289,7.1289,7.1289,7.1412,7.1566,7.061,7.0294,7.0355,6.8645,6.8233,6.8673,6.8132,6.8707,6.9857,7.0116,7.0669,7.1289,6.8705,6.8705,6.8705,6.8705,6.8705,6.8705,6.8705,6.8128,6.7985,6.8795,6.8318,6.8199,6.9011,6.9079,6.9383,7.015,7.0195,7.05,7.1255,7.1289,7.1289,7.1289,7.1289,7.1289,7.1289,7.1289,7.1289,7.1289,7.1289,7.1143,7.086,6.9926,6.8711,6.7264,6.6251,6.5251,6.4356,6.4885,6.5514,6.6095,6.5889,6.6465,6.743,6.6745,6.6779,6.7184,6.7175,6.7371,6.7635,6.7831,6.808,6.8328,6.8606,6.8517,6.8495,6.9503,6.9805,7.0007,7.1041,7.1289,7.1142,7.0398,7.077,7.0939,6.9451,6.9688,6.9992,6.9248,6.847,6.7895,6.7895,6.732,6.6555,6.5831,6.6184,6.6186,6.5146,6.6111,6.7089,6.7546,6.8023,6.8584,6.931,6.9895,6.9891,6.9147,6.9789,7.0217,7.0217,7.0217,7.0217,7.0217,7.0906,7.0939,7.0217,7.0939,7.1289,7.1289,7.1289,7.1289,7.1289,7.1289,7.1412,7.1566,7.061,7.0328,7.0355,6.8624,6.7895,6.7895,6.7895,6.8402,6.918,6.9925,7.0669,7.1289,6.8524,6.8705,6.8705,6.8705,6.8304,6.8009,6.8009,6.7448,6.7343,6.809,6.8023,6.7996,6.8233,6.8267,6.8571,6.935,6.9417,6.9958,7.1222,7.1289,7.1289,7.1289,7.1289,7.1289,7.1289,7.1289,7.1222,7.1007,7.0848,7.0408,6.9836,6.8841,6.7683,6.645,6.5811,6.5427,6.5292,6.5658,6.629,6.6995,6.6967,6.711,6.7377,6.6892,6.6911,6.7057,6.6578,6.6699,6.7038,6.6951,6.706,6.7343,6.7969,6.8082,6.8309,6.9679,6.9713,6.96,7.0951,7.0939,7.0601,7.0906,7.112,7.1188,7.0714,7.0398,7.0128,6.9925,6.9282,6.8741,6.8741,6.8408,6.7873,6.7153,6.7441,6.7234,6.5778,6.679,6.7465,6.6883,6.7554,6.8226,6.8595,6.9435,6.9917,6.9891,7.0567,7.0973,7.0973,7.0466,7.0432,7.0973,7.0669,7.0669,7.0973,7.1188,7.1289,7.1289,7.1289,7.1289,7.1289,7.1289,7.1412,7.16,7.113,7.0802,7.0456,6.9797,6.8876,6.7895,6.7895,6.8402,6.9113,6.935,7.0229,7.1289,6.7782,6.7965,6.7965,6.7965,6.759,6.7325,6.7325,6.7029,6.696,6.7421,6.7455,6.7455,6.7455,6.7455,6.7929,6.9011,6.9654,7.0364,7.1222,7.1289,7.1289,7.1289,7.1289,7.1289,7.1289,7.1289,7.1176,7.0893,7.0756,7.036,6.9685,6.8483,6.7582,6.6929,6.6357,6.621,6.6454,6.7211,6.7878,6.8405,6.8097,6.8076,6.8157,6.7513,6.7303,6.7324,6.6748,6.6803,6.7048,6.6651,6.6656,6.6859,6.732,6.7658,6.8132,6.9383,6.9654,6.9722,7.0635,7.0737,7.0669,7.0838,7.1075,7.1289,7.1289,7.0973,7.0635,7.0635,7.006,6.9497,6.9387,6.9107,6.8626,6.7979,6.8104,6.7825,6.6424,6.7421,6.7939,6.7049,6.7553,6.8046,6.8159,6.8898,6.9715,7.0579,7.1075,7.1289,7.1289,7.0872,7.0838,7.1289,7.0872,7.0838,7.1289,7.1289,7.1289,7.1289,7.1289,7.1289,7.1289,7.1289,7.1412,7.1544,7.1085,7.0734,7.0456,6.9967,6.9214,6.8368,6.8368,6.8842,6.9553,6.9553,7.0297,7.1289,6.6791,6.6791,6.6791,6.6791,6.6791,6.6791,6.6791,6.6859,6.6859,6.6791,6.6859,6.6859,6.6791,6.6859,6.7468,6.8977,7.0444,7.1289,7.1289,7.1289,7.1289,7.1289,7.1289,7.1289,7.1289,7.1289,7.1176,7.0893,7.0803,7.0574,7.019,6.8623,6.8036,6.8183,6.7512,6.7339,6.7631,6.9071,6.9783,6.9872,6.9287,6.9233,6.9362,6.8266,6.7934,6.7959,6.742,6.741,6.7526,6.6764,6.6656,6.6791,6.6791,6.732,6.8064,6.8876,6.9519,7.0048,7.0229,7.0703,7.1007,7.05,7.0906,7.1357,7.1323,7.1289,7.1289,7.1289,7.077,7.023,6.9951,6.9523,6.9029,6.8462,6.8405,6.8081,6.7112,6.8015,6.8506,6.7787,6.7862,6.7999,6.8088,6.8529,6.9479,7.1143,7.1289,7.1289,7.1289,7.1289,7.1289,7.1289,7.1289,7.1289,7.1289,7.1289,7.1289,7.1289,7.1289,7.1289,7.1289,7.1289,7.139,7.1522,7.0678,7.0395,7.0515,6.964,6.9248,6.9214,6.9214,6.962,7.0217,7.0217,7.0669,7.1289,6.6791,6.6791,6.6791,6.6791,6.6791,6.6791,6.6791,6.7286,6.7455,6.6859,6.732,6.7455,6.6859,6.732,6.8064,6.9011,7.0444,7.1289,7.1289,7.1289,7.1289,7.1289,7.1289,7.1289,7.1289,7.1289,7.1176,7.0893,7.0106,6.9969,7.0389,6.8283,6.7747,6.846,6.748,6.7352,6.7951,6.9064,6.9554,6.9567,6.9967,6.985,6.9287,6.8171,6.8227,6.8782,6.7831,6.7671,6.7729,6.6998,6.6749,6.6791,6.6791,6.732,6.8064,6.8876,6.8774,6.8774,7.0601,7.0331,6.9958,7.1515,7.2022,7.2022,7.1424,7.1289,7.1289,7.1289,7.1154,7.0985,7.0726,7.0409,6.9925,6.9048,6.9241,6.9011,6.7648,6.8662,6.9268,6.8539,6.8022,6.8015,6.8798,6.9277,6.9962,7.0917,7.1199,7.1289,7.1289,7.1289,7.1289,7.1289,7.1289,7.1289,7.1289,7.1289,7.1289,7.1289,7.1289,7.1289,7.1289,7.1289,7.1334,7.1345,7.1165,7.1097,7.1108,7.0906,7.05,6.9958,6.9958,7.0082,7.0217,7.0217,7.0669,7.1289,6.6791,6.6791,6.6791,6.6791,6.6791,6.6791,6.6791,6.7151,6.7252,6.6859,6.7151,6.7252,6.6825,6.7455,6.8368,6.9519,7.0669,7.1289,7.1289,7.1289,7.1289,7.1289,7.1289,7.1289,7.1289,7.1176,7.103,7.0893,7.0006,6.9893,7.0482,6.8516,6.8224,6.9233,6.8638,6.8626,6.9122,7.0136,7.0511,7.0464,7.0592,7.0191,6.9361,6.8081,6.8176,6.8774,6.7358,6.7299,6.7827,6.7455,6.732,6.7252,6.6893,6.732,6.8064,6.8876,6.9045,6.9248,7.0466,7.0737,7.0872,7.1684,7.2394,7.2732,7.1988,7.1819,7.1718,7.1357,7.1289,7.1199,7.0779,7.071,7.0415,6.955,6.9755,6.9542,6.8298,6.9103,6.9533,6.8771,6.8042,6.7847,6.8521,6.922,6.9995,7.0826,7.1154,7.1289,7.1289,7.1289,7.1289,7.1289,7.1289,7.1289,7.1289,7.1289,7.1289,7.1289,7.1289,7.1289,7.1289,7.1289,7.1289,7.1289,7.1289,7.1222,7.1131,7.1131,7.0895,7.0524,7.0524,7.0591,7.0737,7.0737,7.0973,7.1289,6.6791,6.6791,6.6791,6.6791,6.6791,6.6791,6.6791,6.6893,6.6927,6.6825,6.6893,6.6927,6.6791,6.759,6.8707,7.0229,7.0973,7.1289,7.1289,7.1289,7.1289,7.1289,7.1289,7.1289,7.1289,7.1075,7.0961,7.0961,7.0198,7.013,7.0735,6.9117,6.902,7.0161,6.9921,6.9926,7.0113,7.109,7.1463,7.1358,7.0839,7.0243,6.9484,6.8046,6.8046,6.8574,6.6909,6.7095,6.8098,6.7963,6.7996,6.7963,6.7218,6.759,6.8402,6.8944,6.962,7.0251,7.0331,7.1278,7.2124,7.1785,7.2699,7.351,7.2935,7.2597,7.2191,7.1424,7.1267,7.1075,7.0584,7.0631,7.0572,6.9917,6.9988,6.9859,6.9017,6.9401,6.9533,6.8771,6.8175,6.788,6.8076,6.9027,6.9935,7.0722,7.1007,7.1199,7.1222,7.1244,7.1244,7.1289,7.1176,7.1154,7.1289,7.1154,7.1176,7.1289,7.1289,7.1289,7.1289,7.1289,7.1267,7.1244,7.1244,7.1075,7.0848,7.0848,7.087,7.0893,7.0893,7.1052,7.1289,7.1289,7.1289,7.1289,6.6791,6.6791,6.6791,6.6791,6.6791,6.6791,6.6791,6.7354,6.7523,6.6859,6.7354,6.7523,6.6859,6.8098,6.9553,7.1019,7.1222,7.1289,7.1289,7.1289,7.1289,7.1289,7.1289,7.1289,7.1289,7.1267,7.1244,7.1244,7.0288,7.0489,7.1776,6.992,6.9702,7.0814,6.9885,6.946,6.9568,7.0305,7.0675,7.0602,7.0174,6.9954,6.9683,6.8117,6.8189,6.9009,6.8004,6.8187,6.8842,6.8132,6.8368,6.8808,6.7996,6.8741,6.9789,6.9248,6.962,7.0331,7.0973,7.1312,7.1729,7.2902,7.3815,7.4424,7.4356,7.3308,7.2191,7.1424,7.1131,7.087,7.0538,7.0386,7.0176,6.9846,6.9846,6.9813,6.9666,6.9732,6.9533,6.8771,6.8606,6.8563,6.8609,6.954,7.0146,7.027,7.0502,7.0733,7.0939,7.0939,7.1052,7.1289,7.0669,7.0635,7.1289,7.0669,7.0669,7.1289,7.1289,7.1289,7.1289,7.1289,7.1176,7.0939,7.0939,7.0802,7.0538,7.0538,7.0676,7.0893,7.0893,7.1052,7.1289,7.1289,7.1289,7.1289,6.6791,6.6791,6.6791,6.6791,6.6791,6.6791,6.6791,6.7083,6.7184,6.6825,6.7083,6.7163,6.6825,6.7793,6.9214,7.112,7.0939,7.0872,7.1255,7.1289,7.1289,7.1289,7.1289,7.1289,7.1289,7.1154,7.1289,7.1712,7.0808,7.0918,7.1973,7.0366,7.0094,7.0932,6.9874,6.9394,6.9411,6.9468,6.9494,6.951,6.9621,6.9356,6.8749,6.8182,6.8211,6.857,6.837,6.8345,6.8368,6.803,6.8046,6.814,6.7364,6.787,6.8769,6.887,6.9499,7.0364,7.1109,7.1921,7.2699,7.3364,7.4356,7.51,7.4671,7.3781,7.28,7.209,7.1682,7.1295,7.0639,7.034,7.0106,6.9846,6.9798,6.9798,6.9798,6.9798,6.9368,6.8241,6.8804,6.897,6.8175,6.937,7.0176,7.0176,7.041,7.0538,7.0654,7.0687,7.0802,7.1086,7.0367,7.04,7.1289,7.0567,7.0567,7.1289,7.1289,7.1289,7.1289,7.1154,7.1007,7.0893,7.0756,7.0572,7.034,7.0446,7.0561,7.0676,7.0848,7.1052,7.1289,7.1289,7.1289,7.1289]}]]